GFSGBSN_2pvu_pres_000.txt.gz
Presure
229 313 283 273 230 244 228 122 129 215 210 209 213 202 205 197 205 203 202 193 193 191 205 203 196 156 200 204 152 183 271 264 260 266 249 256 267 276 225 222 247 77 185 163 113 169 102
218 230 311 242 285 251 235 226 220 225 224 221 220 222 220 205 209 195 210 189 174 209 197 202 191 151 169 155 221 225 269 257 252 243 254 253 254 261 269 224 228 248 206 204 204 112 101
207 215 221 255 272 271 249 219 138 217 223 224 223 223 210 221 206 174 207 193 174 205 195 206 189 191 202 217 218 221 269 248 255 245 251 239 242 248 253 267 212 229 244 205 205 189 106
210 203 212 212 214 277 289 252 223 221 222 213 204 214 222 220 211 194 211 198 214 190 197 204 200 184 200 212 215 241 253 239 235 230 235 230 236 237 246 257 265 216 241 216 205 123 198
226 213 202 208 209 203 214 242 254 230 228 221 148 220 212 212 211 217 195 218 208 218 217 205 197 194 208 204 215 241 241 237 237 237 235 234 239 243 249 209 257 270 210 247 90 150 199
222 218 211 190 215 203 206 208 207 241 240 226 226 219 223 223 214 194 197 203 207 220 222 211 189 204 204 210 237 239 234 230 228 230 233 235 240 241 248 250 182 266 289 213 227 199 97
226 233 177 222 203 215 205 198 215 215 216 278 236 228 234 228 227 208 194 211 213 198 215 206 198 203 208 227 246 236 229 230 228 231 228 231 243 244 241 250 258 284 98 273 244 208 200
216 205 232 196 214 198 205 200 196 213 212 226 291 265 239 166 231 218 220 201 209 205 212 198 200 203 218 248 241 234 243 231 225 226 231 243 249 249 264 262 273 297 298 314 232 244 203
249 222 233 239 230 215 194 215 207 199 217 232 251 294 268 231 233 231 231 209 221 215 205 198 200 214 240 253 234 233 225 223 229 245 254 279 339 209 326 316 262 314 312 333 213 241 147
230 218 224 231 235 231 233 225 202 223 229 147 258 280 265 264 228 241 219 218 217 211 208 195 207 221 253 242 228 222 233 252 262 276 336 350 192 299 332 319 305 310 321 315 223 244 218
229 230 246 233 236 247 249 236 238 242 236 239 272 286 272 260 233 236 214 220 205 199 204 208 222 254 251 216 231 241 259 274 337 343 351 379 359 341 103 331 327 331 92 284 215 240 217
258 267 267 261 256 288 270 253 210 252 250 257 273 274 274 264 247 224 222 217 209 208 200 219 247 257 221 231 242 260 289 334 359 350 364 353 354 358 379 187 360 362 287 267 213 238 217
500 464 522 506 385 325 328 302 196 275 278 273 274 275 268 194 236 222 222 206 204 202 217 236 250 223 231 248 265 326 390 378 349 346 391 389 390 365 374 376 483 338 274 259 239 240 206
541 526 519 490 440 368 363 317 325 291 227 279 277 295 273 275 225 227 207 203 207 209 226 252 216 225 239 269 465 404 358 348 369 408 371 79 248 353 377 368 301 272 132 227 98 178 231
562 513 502 521 384 369 353 380 323 309 284 277 274 287 275 237 228 223 200 211 203 217 247 207 225 233 270 394 391 368 359 417 368 366 362 353 361 362 322 271 277 279 234 209 203 204 189
482 517 474 478 373 334 355 343 332 313 291 276 289 275 267 231 229 204 207 200 210 233 210 221 229 258 378 376 363 366 396 332 339 341 342 345 318 271 285 268 254 241 156 196 169 214 140
481 460 493 513 366 341 320 325 327 299 283 275 289 276 236 232 212 205 207 210 222 250 215 208 220 273 393 178 387 382 336 334 165 238 283 273 264 267 262 257 218 244 198 193 199 194 191
497 479 389 352 336 334 331 331 145 324 281 284 287 241 230 219 206 210 200 212 241 214 217 205 248 280 347 391 362 334 340 274 267 110 268 264 263 255 245 235 228 80 195 233 209 191 189
415 502 350 326 335 328 322 314 344 298 279 289 266 198 225 212 210 199 214 222 247 224 200 207 248 271 325 294 307 290 268 264 264 223 260 84 266 201 191 206 186 232 243 214 199 184 185
437 422 339 333 325 332 331 298 307 286 277 290 250 232 219 207 185 206 210 237 221 217 203 222 236 259 305 287 288 269 263 259 257 196 171 206 261 234 213 200 198 259 229 209 201 186 167
402 358 345 337 317 329 329 313 293 284 288 292 190 226 211 210 204 211 213 242 225 217 208 204 227 247 303 287 278 278 256 262 237 253 250 248 92 113 195 199 250 213 121 171 154 186 183
436 382 337 321 298 326 321 304 295 289 289 291 231 220 214 205 208 212 222 245 233 220 210 203 219 231 245 279 284 280 269 178 259 255 247 195 231 193 184 203 231 217 205 196 178 177 185
421 339 325 316 322 330 301 194 292 293 240 242 226 208 217 208 214 215 238 233 230 218 210 200 221 216 222 231 251 267 270 221 206 251 244 238 221 235 260 228 212 186 145 151 153 184 173
368 345 315 348 325 317 288 282 301 283 250 236 222 213 209 216 214 214 243 228 209 231 210 207 206 220 216 207 222 201 192 191 200 205 219 201 246 264 250 217 183 204 188 194 189 182 181
345 339 336 333 344 207 270 298 297 254 246 230 223 219 210 215 217 217 235 231 214 225 209 208 211 209 211 219 207 205 208 210 208 204 231 244 247 240 201 204 200 205 193 187 185 188 184
365 349 327 328 310 296 300 301 291 243 243 227 224 216 209 204 177 222 233 230 230 222 229 210 203 203 209 211 212 241 214 207 200 191 228 238 243 242 218 196 203 202 194 192 187 191 185
352 339 331 338 308 306 140 289 255 246 232 215 222 211 212 206 213 219 235 222 227 225 232 212 204 199 200 221 231 237 214 214 210 200 208 246 249 249 218 190 201 200 191 185 189 189 185
343 341 328 338 308 166 124 171 253 247 230 225 209 213 212 208 220 222 234 233 234 224 226 211 209 204 211 212 198 222 241 300 165 204 201 208 233 275 263 255 210 202 194 193 189 188 186
348 342 317 339 285 295 279 129 253 241 239 228 218 217 211 212 221 214 265 230 226 225 229 230 207 204 194 198 211 221 230 236 273 278 300 265 204 211 294 310 330 211 191 191 196 192 191

GFSGBSN_2pvu_pres_003.txt.gz
Presure
290 233 224 233 242 305 294 275 249 251 231 233 126 127 214 214 196 203 199 214 200 197 200 224 205 206 223 210 222 211 200 202 202 207 226 241 235 283 237 267 259 231 233 258 195 191 193
273 236 224 227 235 242 307 280 264 249 223 236 228 219 195 212 207 210 208 217 209 209 211 199 199 209 203 197 198 216 201 195 200 219 238 235 274 274 274 266 271 247 231 232 140 212 209
267 255 229 224 220 227 237 297 271 263 229 230 236 225 211 213 213 217 205 200 219 223 212 189 212 207 166 217 168 225 202 196 179 216 161 229 271 259 258 264 257 266 252 219 226 247 98
280 245 249 224 222 208 217 229 295 280 264 237 236 232 230 224 222 219 217 216 224 213 202 205 206 210 199 205 164 221 206 208 199 218 213 244 270 255 250 246 249 247 261 270 201 224 246
262 263 246 240 222 220 207 212 216 232 278 282 254 241 229 222 214 149 182 225 222 220 222 212 214 189 186 204 218 223 208 196 208 212 219 257 262 251 248 241 240 243 246 255 261 210 233
266 268 243 242 239 217 219 212 205 213 215 162 274 265 256 240 235 230 217 212 212 214 205 212 219 201 210 200 219 217 217 202 209 208 249 245 242 236 230 237 241 246 247 248 253 259 216
307 255 263 243 241 236 224 218 224 216 171 206 217 213 293 242 242 238 228 228 223 219 212 219 206 214 216 209 215 220 194 204 205 217 248 248 236 227 235 237 240 247 249 255 252 259 265
280 262 239 262 250 213 208 229 228 226 221 203 205 227 210 222 220 280 244 240 230 226 223 216 217 200 220 206 227 199 204 203 210 222 253 241 229 237 245 238 240 246 249 254 253 263 218
237 231 264 240 227 220 206 212 232 236 212 206 220 202 207 210 214 223 227 257 278 243 233 219 226 222 220 216 220 207 204 210 219 245 251 179 230 235 234 236 236 239 246 243 256 256 266
251 247 250 229 228 223 233 238 212 211 228 223 205 227 200 213 199 225 234 251 269 277 259 226 228 220 217 225 204 205 211 224 240 259 241 232 227 227 232 242 244 247 245 246 255 262 269
258 232 227 237 233 238 240 238 229 221 225 226 199 237 220 202 205 210 229 253 274 269 277 225 233 215 215 215 204 209 225 237 258 239 229 232 162 247 258 254 262 258 263 273 290 286 130
236 241 254 264 263 255 248 246 249 239 237 238 232 219 235 200 227 232 238 258 277 264 260 263 225 219 196 208 207 226 239 256 235 235 240 259 273 206 261 341 343 176 331 327 313 305 303
400 510 533 538 556 358 452 294 261 257 248 241 242 242 239 244 233 178 258 264 180 265 264 227 226 215 210 213 232 250 259 235 243 268 352 364 362 354 351 349 96 344 333 324 311 314 330
488 578 496 504 505 512 391 495 406 279 267 254 243 248 255 261 239 249 268 282 274 265 231 230 208 211 224 237 251 240 253 392 395 375 360 351 347 344 347 356 368 369 324 314 306 265 117
648 567 516 469 480 501 456 468 347 344 359 324 285 259 274 270 249 274 269 274 267 230 224 209 206 225 236 258 221 311 386 372 358 183 124 387 390 131 384 357 358 369 354 319 263 254 245
624 558 519 460 511 501 531 361 346 339 345 333 306 289 294 274 273 275 271 271 234 224 213 204 224 235 253 231 377 387 385 375 400 377 347 298 236 342 346 363 398 402 336 259 251 247 171
602 575 448 486 461 465 408 361 345 333 338 335 338 305 296 285 282 270 274 235 227 213 211 221 235 241 222 375 396 427 393 365 373 274 353 335 329 326 347 366 389 334 257 253 242 250 249
626 441 454 459 440 375 348 335 332 341 323 367 286 319 298 285 270 275 241 227 216 212 218 232 235 219 363 414 344 351 343 340 341 355 337 291 316 302 283 269 264 252 252 88 242 238 211
600 523 440 453 365 350 341 326 323 342 343 156 267 332 303 280 278 238 226 217 210 209 229 231 208 236 303 281 268 288 288 268 256 260 220 253 253 253 253 248 249 133 241 205 231 245 215
428 425 445 416 349 334 344 337 327 307 288 283 302 318 287 286 238 231 222 212 204 222 233 204 202 276 271 270 190 256 261 262 239 244 253 193 244 237 239 243 246 172 245 184 209 208 214
604 551 447 359 352 331 321 316 288 288 292 297 309 296 288 243 235 223 184 216 216 230 219 199 225 247 250 261 267 262 250 252 241 220 233 96 190 99 240 244 241 226 134 109 231 228 273
439 388 369 357 342 340 330 333 301 279 311 301 329 288 250 169 226 217 199 204 226 233 212 203 223 246 252 240 238 251 256 253 239 189 235 183 176 205 87 149 244 245 184 176 168 257 261
450 380 356 348 338 329 316 312 204 315 317 308 286 283 239 213 220 217 211 210 237 236 205 201 216 227 241 224 259 262 255 245 252 252 182 144 106 197 238 231 244 243 188 236 248 245 190
465 421 349 330 313 330 305 296 293 311 312 285 292 245 223 227 222 215 204 220 235 218 202 209 216 224 226 221 209 272 236 272 244 255 135 243 197 189 228 201 210 245 217 98 272 204 138
488 411 351 326 328 311 300 287 307 222 284 289 247 238 224 220 217 210 209 236 232 243 204 208 209 215 215 221 234 229 172 253 269 217 245 237 241 221 247 256 197 219 257 249 221 192 178
582 407 355 340 312 320 299 297 317 307 292 253 245 231 222 191 216 219 220 236 228 216 211 208 222 206 207 204 209 206 224 229 198 196 253 199 239 233 203 229 218 194 243 239 198 188 179
401 388 362 323 299 331 319 308 314 305 290 251 231 227 217 217 218 218 208 233 231 220 216 207 211 201 207 207 203 200 201 203 198 195 203 211 219 227 214 216 233 250 247 207 201 193 196
402 408 346 339 306 296 318 313 324 292 298 249 234 224 213 218 216 218 233 232 227 218 226 207 210 204 209 205 214 210 202 206 198 194 200 204 226 236 247 254 253 246 208 204 202 195 191
421 375 358 341 323 313 298 318 129 190 250 232 230 218 222 217 224 213 240 222 233 233 218 228 207 208 201 206 220 226 210 246 213 206 200 200 193 241 242 260 278 230 196 209 199 201 196

GFSGBSN_2pvu_pres_006.txt.gz
Presure
297 296 321 312 289 280 245 235 230 331 311 244 269 262 244 239 216 217 220 214 208 194 196 194 205 196 208 201 209 209 222 220 209 224 223 219 192 199 208 216 198 231 230 233 241 230 203
260 307 330 243 282 277 248 234 228 252 309 282 272 258 247 237 163 155 126 213 173 206 189 196 214 194 206 218 193 199 213 212 215 231 225 209 206 211 204 212 222 247 246 282 282 236 227
308 330 317 296 284 265 255 236 227 229 293 294 268 261 250 238 201 215 219 217 214 210 205 206 196 202 214 209 214 209 206 211 225 192 226 232 211 204 197 199 232 237 279 278 278 284 236
339 310 308 298 284 265 251 241 220 225 228 284 279 266 236 248 238 222 222 217 212 207 207 206 206 214 201 206 222 218 190 220 229 174 208 196 232 198 198 200 231 239 276 271 267 274 275
328 324 310 298 279 271 250 250 235 224 219 227 281 277 254 244 235 183 144 144 224 210 206 210 214 211 214 215 222 214 201 195 209 202 220 220 225 222 211 204 219 166 266 263 260 257 260
334 296 311 307 288 271 266 249 249 227 220 219 222 240 279 253 245 228 230 225 228 228 143 225 210 217 219 220 224 215 215 214 216 197 200 217 229 231 201 216 225 267 269 252 247 245 252
280 271 270 284 281 299 276 240 245 246 224 218 213 218 225 239 279 254 247 237 229 216 222 211 207 213 213 211 205 217 224 218 219 219 215 216 223 220 208 220 226 265 267 257 251 249 249
271 266 264 229 229 260 285 247 271 248 245 221 218 218 211 212 222 234 287 289 269 240 230 226 222 218 226 218 222 221 221 211 219 216 225 225 235 202 210 215 227 238 249 241 239 237 240
255 245 255 251 265 261 256 261 251 257 232 240 236 220 224 218 211 205 214 213 235 280 295 299 262 233 234 231 224 223 230 223 229 209 221 229 229 211 211 220 229 241 252 237 236 237 247
240 245 243 229 229 252 238 254 257 266 241 253 241 212 230 229 221 217 204 223 213 216 216 217 221 239 253 278 256 240 237 245 239 231 238 231 212 209 217 225 235 243 249 237 234 241 243
262 233 227 259 252 233 231 245 232 232 222 224 221 246 228 236 216 210 224 214 187 191 206 215 221 242 248 277 268 255 251 248 239 245 232 229 208 216 225 231 237 249 244 230 233 237 242
243 250 356 495 500 512 436 288 250 245 241 234 226 220 243 217 226 221 230 222 225 198 212 205 220 250 263 268 260 261 260 253 251 241 229 220 175 232 240 240 252 193 238 229 232 233 238
256 502 477 541 579 570 503 528 484 266 248 246 245 234 228 220 218 226 219 214 167 213 213 216 236 262 273 263 258 248 249 249 242 240 230 236 245 249 160 263 250 180 229 231 238 244 266
447 464 534 596 550 541 474 506 486 467 266 255 248 242 235 230 232 227 233 199 225 218 233 224 257 286 278 259 248 248 241 241 228 240 264 268 278 279 284 345 360 278 243 265 265 272 273
467 482 647 557 531 458 480 494 547 612 382 357 300 271 240 234 233 239 238 233 226 223 248 242 293 269 248 239 239 239 229 245 260 284 395 383 375 362 360 359 327 338 342 347 193 343 333
458 505 610 481 510 470 464 488 566 429 359 335 340 307 285 246 243 152 240 232 235 248 242 282 270 242 235 229 223 251 251 438 419 393 393 382 373 361 372 379 352 343 323 332 341 339 339
457 517 526 431 437 497 477 533 431 428 347 333 307 343 324 279 259 251 245 239 246 263 273 255 238 231 215 235 208 365 391 398 377 366 175 340 123 332 348 351 371 387 352 330 347 343 350
458 508 488 489 497 512 432 442 464 380 318 333 299 312 290 327 288 280 270 265 267 274 245 237 228 211 243 212 347 352 352 348 348 330 314 323 332 348 345 346 382 382 380 405 273 261 255
463 542 440 448 443 478 407 359 335 325 314 293 306 301 300 339 323 314 297 283 279 244 235 228 208 238 199 329 251 269 313 313 312 310 325 285 275 276 275 278 270 268 259 259 249 253 223
475 470 434 430 460 370 353 346 329 318 316 299 276 275 289 397 280 285 294 287 241 234 226 207 232 214 302 258 261 200 258 254 264 258 257 258 258 257 256 254 255 246 246 246 244 243 241
485 451 468 403 363 347 339 331 317 316 306 341 291 298 214 277 291 294 287 239 234 226 211 231 227 214 233 215 178 220 238 251 228 242 239 241 194 238 245 258 252 236 242 238 249 233 251
497 452 617 382 377 349 349 332 328 317 293 285 303 287 301 307 303 290 237 234 223 216 224 236 206 244 245 189 227 167 241 249 233 239 231 241 232 228 96 131 232 231 89 234 242 103 257
514 465 371 368 350 355 340 339 317 277 300 285 275 292 316 286 281 230 237 224 209 211 234 215 206 246 250 241 187 251 190 211 243 197 222 238 158 218 234 140 132 127 234 231 246 204 265
524 417 373 372 347 323 322 299 300 293 281 297 299 306 284 289 240 223 229 222 217 230 231 209 214 230 243 244 193 213 238 164 186 187 215 184 158 150 230 233 229 235 173 199 164 248 108
529 400 372 354 347 320 307 292 291 274 309 304 299 285 286 240 241 229 221 211 197 237 222 206 217 221 244 227 247 192 188 198 261 236 136 222 213 164 229 239 234 174 228 206 239 253 253
529 418 391 355 348 308 291 296 290 284 230 306 290 293 251 241 223 226 215 216 238 231 218 217 218 214 225 218 251 242 236 231 229 262 196 234 220 248 239 252 206 248 246 248 204 263 143
550 563 389 351 346 325 295 300 300 293 290 310 297 253 242 237 227 217 209 201 235 230 218 212 209 211 217 218 216 235 233 232 236 221 253 229 230 208 206 249 215 206 222 250 237 236 267
616 626 399 362 345 322 303 290 305 297 330 295 273 243 242 235 227 214 211 233 231 230 228 208 212 204 209 207 210 212 192 204 198 207 210 208 224 217 225 231 191 228 215 209 266 235 194
631 631 393 373 354 320 308 298 301 322 291 304 251 241 239 231 220 206 198 233 226 227 230 212 214 208 207 209 209 207 206 204 206 205 195 207 240 253 247 223 233 224 224 225 213 198 181

GFSGBSN_2pvu_pres_009.txt.gz
Presure
312 174 310 303 307 297 334 244 305 286 278 254 248 244 229 236 321 297 277 257 241 230 219 214 214 208 183 191 192 206 179 185 211 183 185 229 214 212 196 206 221 205 197 189 215 217 235
227 346 349 339 353 344 323 303 293 264 270 250 241 239 237 315 304 283 263 245 241 231 223 211 216 210 197 200 191 177 200 214 204 202 216 210 217 218 230 201 233 222 194 203 218 217 117
345 339 337 335 339 323 313 297 281 255 263 247 237 233 232 303 289 269 256 242 232 232 217 217 216 216 198 198 195 199 204 204 216 202 209 209 218 214 221 202 236 240 190 184 206 215 233
320 323 330 335 329 315 311 295 285 259 261 248 238 232 232 295 281 265 254 240 229 146 127 216 215 218 212 204 197 193 196 207 179 210 209 209 223 231 214 215 215 229 222 196 201 214 228
299 303 283 291 326 251 302 296 279 268 263 248 240 231 226 292 281 264 254 241 235 231 229 217 212 211 208 212 202 198 203 207 213 213 210 214 232 235 213 236 197 223 208 227 213 207 203
287 284 288 279 276 270 267 318 285 267 264 249 247 235 226 220 291 273 253 249 243 224 232 225 218 210 190 207 203 208 200 207 209 213 213 223 218 226 218 229 176 182 195 236 213 217 204
286 281 276 244 240 246 239 261 333 289 267 244 246 242 232 226 224 284 246 246 246 237 144 147 215 212 218 212 216 214 218 210 211 219 218 228 233 217 222 231 226 207 225 231 233 222 206
279 263 262 260 249 255 249 250 224 255 288 270 259 244 239 228 221 219 261 263 246 237 237 218 225 227 221 225 217 200 212 228 226 215 225 226 226 224 230 224 227 228 189 222 232 221 199
279 271 265 235 229 233 250 242 230 243 243 254 274 257 241 235 216 214 214 254 265 258 245 239 234 229 232 232 226 229 228 222 213 221 211 218 221 223 229 227 222 226 234 230 230 216 217
296 296 268 240 235 228 228 244 232 237 226 239 257 272 260 240 236 214 215 215 218 224 272 260 258 250 242 243 247 234 232 233 230 233 236 241 227 230 231 225 233 227 225 225 231 223 218
292 272 258 261 263 524 511 445 405 246 245 231 224 230 243 243 256 233 225 219 156 204 206 200 207 209 211 222 226 271 270 249 233 240 254 265 274 255 247 239 246 252 246 242 231 216 223
284 292 265 504 489 481 521 518 484 477 273 250 237 245 249 245 237 218 240 227 217 219 211 208 200 202 214 209 207 209 220 219 229 259 269 290 277 265 262 256 259 251 243 246 234 224 238
286 283 490 475 527 628 547 542 554 491 509 278 255 237 229 245 229 242 221 221 215 220 205 206 212 209 208 208 210 218 219 225 257 285 283 279 273 270 268 266 263 255 253 240 233 229 244
291 329 466 467 618 551 508 503 518 537 471 448 275 254 241 229 231 215 229 236 218 221 214 220 207 223 209 208 209 225 221 289 293 289 274 268 260 260 112 262 261 257 244 94 119 246 231
283 474 453 589 577 435 484 480 508 483 474 472 427 267 247 240 230 221 210 206 218 213 219 215 209 201 216 220 237 233 281 272 270 255 253 250 250 246 246 247 247 248 248 245 235 117 244
285 462 462 600 437 433 478 488 462 489 510 383 357 337 262 256 235 234 229 222 215 215 207 200 220 215 230 237 237 272 261 249 242 260 351 446 429 402 396 204 313 367 358 361 379 376 363
288 453 483 559 466 429 437 463 466 485 439 377 336 343 321 275 260 242 229 225 225 225 219 223 221 224 232 263 265 246 233 250 331 365 341 346 345 362 366 360 365 372 331 303 180 363 364
295 450 509 562 439 448 450 465 486 517 408 373 318 330 313 272 273 245 220 221 231 229 220 220 220 231 264 259 236 226 208 318 306 317 307 313 313 317 329 341 350 354 369 354 355 331 360
381 445 540 453 442 499 510 481 476 398 345 325 324 316 306 311 318 278 245 248 238 235 234 209 240 260 245 227 270 225 305 289 301 298 289 285 303 294 302 320 367 362 170 390 364 348 322
370 441 551 464 448 489 437 480 429 340 327 350 318 306 297 311 314 295 315 285 255 244 225 242 257 241 228 313 307 247 165 210 264 263 262 265 259 263 260 259 263 362 281 379 360 321 295
353 451 528 609 454 409 419 422 340 341 315 312 339 341 320 320 298 308 305 348 269 256 252 255 241 245 287 274 242 188 191 248 253 249 247 241 222 245 249 248 251 256 267 270 263 257 262
350 541 481 466 390 391 433 408 335 332 296 289 317 321 301 302 260 160 326 305 282 273 250 236 224 236 222 226 227 208 214 244 219 129 238 231 234 117 245 236 247 245 258 246 260 247 243
361 558 487 380 370 356 352 328 315 311 317 311 299 297 290 300 343 314 295 296 274 250 233 155 224 237 234 261 204 218 200 240 213 232 231 237 234 238 187 91 253 235 248 127 244 244 247
395 573 452 370 344 353 328 293 325 279 274 285 294 271 288 313 287 287 281 259 247 234 234 215 228 246 243 238 239 187 218 238 185 226 228 193 230 225 176 235 234 176 237 207 233 235 238
580 562 403 397 344 353 316 313 320 316 307 295 260 285 295 292 292 280 254 244 233 231 221 233 215 236 247 241 237 238 179 235 218 195 231 196 184 165 115 209 237 194 248 251 157 255 239
633 560 422 402 383 343 310 307 287 297 284 306 298 301 295 283 273 252 243 234 233 221 235 220 214 222 250 210 245 234 233 214 167 225 226 175 203 221 148 178 227 200 189 229 229 219 257
403 566 551 389 357 332 314 313 305 288 297 275 292 306 285 275 250 243 235 233 222 223 240 216 216 219 217 241 229 199 213 234 251 258 189 136 185 239 184 183 211 212 243 224 230 250 257
377 605 650 406 346 319 296 318 283 297 297 296 298 283 277 255 243 237 233 224 222 218 234 213 224 220 224 219 251 235 231 210 194 248 188 240 222 211 244 221 195 232 244 205 183 222 234
358 587 647 415 326 311 309 311 321 287 320 309 300 290 258 246 243 238 227 227 195 238 232 216 209 217 211 216 215 215 213 216 244 214 187 195 217 242 237 190 220 174 214 200 210 188 229

GFSGBSN_2pvu_pres_012.txt.gz
Presure
202 354 358 367 343 336 330 304 308 290 294 282 258 300 302 263 241 269 264 252 233 208 211 209 201 203 199 201 207 215 217 193 207 203 212 179 195 195 199 202 208 181 189 215 216 193 206
336 335 324 314 307 326 359 355 346 338 353 331 320 307 287 276 271 257 257 251 239 208 216 206 214 214 205 198 213 207 206 213 193 203 196 205 214 199 222 206 171 196 180 207 218 210 225
326 316 297 295 296 295 287 301 334 323 321 316 302 291 275 277 258 251 245 240 239 214 215 217 213 214 216 216 215 213 208 217 204 191 203 204 207 205 212 213 201 211 199 226 234 213 213
310 280 299 296 268 280 284 283 267 326 309 263 295 279 273 261 248 238 232 235 224 223 221 222 233 236 231 228 223 221 218 218 207 202 200 202 203 207 204 170 212 220 219 215 228 228 216
297 301 302 283 260 265 275 267 272 270 325 301 288 279 259 242 242 231 229 230 309 300 294 277 261 215 240 126 180 182 216 214 215 206 200 205 204 185 197 211 187 220 221 223 217 223 204
287 293 292 291 282 278 264 260 246 255 255 312 276 263 264 250 242 234 230 230 298 290 279 264 251 244 235 232 223 221 215 218 210 221 201 209 202 204 204 213 201 226 220 221 239 214 235
309 303 287 257 245 264 266 246 252 250 247 246 308 267 264 255 235 240 230 231 287 279 263 253 246 233 235 216 223 218 216 201 216 220 215 208 208 211 215 220 222 212 220 233 219 225 227
298 302 284 253 263 254 245 252 252 234 249 239 247 244 261 268 250 239 233 229 221 272 260 250 239 235 229 224 227 217 221 211 213 214 214 217 210 211 214 210 213 216 228 224 237 237 227
319 162 287 274 252 261 309 343 246 243 243 240 237 238 232 270 240 243 234 229 224 264 264 244 241 238 234 233 223 227 153 214 214 174 223 222 213 214 216 222 183 226 224 233 229 234 232
313 296 293 273 264 492 500 494 495 501 357 240 239 242 232 244 271 235 237 230 227 214 278 261 250 239 238 239 230 240 236 219 228 229 227 228 223 228 235 243 237 227 220 226 234 232 229
299 305 295 276 507 475 482 492 511 492 482 342 275 239 234 242 261 261 235 240 228 218 214 271 259 243 234 233 234 234 233 231 232 237 237 235 238 245 238 235 240 239 236 238 238 238 244
310 296 294 279 471 485 538 559 552 566 518 500 295 261 235 230 241 258 260 241 232 227 221 204 191 245 242 256 249 242 240 239 234 234 234 280 271 209 222 253 257 236 239 250 256 267 274
297 303 298 285 457 527 578 494 521 499 509 477 486 287 258 233 231 241 265 258 225 238 216 211 210 212 205 207 206 196 202 213 209 211 213 216 218 222 222 226 237 261 276 287 303 289 291
303 303 293 357 463 588 451 451 461 468 501 475 471 367 282 249 236 236 244 265 268 230 229 212 209 211 210 211 211 216 210 207 213 218 225 223 219 228 247 301 311 315 307 301 292 275 281
301 303 292 426 471 570 443 439 478 471 528 462 466 359 329 258 241 231 242 244 248 210 217 223 222 210 213 153 206 205 207 217 224 223 219 236 297 295 266 95 255 260 256 259 280 287 294
305 301 290 460 478 489 428 440 491 465 504 441 484 350 364 280 248 233 240 235 236 231 216 215 215 217 218 210 213 211 211 211 213 233 283 266 252 331 358 377 393 410 407 301 275 262 264
306 299 288 502 529 439 430 435 471 473 484 447 363 340 336 289 264 244 228 235 226 225 233 226 223 210 210 211 211 213 225 225 246 265 241 318 332 317 317 317 324 325 283 156 173 356 336
307 298 289 508 458 452 435 475 458 486 469 444 346 331 330 327 281 261 219 224 235 218 217 219 221 212 215 208 207 225 223 278 279 323 334 315 319 313 313 315 314 319 330 342 338 373 370
300 296 292 530 455 456 491 474 469 444 422 351 350 320 323 328 322 262 235 230 229 227 217 210 214 214 211 211 216 224 260 255 247 254 254 259 270 274 305 315 310 318 359 358 349 374 412
299 293 294 587 459 534 461 496 466 446 411 347 337 330 335 332 313 303 249 234 229 226 219 222 218 216 215 217 223 253 252 276 217 256 209 249 249 255 258 300 351 353 354 395 377 334 328
296 291 294 535 501 480 497 464 432 358 353 324 320 305 296 295 300 328 335 245 228 221 223 227 221 219 217 224 267 235 260 243 201 244 247 236 234 249 250 242 263 290 327 231 316 309 305
294 285 416 627 451 430 446 434 434 352 331 329 304 298 312 301 301 308 313 321 258 237 231 222 220 228 202 247 232 259 187 215 217 239 241 242 235 245 242 246 241 255 259 256 263 277 280
293 282 597 401 402 455 435 367 349 337 325 307 305 303 305 309 302 307 162 159 306 245 246 238 234 216 264 270 239 218 234 240 238 240 230 227 247 222 201 232 244 236 259 265 249 259 164
291 281 621 393 383 456 428 345 334 345 317 297 288 301 291 292 292 297 283 328 301 299 295 238 244 236 255 219 242 218 250 221 241 241 230 235 238 232 232 190 233 238 231 245 238 253 261
289 280 420 401 370 365 350 350 328 331 320 301 299 289 279 299 289 293 299 302 300 286 245 256 255 249 224 239 243 191 234 238 204 180 240 227 235 216 250 198 98 219 239 233 231 115 231
287 276 306 440 358 351 369 338 317 302 298 296 298 290 292 310 318 327 292 288 289 276 268 255 232 250 239 242 223 232 210 253 183 235 217 230 230 146 157 162 241 218 240 243 238 234 237
287 276 304 667 374 355 366 314 302 311 290 298 286 283 245 279 282 282 275 277 274 263 250 230 257 227 243 237 224 237 217 182 214 167 205 173 190 219 201 157 187 213 232 235 245 245 246
285 274 307 675 447 359 349 313 312 302 302 296 277 299 288 285 276 272 278 261 253 242 229 175 227 227 249 245 239 239 180 191 233 172 213 217 222 163 125 194 213 213 211 201 197 209 237
286 274 325 668 640 378 346 334 303 308 310 307 295 238 295 279 272 270 263 252 243 228 213 232 222 217 249 239 247 245 211 197 228 228 186 215 210 235 236 224 206 215 205 168 234 229 233

GFSGBSN_2pvu_pres_018.txt.gz
Presure
285 145 323 294 345 110 307 299 293 284 278 292 299 354 299 287 279 284 269 280 263 252 241 246 243 255 213 239 230 219 213 206 222 217 217 215 217 222 217 225 214 214 221 220 212 215 221
295 248 344 336 285 252 317 291 302 285 282 274 281 277 293 353 283 268 247 266 256 250 240 244 242 230 251 258 237 221 218 217 202 207 216 215 219 211 203 214 223 208 215 216 216 220 216
144 278 128 281 338 311 304 311 300 269 274 274 279 265 273 273 306 269 261 274 259 252 263 247 242 251 234 245 251 219 223 213 217 203 206 217 211 217 214 211 216 212 208 207 214 207 213
148 268 202 288 317 329 292 296 298 286 269 265 262 267 261 271 273 289 362 266 271 265 257 241 251 247 258 265 231 250 226 228 212 217 203 210 213 208 210 213 209 199 218 210 207 215 206
140 274 238 281 325 303 308 293 287 285 266 250 254 253 259 262 267 269 287 339 303 272 267 264 253 268 242 267 296 261 222 215 220 211 202 218 203 214 205 195 184 204 215 220 208 209 209
151 330 250 290 338 285 154 284 285 275 256 258 263 270 253 250 253 272 261 296 324 328 279 270 270 268 270 297 275 262 229 226 222 214 200 205 207 208 212 217 197 202 204 213 220 208 208
262 344 254 297 331 299 303 304 282 282 318 500 509 501 296 250 250 265 262 273 318 315 309 293 292 293 283 279 271 253 229 232 227 215 209 204 207 206 207 205 206 201 201 211 213 222 206
229 312 254 293 334 324 310 306 297 517 491 489 480 476 474 312 254 251 271 268 295 293 282 279 277 270 271 273 256 250 243 229 225 217 203 202 206 207 204 206 211 208 207 211 219 219 226
255 308 257 333 328 312 321 298 505 490 502 575 526 530 481 488 302 254 269 254 290 285 274 271 266 265 262 263 268 252 239 228 226 224 208 204 150 210 207 210 206 209 217 222 230 227 228
263 160 276 329 331 324 311 497 500 559 517 452 551 556 485 475 470 262 259 246 281 283 266 261 265 255 244 242 248 244 235 233 223 218 210 210 210 210 211 212 217 225 230 233 233 229 96
265 170 283 297 337 324 303 529 572 457 435 444 469 507 479 466 493 263 259 241 278 282 264 265 257 237 233 229 223 220 219 214 211 218 216 213 215 216 218 225 233 239 235 231 230 227 228
263 246 295 332 332 320 426 456 458 435 475 428 459 484 480 461 368 264 249 249 273 291 262 262 242 237 220 231 224 213 238 254 278 245 230 230 231 231 233 242 242 231 235 227 227 232 238
265 262 313 336 330 320 401 559 456 445 454 465 450 469 476 466 341 263 251 246 274 295 264 252 238 236 229 216 237 279 278 269 269 268 264 266 261 256 249 243 240 235 230 236 239 243 246
265 257 281 343 335 317 415 505 444 465 435 432 432 468 500 475 337 263 250 251 271 292 254 237 231 232 224 215 283 273 267 263 259 259 261 261 250 239 237 238 239 235 235 243 227 239 240
303 257 292 316 334 313 413 463 503 474 452 425 448 484 460 394 340 262 249 235 271 284 256 241 229 225 222 225 276 268 256 254 252 246 238 231 229 230 230 221 213 219 223 232 225 241 240
304 265 299 321 335 313 409 491 517 466 473 438 439 506 513 359 337 263 252 215 256 276 256 233 231 228 220 212 248 249 263 256 245 231 218 211 210 209 211 219 221 221 227 232 274 337 335
301 279 292 331 334 312 404 458 480 459 445 432 453 495 507 338 325 258 240 234 233 275 253 233 225 227 224 216 213 211 216 215 217 211 210 212 213 216 218 213 162 232 307 328 352 347 335
303 286 295 327 336 314 399 480 465 432 427 423 474 464 398 335 334 256 239 239 229 274 254 231 228 229 224 220 216 215 217 212 214 212 213 219 218 202 217 246 293 285 269 318 316 115 339
120 267 296 333 328 313 399 490 459 436 434 439 451 469 348 399 338 276 242 238 228 257 255 238 236 224 223 223 218 214 216 218 217 213 219 198 214 234 266 275 297 271 277 268 255 345 131
196 261 314 326 325 308 421 479 461 428 419 435 474 445 342 362 315 278 240 237 223 223 252 252 237 228 216 221 224 223 222 216 217 214 202 219 239 261 239 241 264 255 272 257 284 301 323
157 258 314 339 323 309 432 467 401 391 393 416 419 375 335 220 312 271 240 239 233 224 233 251 249 235 227 226 215 215 215 219 215 217 220 249 235 243 248 237 247 238 261 266 281 281 295
257 275 328 330 320 313 471 437 381 358 386 411 422 377 356 335 305 286 236 230 238 209 231 231 241 256 252 242 218 233 217 215 216 221 249 246 225 246 233 227 80 228 244 250 267 280 281
258 251 317 326 324 313 429 413 380 361 343 336 372 340 344 342 313 277 214 143 231 228 229 226 229 234 237 230 225 217 203 205 221 253 179 245 237 242 232 216 231 240 231 235 243 255 273
266 251 312 317 327 308 357 402 385 370 344 333 344 333 337 342 327 331 241 224 229 194 221 227 222 226 221 212 207 216 194 222 257 224 183 233 231 229 233 228 213 216 232 229 236 238 248
267 154 297 307 332 305 287 380 366 346 339 345 309 316 321 324 328 320 315 220 187 230 215 228 224 225 222 220 220 202 226 232 251 243 233 236 246 201 242 242 215 216 216 221 224 236 237
259 279 303 293 326 306 285 363 356 343 354 291 333 313 314 323 318 316 320 259 227 224 229 230 225 225 184 220 198 214 223 207 234 200 248 206 219 221 171 233 235 228 224 213 224 214 218
192 278 301 315 294 302 283 267 328 341 321 321 296 315 305 294 301 300 304 315 247 236 237 227 223 222 216 221 225 222 229 251 228 236 231 222 220 199 226 229 211 142 161 221 219 210 216
145 277 293 281 289 295 287 270 352 327 328 325 306 305 304 305 296 302 305 309 286 228 241 230 220 221 225 215 226 217 249 257 238 232 207 234 219 217 174 157 177 218 152 225 223 213 218
236 283 289 282 307 303 292 272 263 342 334 324 315 307 312 298 297 289 301 305 303 283 243 239 231 230 222 219 238 223 260 251 225 182 230 213 213 210 215 197 141 184 221 202 232 209 227

GFSGBSN_2pvu_pres_021.txt.gz
Presure
224 188 258 294 273 312 371 321 229 312 295 292 291 293 296 303 318 290 257 250 248 240 239 248 239 250 237 227 237 226 224 223 202 190 193 193 194 200 198 203 195 202 146 176 174 189 178
240 228 272 156 281 304 289 351 308 303 312 294 277 283 280 285 288 350 308 242 256 252 245 244 247 235 245 241 225 241 230 217 219 211 199 196 199 194 193 198 198 207 196 192 192 190 198
161 82 309 256 282 307 307 332 325 292 284 295 294 273 274 270 270 283 307 317 302 294 267 263 264 234 242 236 225 245 236 214 229 224 215 212 208 204 200 198 200 199 206 195 190 196 197
233 138 229 196 291 252 314 332 324 299 298 301 285 294 262 257 262 264 276 282 300 291 282 284 289 259 238 235 220 232 247 242 227 221 219 208 218 208 211 214 217 219 216 225 218 224 215
222 247 194 266 295 282 319 341 327 299 276 272 272 278 278 184 259 262 255 271 274 310 269 274 263 256 250 227 233 242 247 235 215 211 237 220 213 211 208 201 202 212 218 216 213 225 199
211 248 229 275 244 316 310 348 324 297 297 459 477 289 282 268 252 243 250 259 257 271 338 266 265 262 263 246 227 241 245 249 237 220 235 231 224 215 213 210 204 197 207 211 217 206 213
208 241 231 279 284 296 318 338 337 306 614 441 586 535 509 307 277 242 253 250 261 264 268 340 261 269 257 244 245 243 231 247 232 223 254 229 220 217 211 212 211 207 202 210 212 217 211
195 218 254 264 284 313 339 329 306 362 433 480 535 572 556 493 377 288 251 246 254 259 254 306 319 265 261 249 249 254 252 244 242 244 243 246 232 218 220 217 208 206 206 213 206 216 211
208 217 265 288 290 346 342 346 305 437 510 522 468 457 484 577 461 448 285 250 240 255 253 260 316 310 263 270 256 255 251 248 255 250 254 283 236 223 211 217 215 206 205 207 206 211 216
194 121 277 288 257 333 335 321 429 558 527 445 460 471 483 583 457 466 382 283 240 242 257 259 300 307 307 288 271 274 272 271 290 284 275 258 240 230 220 219 218 212 209 208 209 207 206
212 221 278 258 309 336 351 306 471 514 465 447 453 466 462 477 458 456 389 294 246 240 255 276 300 292 291 294 292 291 281 276 269 268 251 236 244 233 222 221 219 215 207 207 208 72 216
160 219 292 277 312 348 348 313 577 485 453 442 462 438 451 509 446 506 342 307 249 241 255 291 287 276 273 270 268 255 261 266 254 255 241 235 242 229 224 224 218 208 206 207 209 212 212
125 144 299 293 314 337 340 526 589 486 466 457 434 444 457 490 448 372 325 303 251 245 259 288 274 265 262 252 252 253 246 247 255 254 250 246 234 228 225 223 218 215 213 215 215 217 219
129 197 286 279 314 347 341 569 597 487 453 440 424 445 471 503 452 351 319 293 259 259 247 287 263 257 254 252 246 239 235 232 231 231 226 230 230 229 222 219 218 217 219 221 228 230 240
140 228 303 262 316 364 334 528 526 466 461 439 446 450 462 447 514 337 304 257 267 259 270 272 260 250 253 239 231 229 225 226 229 226 218 216 219 221 222 224 235 236 239 280 270 257 256
218 241 284 259 314 340 323 489 470 442 431 430 438 494 472 477 344 329 310 270 256 242 282 264 253 252 238 231 229 220 228 219 244 280 278 272 269 264 258 256 256 255 242 229 227 226 227
200 274 272 302 313 341 321 492 446 443 434 437 459 432 496 456 339 320 260 253 237 250 282 259 253 242 237 235 232 222 216 277 264 256 253 251 247 245 243 228 218 218 215 218 221 232 291
275 288 275 180 318 324 323 457 424 437 443 458 438 453 470 344 326 315 251 227 246 266 268 253 244 234 230 228 223 247 272 263 252 250 244 231 224 216 214 216 215 215 217 286 303 292 315
282 279 294 307 327 327 320 444 392 409 421 459 468 545 419 332 321 154 260 223 238 278 266 250 244 230 226 218 216 213 213 215 221 218 216 217 215 218 217 212 221 241 271 271 288 280 269
282 283 292 317 323 316 325 444 391 420 417 481 494 438 356 331 255 272 247 226 221 281 258 252 237 230 221 217 216 214 215 213 215 214 216 220 213 211 212 247 254 238 235 245 253 259 250
171 278 305 336 331 320 330 414 389 414 426 498 395 391 329 313 247 256 232 243 218 273 257 249 238 228 222 222 221 219 216 214 219 223 220 207 215 206 256 238 237 222 236 232 246 260 257
304 269 297 346 295 304 316 397 391 409 441 425 388 334 320 312 299 250 242 237 229 225 259 246 234 232 227 224 223 223 224 223 212 220 216 215 253 242 247 238 246 238 233 235 238 244 255
280 272 279 314 287 302 336 302 384 380 432 423 352 318 332 357 293 212 229 208 232 224 248 250 239 235 231 227 222 217 224 211 211 212 219 240 229 227 237 221 235 225 226 227 231 235 238
277 274 283 215 285 294 319 311 286 370 388 373 329 347 350 346 296 250 243 188 221 185 214 254 254 245 224 230 230 224 217 220 219 216 230 210 204 199 234 226 211 220 226 228 221 237 241
281 281 280 280 177 300 322 316 293 325 329 301 365 344 338 337 321 253 242 236 220 232 220 221 244 248 243 242 247 247 218 214 208 229 245 238 235 184 250 220 214 217 205 207 225 209 232
283 278 278 270 270 281 300 320 305 269 332 347 328 337 317 347 317 280 236 253 200 238 234 221 221 233 236 245 217 212 213 202 226 253 229 225 231 242 236 222 216 217 198 210 219 216 227
287 279 270 233 275 319 295 316 296 292 273 325 335 325 329 328 312 325 278 248 233 241 216 230 215 219 225 219 219 221 211 219 230 208 263 213 187 170 241 240 184 213 211 228 216 203 215
274 290 289 280 275 286 302 304 311 292 267 279 338 332 314 324 317 282 319 252 244 220 240 221 224 221 235 227 228 200 210 222 210 240 215 186 234 197 192 220 206 219 215 156 222 209 209
272 270 278 277 271 275 290 298 286 296 282 264 300 345 325 308 303 304 303 305 257 247 218 228 229 232 225 227 218 214 224 216 251 192 235 215 201 214 218 201 184 150 228 223 210 230 212

GFSGBSN_2pvu_pres_024.txt.gz
Presure
141 114 127 134 252 239 276 257 288 338 310 353 323 295 296 283 302 301 337 299 274 244 245 251 246 235 247 259 223 238 235 205 204 205 199 206 202 206 183 193 183 190 181 179 178 180 185
139 131 131 144 226 280 293 279 287 316 327 345 326 320 293 285 284 294 297 317 287 257 242 250 231 246 247 247 242 228 236 230 220 203 205 201 197 199 204 190 187 187 178 183 185 179 176
126 133 165 133 231 275 271 276 308 341 300 330 310 315 307 303 281 281 287 296 311 290 260 241 251 241 239 255 244 226 245 235 237 219 206 208 199 201 199 192 200 198 194 200 193 180 183
131 131 209 127 134 250 292 268 174 338 364 343 302 279 274 275 302 284 271 285 284 298 258 265 259 241 238 232 251 251 238 239 241 226 244 232 204 199 200 199 191 199 196 196 201 201 205
119 147 143 115 134 211 247 285 341 347 356 314 419 584 431 291 288 287 286 276 271 276 289 343 254 252 242 248 236 227 247 231 237 227 223 228 237 217 196 194 194 196 191 196 195 200 205
156 139 124 145 235 129 294 306 323 354 321 491 458 444 431 436 405 274 283 268 263 267 267 290 326 294 248 246 231 229 231 239 236 228 228 221 237 225 214 218 204 200 197 198 198 197 202
97 140 154 140 153 144 295 330 352 323 464 543 501 530 470 471 512 402 293 271 263 256 264 269 298 316 280 246 248 238 228 234 236 229 237 238 218 230 216 228 219 214 207 205 205 208 211
122 192 143 145 242 286 300 339 353 342 564 529 535 538 449 490 547 505 386 277 265 253 258 259 266 298 284 278 270 248 245 232 230 234 226 225 226 243 231 223 223 211 215 220 215 220 224
129 93 153 197 131 344 337 347 339 568 557 534 439 452 480 437 510 496 492 286 266 252 247 255 258 263 299 285 267 268 288 260 232 232 221 229 226 244 238 240 220 216 230 229 221 217 212
182 177 190 144 309 336 354 355 333 547 545 459 455 454 449 454 442 472 471 323 270 259 245 242 256 257 264 302 269 263 262 268 265 232 226 225 233 236 245 236 230 221 225 228 219 227 224
135 107 199 175 289 350 352 356 373 590 491 457 444 438 444 425 474 458 461 433 270 258 243 249 250 254 256 266 330 266 253 259 257 242 235 231 232 226 233 239 223 231 245 231 236 222 220
141 181 170 132 300 338 368 354 608 562 476 457 439 441 429 452 469 459 449 395 286 250 246 245 243 252 253 251 317 289 269 258 248 257 250 240 231 239 247 242 249 253 247 245 236 237 223
127 190 233 242 297 325 367 351 470 486 461 444 417 425 437 466 485 442 448 371 312 265 248 234 238 248 257 285 296 300 275 259 262 252 252 256 254 244 251 257 283 276 263 247 251 246 229
208 214 234 254 286 322 360 332 408 447 433 433 432 433 452 491 430 458 359 360 341 287 249 239 234 250 246 294 289 289 296 299 254 256 266 274 286 280 274 265 252 246 241 237 237 236 230
218 221 188 293 285 328 358 329 411 427 449 452 472 452 454 467 448 359 338 324 312 325 243 238 234 249 297 283 277 272 273 273 266 266 268 265 252 254 251 244 234 234 238 239 239 239 235
202 228 194 210 291 327 342 330 432 420 436 444 454 449 437 454 345 345 322 326 317 292 248 226 240 249 274 267 259 254 252 252 249 242 244 245 249 249 247 247 244 240 235 229 226 220 219
219 233 202 307 284 328 364 328 420 425 440 458 442 441 484 385 334 327 323 320 302 260 239 236 237 276 262 254 249 246 242 236 232 231 231 230 227 228 228 218 215 216 223 246 248 253 250
220 238 285 287 285 331 363 324 400 425 466 503 459 433 365 342 330 313 318 288 256 241 244 235 274 258 247 248 244 236 230 232 227 229 229 224 224 273 265 258 251 241 238 232 229 227 313
236 238 296 291 244 348 340 324 399 448 470 531 533 372 356 334 324 319 280 255 240 237 244 279 259 252 245 239 232 231 229 229 224 231 267 261 259 247 239 230 224 219 218 266 265 265 254
117 273 241 276 274 349 337 329 423 467 473 499 496 368 357 335 332 276 253 252 247 241 285 263 249 244 238 233 234 234 226 279 268 258 251 240 229 220 214 214 216 243 258 249 254 244 245
204 288 219 273 265 330 333 334 303 457 486 511 374 360 330 340 267 250 262 243 246 276 273 253 248 237 232 229 225 222 218 220 210 214 213 214 213 215 218 217 236 245 236 236 230 237 236
251 283 301 273 261 305 135 349 314 359 427 425 374 359 326 272 256 259 229 218 254 281 257 247 239 233 228 223 223 216 214 210 211 214 216 219 226 216 214 241 237 237 227 228 226 238 239
307 255 173 266 263 290 293 320 334 287 399 355 331 317 293 261 247 207 231 206 218 270 256 247 242 232 226 224 225 220 220 219 215 219 217 217 215 240 232 207 226 233 217 219 224 220 240
302 253 276 270 271 275 291 283 317 330 280 386 343 315 317 308 240 248 224 234 232 220 255 249 240 229 227 228 225 225 225 224 226 213 215 240 238 223 241 230 227 224 202 218 213 222 227
259 253 264 287 274 279 275 283 324 301 327 276 381 361 326 326 254 241 240 231 235 232 237 248 242 232 230 228 228 225 217 214 222 225 209 220 219 236 178 232 216 210 206 221 222 224 224
310 288 290 291 270 278 267 279 281 294 287 309 276 365 377 364 364 256 164 246 228 208 232 246 192 236 232 235 228 231 230 226 210 201 230 224 248 242 236 166 218 218 219 207 218 211 223
266 302 279 270 281 261 266 268 279 307 270 268 297 273 359 357 366 327 252 240 244 238 214 235 219 246 244 241 244 241 233 242 206 225 222 232 207 239 234 201 204 225 210 224 219 213 221
302 288 269 269 295 283 263 264 271 279 300 292 311 284 268 354 354 346 279 251 245 242 238 232 229 220 241 247 239 246 212 212 215 231 221 232 223 171 174 202 233 150 188 221 218 215 213
287 279 299 272 283 294 276 268 267 268 308 276 290 314 273 266 346 341 336 267 258 246 245 233 235 219 231 205 227 227 228 221 215 212 203 233 211 210 221 191 223 220 211 226 203 211 223

GFSGBSN_2pvu_pres_027.txt.gz
Presure
113 112 131 106 169 175 216 119 301 293 270 337 318 331 344 340 348 311 296 306 336 317 294 266 256 251 246 247 253 216 204 224 199 188 210 221 216 202 196 183 180 172 175 175 187 184 188
125 178 165 136 97 242 182 143 297 309 320 332 326 356 231 351 345 326 306 304 299 332 310 280 258 252 249 256 246 252 223 225 197 220 179 217 219 212 212 204 199 179 189 185 174 178 179
138 222 118 191 100 234 276 131 309 318 355 352 346 321 316 284 299 326 316 296 299 288 322 312 268 261 240 248 239 247 246 225 224 203 228 218 171 211 214 208 204 203 198 186 197 186 192
152 142 196 131 130 179 252 241 318 348 348 351 457 469 506 459 375 309 324 302 296 291 295 325 301 261 251 245 235 229 252 251 227 213 239 213 204 210 208 176 203 203 204 201 197 198 188
211 226 124 132 187 201 267 304 313 378 350 493 490 510 514 512 457 367 309 297 293 296 288 292 330 283 264 240 231 234 242 242 245 234 226 242 234 201 207 207 202 200 204 204 195 189 196
119 127 131 198 234 172 317 311 323 310 501 558 545 532 519 519 505 524 336 294 288 288 285 284 294 310 275 256 235 236 237 238 232 238 243 225 236 226 197 193 197 205 204 197 199 199 196
110 111 204 165 165 264 204 320 350 344 566 547 533 520 486 496 503 501 430 309 273 286 286 275 280 296 305 258 247 236 232 236 231 243 235 238 256 222 232 214 205 197 202 201 203 203 206
119 198 173 194 250 259 310 316 388 423 558 549 477 454 448 433 439 505 456 358 285 276 283 284 272 279 292 318 258 252 237 234 227 233 242 245 234 234 244 229 235 215 203 201 205 205 203
140 139 201 171 251 258 308 319 373 559 584 494 475 436 465 442 443 454 460 406 300 279 272 273 270 267 270 289 318 258 246 241 234 238 225 238 244 250 236 234 225 226 241 233 226 205 206
112 199 224 237 128 275 325 313 349 449 471 475 460 457 434 429 429 476 523 403 399 276 263 272 267 259 267 274 335 291 253 254 249 240 231 238 226 232 234 241 233 227 218 219 239 244 231
222 194 219 237 243 273 323 379 346 423 444 443 436 433 438 412 424 485 472 471 418 274 272 265 261 261 260 264 279 323 285 282 241 242 227 226 226 227 229 228 228 238 238 236 235 254 237
219 204 217 240 245 272 346 371 416 414 439 461 447 438 441 438 470 480 450 432 389 269 262 268 260 257 251 259 263 266 300 279 272 279 248 237 234 225 228 234 228 226 227 229 229 251 245
158 190 218 240 269 309 342 364 420 419 433 449 496 462 462 472 488 412 375 420 357 276 268 253 254 239 253 249 254 261 293 283 261 264 272 243 234 245 230 228 232 232 230 234 240 244 252
118 179 135 238 268 305 344 362 428 437 452 450 457 443 486 498 472 389 383 364 342 277 259 249 253 240 239 256 254 255 263 322 278 259 256 259 264 270 239 243 231 238 233 238 243 246 248
142 211 180 234 267 302 288 369 452 456 480 452 466 472 466 456 394 359 357 339 331 270 261 250 241 241 250 247 257 252 265 307 297 260 259 254 256 259 242 253 241 240 243 247 244 258 296
161 173 218 229 280 291 281 376 477 463 519 465 475 487 467 373 352 339 325 335 327 269 253 242 245 232 230 246 245 292 296 293 290 275 262 262 255 252 256 261 262 259 260 283 274 253 242
196 203 218 229 282 287 280 358 471 540 530 501 478 398 372 352 334 339 324 326 327 258 247 245 239 231 236 247 294 285 281 285 290 291 291 247 254 262 277 284 276 262 251 247 240 236 237
114 202 217 226 282 283 277 281 502 558 539 589 413 357 332 345 319 336 327 332 321 253 247 241 231 233 231 291 279 278 270 267 262 259 260 259 258 258 248 242 236 232 231 227 221 219 223
189 197 217 250 278 287 279 322 350 428 398 387 359 367 344 303 351 359 349 336 309 267 251 236 234 242 278 263 255 247 246 242 241 236 234 232 233 229 229 225 221 223 223 242 240 236 240
191 192 219 257 274 301 288 292 349 384 362 358 375 361 341 343 324 298 295 284 272 247 235 237 257 264 254 246 240 238 235 233 231 228 226 222 216 239 253 249 243 233 235 231 233 259 246
192 194 232 286 271 288 312 289 305 322 352 378 359 356 311 293 284 281 276 254 251 249 240 283 259 246 243 237 236 233 230 230 225 221 260 257 251 243 240 232 226 223 218 246 217 237 236
189 213 262 267 294 292 278 297 303 323 299 336 328 354 267 255 269 235 241 234 243 272 279 251 249 243 240 236 234 236 230 280 273 260 247 238 231 223 218 208 232 234 236 237 236 229 221
187 235 274 287 304 285 287 267 283 291 338 370 349 290 280 256 261 232 236 243 266 276 190 246 240 239 235 232 232 227 221 218 213 208 208 210 208 218 225 225 240 237 220 227 222 225 221
234 257 290 283 302 267 273 299 288 290 289 329 369 360 295 255 249 249 233 237 258 260 250 246 240 236 231 228 224 222 216 212 210 211 210 220 228 220 242 244 237 218 222 228 204 218 211
246 272 282 281 277 257 285 273 290 194 294 318 335 311 397 298 253 252 241 240 245 265 252 244 240 236 232 225 217 222 217 217 215 215 223 223 214 243 244 235 221 221 217 220 205 217 209
270 301 267 279 245 256 259 274 294 292 281 309 320 315 293 393 386 255 255 239 241 223 258 249 244 241 233 228 227 222 221 221 216 219 208 215 211 247 246 235 227 223 219 170 217 207 217
270 276 278 280 276 265 267 272 288 292 272 279 317 302 321 285 320 383 263 251 238 248 220 246 247 246 231 233 227 225 225 226 214 232 212 213 248 225 247 240 205 216 217 223 223 222 223
291 288 278 277 267 283 279 273 286 286 280 270 306 303 296 317 273 303 365 262 247 233 242 241 226 237 244 235 220 230 230 221 229 219 216 236 220 203 243 246 224 228 230 189 214 220 223
295 291 277 276 275 291 267 268 277 292 289 279 281 306 293 302 312 275 286 355 327 248 244 230 247 223 244 243 238 241 235 246 251 211 209 224 225 234 245 197 210 168 225 192 215 228 188

GFSGBSN_2pvu_pres_030.txt.gz
Presure
134 159 134 221 145 221 93 272 270 324 315 326 336 370 330 236 348 342 366 327 325 322 311 322 323 276 261 263 253 262 208 205 200 201 217 204 180 195 208 215 197 192 184 172 178 155 167
153 120 233 241 203 220 243 275 278 319 306 372 374 450 475 484 462 425 329 346 321 329 309 314 323 290 272 265 257 242 233 200 224 207 207 190 219 219 161 215 210 192 197 175 181 179 166
111 109 241 249 186 222 242 268 288 310 370 381 507 522 528 508 492 462 419 314 336 313 313 299 317 300 313 271 255 253 242 213 205 222 205 204 204 217 209 204 207 207 191 195 179 185 183
161 233 184 193 184 230 247 271 336 296 345 358 561 539 533 527 523 521 460 351 331 326 311 302 314 304 307 279 262 252 249 245 229 230 210 201 215 197 225 222 218 208 201 196 195 188 187
220 167 251 174 185 233 248 281 311 323 351 487 544 524 525 506 512 515 541 422 314 331 307 299 298 313 296 256 256 255 256 240 240 211 202 235 223 204 206 205 216 216 182 211 206 194 189
126 190 210 180 184 239 246 282 338 326 360 463 545 499 484 476 486 496 509 447 323 318 309 293 294 313 284 283 259 256 253 241 230 229 254 215 207 223 212 186 186 192 204 216 214 212 212
218 158 256 179 227 239 248 283 335 320 416 454 498 473 458 452 444 469 492 550 334 305 298 295 297 294 308 280 277 257 259 245 241 243 233 253 204 202 201 197 191 188 207 205 198 214 212
135 150 206 177 214 234 249 282 329 345 447 446 469 452 456 444 440 449 484 540 546 304 295 286 286 278 297 293 278 259 249 252 243 243 239 235 238 245 205 231 215 202 204 199 204 198 208
108 238 206 167 215 235 250 284 328 382 453 435 448 447 449 437 438 437 495 433 587 296 299 284 280 275 277 299 290 271 246 242 252 239 237 229 232 244 246 217 208 192 188 206 204 201 181
213 247 195 182 212 233 252 304 326 439 454 448 462 465 446 425 431 450 480 416 521 290 291 278 269 275 283 289 299 283 270 241 241 243 241 223 229 241 238 243 236 218 216 238 206 211 195
101 195 197 165 191 229 252 302 331 477 465 461 465 457 449 447 462 465 460 410 445 290 290 272 264 277 273 276 292 283 280 262 249 249 236 237 236 236 230 233 243 236 231 233 254 235 230
106 241 192 182 203 224 252 310 323 491 481 465 467 464 468 467 486 497 423 487 397 285 279 274 169 272 268 270 276 284 287 273 258 253 250 237 225 232 230 226 227 237 249 249 241 241 247
117 241 182 188 194 224 241 323 329 536 511 465 477 492 488 489 477 462 397 417 373 284 274 270 271 267 264 256 256 259 328 302 270 244 245 252 235 234 236 224 230 226 244 242 230 242 236
151 250 130 188 194 240 242 297 343 545 490 494 499 430 429 478 469 381 409 392 360 183 271 265 261 265 257 251 254 263 278 326 292 281 276 252 247 238 232 240 247 228 240 232 234 233 226
214 250 173 179 215 245 255 318 441 543 534 514 404 386 444 435 384 375 369 345 378 270 262 262 263 261 252 248 249 257 263 263 311 284 275 285 257 246 247 239 246 232 247 236 233 234 238
211 145 190 180 215 261 257 309 385 522 478 399 375 357 348 343 346 353 344 358 309 265 263 255 251 249 235 244 250 252 249 261 260 305 281 280 276 278 281 271 260 240 255 237 231 230 231
225 147 161 180 216 263 265 330 310 365 413 370 370 366 340 326 332 364 352 339 275 257 251 251 257 248 240 242 243 257 259 247 275 306 282 262 258 259 262 263 267 258 257 253 255 252 243
231 185 127 178 215 236 296 321 309 356 377 393 384 347 352 349 315 333 380 288 271 254 252 247 228 226 226 237 245 261 303 300 294 288 286 272 259 251 253 258 251 250 252 251 255 252 275
252 183 126 204 216 272 278 317 314 294 366 389 336 336 316 339 356 327 300 266 262 251 248 247 226 228 237 241 306 292 284 286 281 279 279 284 278 256 260 253 251 257 265 267 257 250 242
225 182 163 177 248 275 275 315 283 284 391 336 329 291 334 372 338 350 275 267 258 252 232 229 228 234 256 266 259 258 259 260 264 268 272 278 287 293 296 268 251 244 239 230 226 235 245
197 183 155 204 269 262 271 277 261 310 333 344 293 280 261 300 346 297 278 270 248 244 232 239 242 258 266 253 247 242 248 248 249 245 242 232 231 232 233 232 226 223 247 246 240 247 242
200 176 174 192 266 286 272 278 272 286 328 306 317 284 273 265 253 232 287 208 253 234 238 239 274 261 251 245 242 238 238 238 232 230 225 223 223 223 256 263 246 237 235 247 234 231 226
206 184 203 279 266 283 275 276 268 297 290 337 331 318 280 265 261 251 247 250 228 251 275 274 256 251 241 239 233 233 233 225 220 237 273 259 252 253 243 236 223 218 211 226 230 235 224
220 199 126 271 291 282 275 279 286 286 290 287 316 304 326 274 263 254 250 241 248 285 267 260 251 248 241 234 232 230 257 289 262 246 239 229 217 211 207 211 215 223 240 229 232 221 222
164 206 282 232 288 282 275 279 274 269 264 313 303 327 290 345 287 262 254 245 288 271 255 253 250 243 236 233 234 225 221 215 217 212 211 211 207 225 222 249 238 235 234 237 222 225 211
221 276 279 271 289 286 279 272 271 269 271 296 300 308 330 281 322 354 258 247 250 240 262 255 248 240 235 230 226 222 220 214 210 212 213 212 224 218 216 246 238 234 229 219 232 226 219
286 280 278 284 290 291 277 270 258 279 279 287 300 289 303 330 293 298 328 263 249 252 256 247 253 245 236 235 227 223 218 221 218 218 218 224 218 219 209 245 235 233 228 227 222 223 228
281 280 282 289 299 96 283 267 272 263 286 283 273 298 298 299 328 304 279 314 300 256 245 242 234 248 228 233 232 226 226 218 217 216 216 206 227 209 230 235 240 232 226 215 195 222 209
283 269 307 293 279 267 290 267 270 287 269 293 269 270 314 291 290 313 309 268 301 295 260 245 240 243 224 242 235 231 226 226 220 216 220 230 224 237 250 246 178 232 229 162 237 222 213

GFSGBSN_2pvu_pres_033.txt.gz
Presure
106 148 178 234 193 180 184 237 243 263 280 350 321 360 490 502 585 536 479 452 376 341 310 332 318 331 308 290 278 265 259 235 204 199 198 192 209 206 211 190 191 181 177 172 174 176 173
138 127 127 238 196 174 192 251 244 260 292 360 330 397 484 546 522 519 516 469 442 328 315 304 323 330 295 288 275 263 264 249 254 210 179 190 198 193 236 189 204 187 184 181 173 164 163
130 135 143 233 194 173 199 250 250 263 301 360 338 474 530 526 525 502 508 489 439 387 329 304 320 316 332 285 276 263 271 260 236 219 199 192 195 196 225 204 160 199 195 185 182 186 168
125 148 138 228 193 181 211 247 256 271 344 351 386 462 534 513 502 498 506 515 464 422 325 309 322 317 327 286 276 264 262 267 255 227 212 177 201 193 197 225 158 150 146 198 192 183 186
125 130 170 179 200 183 206 242 260 278 347 361 458 456 483 475 469 473 499 506 478 432 325 323 325 318 311 303 267 268 258 258 258 253 222 205 190 199 195 180 218 194 151 222 212 203 191
145 132 137 204 238 172 183 240 264 285 354 360 455 450 465 448 449 429 471 487 526 419 326 329 329 322 296 302 313 268 262 247 252 249 252 250 214 202 187 193 209 182 212 160 213 198 211
136 142 130 234 196 174 229 240 269 295 364 443 448 452 454 447 435 410 412 493 501 407 320 318 332 313 292 309 286 301 262 252 248 263 249 253 203 200 214 187 181 206 206 189 218 216 214
124 131 125 240 195 176 152 239 281 303 384 472 446 460 471 434 435 432 442 476 455 448 310 299 323 301 285 298 292 298 287 259 246 256 247 257 249 208 193 199 213 201 208 200 195 208 211
140 143 128 211 199 178 228 240 292 330 516 482 458 458 444 439 440 444 434 550 437 439 307 296 313 293 280 295 277 282 294 256 251 257 247 240 239 248 210 243 192 204 197 201 214 209 209
196 196 143 212 193 179 229 242 293 535 529 483 461 468 457 444 447 448 495 465 433 349 300 296 307 285 277 302 272 273 288 285 255 257 247 244 245 231 247 208 203 200 215 211 199 198 194
148 147 181 241 201 196 229 242 300 529 508 489 478 471 463 466 462 483 447 418 425 318 292 280 301 288 276 313 274 269 284 268 260 257 254 244 244 245 242 247 208 243 207 233 222 207 209
128 158 138 221 212 176 218 241 319 461 487 485 504 498 492 498 503 479 456 424 337 303 288 299 257 290 286 287 287 262 265 281 258 252 259 256 256 239 232 229 229 238 249 242 201 226 225
127 149 133 253 259 179 196 240 298 412 440 417 450 521 497 522 446 404 456 400 314 261 288 296 296 274 275 271 287 286 264 270 274 262 250 248 252 238 239 232 234 234 238 248 240 248 212
175 109 139 130 249 225 190 239 317 395 406 407 402 476 406 404 409 424 381 332 305 294 291 293 274 270 269 263 270 292 280 265 267 269 269 245 244 249 248 228 231 234 229 228 242 240 239
139 174 195 208 211 203 192 238 311 368 395 381 356 392 440 436 268 374 351 310 289 288 270 271 266 266 260 261 265 273 285 282 271 274 266 276 252 240 239 243 233 242 222 228 246 230 231
182 141 244 206 201 204 217 238 306 395 361 371 346 342 370 359 372 357 357 280 269 272 265 262 251 251 214 255 255 258 258 261 303 297 297 264 257 261 260 265 260 244 227 225 234 224 232
102 131 202 202 200 148 214 239 301 363 351 319 347 336 362 373 351 369 280 274 268 258 259 256 256 255 247 247 245 257 258 263 264 317 298 286 274 257 251 243 243 248 250 251 238 237 237
210 208 182 198 202 165 222 287 305 314 383 321 301 347 353 399 365 289 272 267 262 263 260 259 258 235 235 247 245 250 251 246 253 257 302 290 278 276 257 251 251 251 247 248 247 249 239
192 222 140 199 204 163 238 294 295 322 330 325 295 322 301 366 308 282 270 262 258 257 257 255 240 239 229 233 235 241 248 250 246 247 255 294 278 270 270 268 272 275 275 275 269 268 267
205 190 157 201 213 191 245 290 285 291 319 404 299 310 333 283 277 280 272 251 264 252 245 232 230 231 236 239 265 285 282 287 290 289 288 282 276 267 257 256 259 258 257 257 257 254 251
216 194 161 214 216 194 282 272 280 291 287 343 340 276 304 301 290 262 283 271 262 248 238 232 234 236 236 269 269 265 269 277 280 279 275 276 276 271 262 258 259 254 250 250 257 259 243
126 191 195 215 288 280 277 271 286 291 280 285 324 309 281 267 285 283 274 249 248 241 246 239 248 240 280 263 259 259 258 259 262 274 274 274 272 270 274 268 259 270 248 240 232 224 251
185 128 202 240 283 281 273 270 283 282 279 280 316 322 314 275 264 258 251 250 247 248 242 243 243 267 266 257 249 251 252 252 252 249 246 244 248 251 254 245 233 226 224 250 243 234 239
186 171 220 287 285 283 269 271 288 286 279 274 276 308 327 346 276 263 256 245 240 253 251 250 264 271 261 254 246 241 236 233 230 228 229 229 226 224 232 248 265 252 237 230 217 226 216
182 205 296 285 165 285 207 283 288 283 278 267 261 285 298 321 311 314 267 264 253 248 281 284 276 262 254 244 238 238 235 230 226 230 239 276 270 268 265 229 220 212 217 215 211 231 232
197 295 294 287 290 288 130 286 296 282 281 261 296 268 291 302 305 310 322 268 263 254 289 274 265 255 248 239 237 235 233 286 288 283 269 222 218 214 212 214 222 218 230 236 231 97 233
301 295 289 289 283 180 237 288 291 285 281 274 274 287 307 279 312 294 317 291 326 266 255 273 262 258 246 237 234 234 261 225 215 222 218 217 215 214 222 214 241 240 235 232 232 230 227
302 295 285 289 283 264 296 296 292 282 275 261 266 279 278 288 259 294 282 307 291 320 270 254 256 254 247 238 235 231 223 220 222 223 220 219 220 225 217 217 207 240 236 233 206 235 221
299 292 285 344 299 135 313 292 291 297 281 279 265 276 274 273 285 282 281 316 309 296 315 274 254 242 258 240 235 232 226 222 221 218 220 221 222 214 230 207 240 226 240 225 232 221 225

GFSGBSN_2pvu_pres_036.txt.gz
Presure
138 129 122 110 135 240 183 227 184 224 247 299 321 355 379 461 477 476 520 526 531 495 412 355 343 324 326 326 348 311 294 293 267 236 228 211 196 197 203 181 178 189 176 174 186 179 178
126 130 185 167 111 137 186 158 225 244 269 334 328 353 467 481 468 515 509 491 488 509 432 365 330 331 323 321 336 320 287 292 253 231 234 212 199 189 203 187 161 152 191 184 182 174 182
145 133 125 149 104 244 189 165 182 246 313 326 338 470 456 455 499 461 470 490 485 487 448 414 323 331 318 312 321 326 293 284 285 262 226 221 221 198 189 174 180 206 206 166 182 185 180
135 147 133 114 122 197 181 180 224 248 322 340 501 449 464 447 467 455 455 482 459 500 446 421 324 333 314 305 307 340 295 274 292 226 232 217 218 218 197 180 160 177 206 200 189 188 184
160 129 144 152 127 245 200 173 225 250 343 361 473 459 441 454 449 431 420 437 494 507 437 417 330 327 296 308 306 322 297 268 288 264 241 224 216 213 215 197 188 164 159 220 198 194 189
152 155 181 168 96 223 189 182 225 250 350 519 492 460 438 453 433 414 418 429 452 530 441 416 330 333 287 301 306 305 305 283 283 269 263 253 222 215 213 206 199 185 175 154 183 225 169
135 115 181 171 226 141 213 163 227 252 466 518 489 455 464 448 422 432 421 422 443 531 424 404 317 303 289 305 307 305 292 276 275 269 261 249 247 219 209 211 207 200 189 172 203 150 229
114 163 182 169 225 151 212 172 230 255 437 507 486 466 465 440 440 435 442 456 476 454 410 396 304 305 286 297 288 299 291 276 269 265 258 253 244 234 245 232 218 196 185 179 187 161 162
139 152 137 190 180 117 214 169 237 294 455 521 488 464 458 440 418 428 449 485 556 426 402 361 300 304 293 293 291 313 287 276 263 262 259 258 250 251 236 228 215 203 181 193 193 182 158
153 130 153 180 222 207 213 172 162 342 443 565 532 497 478 467 432 440 497 486 423 396 364 317 289 302 290 293 284 297 308 278 262 257 258 255 250 257 240 234 237 213 197 193 185 197 193
95 158 135 202 221 207 209 185 263 378 416 489 555 506 522 503 487 532 451 407 375 357 313 298 310 294 295 301 281 291 295 305 260 259 260 251 260 258 252 238 229 243 221 204 196 172 177
142 163 165 193 221 228 207 223 178 225 394 419 443 440 452 443 440 427 405 377 344 313 310 304 296 304 301 286 277 285 290 298 251 263 255 253 257 256 259 254 244 227 243 214 180 211 197
148 152 162 152 224 223 205 225 318 299 369 389 441 421 422 497 444 406 380 357 316 299 291 286 311 310 300 274 279 277 286 296 296 269 255 258 257 257 249 258 247 244 250 245 215 201 193
113 148 160 139 210 194 203 226 297 296 331 341 406 399 371 418 391 371 352 321 307 287 314 322 306 295 280 294 268 262 270 282 285 293 277 257 250 251 244 260 244 245 246 245 241 252 202
151 148 157 170 222 192 200 225 286 266 355 338 387 403 370 420 340 319 300 295 279 319 303 282 283 270 266 273 270 261 265 273 266 273 278 277 256 248 259 245 259 242 233 227 237 247 255
167 154 161 183 144 191 201 224 295 251 291 335 399 391 316 303 286 294 292 272 277 266 263 268 272 266 224 264 278 269 267 268 274 265 273 270 261 251 249 251 249 242 244 243 240 236 234
145 157 174 125 231 187 201 226 215 162 280 339 361 318 284 299 296 291 279 267 270 264 266 270 265 269 265 265 270 283 302 283 273 273 277 281 280 255 245 249 250 250 256 243 241 234 234
137 159 170 127 254 186 201 277 285 194 270 344 389 327 279 258 278 288 279 275 267 268 261 262 259 254 250 249 251 253 254 256 259 268 272 284 269 266 276 247 241 246 252 253 242 232 222
144 204 173 126 136 149 202 292 283 152 268 280 317 319 287 276 290 284 277 271 262 264 256 248 245 242 241 244 242 238 243 247 254 257 270 321 273 278 264 263 267 257 252 245 240 240 262
187 190 144 126 135 167 231 290 284 260 276 295 325 322 315 285 271 288 277 262 260 262 242 240 240 236 236 237 237 245 244 251 253 249 258 260 296 282 273 268 256 249 253 255 251 245 242
197 154 144 227 136 202 289 285 282 279 275 290 289 302 284 281 273 284 281 272 264 249 240 233 235 234 240 240 245 282 295 298 298 291 248 251 255 282 273 267 268 267 268 256 250 260 273
214 154 184 172 187 244 291 280 283 277 283 301 294 337 306 277 288 273 270 260 251 251 242 238 241 241 239 245 272 275 275 279 285 288 287 285 285 287 276 272 271 264 260 260 259 257 255
221 173 178 126 209 303 290 282 267 277 285 294 286 300 324 293 285 284 260 254 253 251 246 250 248 241 243 255 270 260 264 266 276 281 275 274 275 274 271 268 270 255 250 252 249 257 255
180 185 191 198 312 299 286 278 271 275 291 293 285 295 318 311 330 293 273 268 262 254 251 241 250 248 251 268 265 250 257 256 253 263 278 275 273 271 273 272 271 252 252 255 251 238 230
176 189 118 126 301 294 286 278 272 272 295 289 279 280 280 300 298 306 330 287 276 265 258 252 238 266 265 272 252 250 244 239 232 233 233 235 245 258 267 272 264 244 235 228 225 244 243
331 327 110 310 296 293 285 280 276 270 268 287 278 269 297 269 294 283 288 301 325 289 274 265 252 285 282 266 254 240 237 234 231 228 229 222 222 223 229 227 230 253 258 254 236 212 226
304 326 302 319 298 287 289 195 299 274 287 286 276 275 281 280 277 282 287 285 277 298 320 283 265 251 282 263 248 240 235 238 233 231 254 287 281 281 277 251 248 228 220 208 221 233 231
312 281 126 294 285 292 287 269 324 291 275 292 270 286 285 280 271 275 278 290 293 285 281 309 321 269 249 264 258 243 240 236 234 296 292 240 220 214 217 220 221 211 220 226 238 232 235
292 126 127 295 301 282 284 295 180 310 304 286 282 284 281 281 267 270 290 286 287 299 275 272 302 310 268 246 261 244 238 233 230 220 219 220 215 217 218 224 220 220 204 224 236 236 233

GFSGBSN_2pvu_pres_039.txt.gz
Presure
143 148 132 130 163 106 130 197 214 131 245 297 345 380 526 503 461 432 453 463 470 470 469 448 412 376 354 326 331 320 321 362 330 295 271 245 219 200 212 185 176 191 133 179 170 182 183
149 140 147 100 159 212 139 202 217 170 263 309 359 518 498 469 437 449 456 473 474 487 508 498 436 389 355 325 320 319 311 354 349 322 255 286 212 222 196 194 184 192 185 136 163 177 184
126 137 145 131 165 148 224 202 221 217 285 314 492 526 490 458 451 437 440 449 447 475 468 460 481 398 359 319 310 307 318 329 371 295 294 265 242 216 203 194 190 181 197 183 168 155 164
125 148 126 145 130 171 226 202 220 236 304 349 454 509 480 455 434 454 427 432 427 474 455 453 476 402 341 321 308 301 293 318 335 302 292 248 269 236 210 200 187 187 183 147 192 183 162
130 124 152 112 83 213 167 179 216 237 311 479 474 494 472 448 443 441 416 409 432 443 481 467 466 388 326 312 306 297 293 321 324 309 281 259 254 252 225 223 201 187 213 175 149 192 179
131 121 160 146 124 116 223 195 217 238 313 500 475 482 465 470 451 415 424 414 423 447 503 475 422 373 315 301 298 305 290 316 314 301 285 283 246 265 240 231 202 200 178 226 173 150 157
105 133 97 155 162 124 221 193 216 214 319 480 457 486 467 452 451 437 422 431 429 452 480 439 404 343 303 303 301 294 293 301 297 284 297 273 288 241 236 227 223 196 204 184 217 176 192
142 105 129 180 97 119 224 194 214 240 320 413 536 477 479 459 425 422 430 448 466 565 445 404 394 313 303 304 294 286 293 304 298 278 292 288 280 247 252 227 227 224 195 204 192 179 178
149 146 151 140 164 121 212 207 210 262 323 407 555 468 499 463 444 440 461 503 559 437 414 393 343 301 300 296 284 288 280 303 289 281 274 282 270 282 264 228 217 221 218 186 195 188 173
150 141 124 164 126 225 228 204 207 264 319 407 489 464 563 492 479 552 564 452 424 402 385 372 314 290 296 281 286 285 286 287 274 283 284 272 264 283 233 243 212 214 216 217 230 216 183
149 106 144 153 166 166 162 203 211 302 221 410 498 468 444 439 445 454 427 412 401 379 358 337 295 298 287 278 286 289 284 292 277 258 272 300 263 283 268 253 221 213 217 213 212 210 211
147 153 149 155 159 126 148 193 213 285 298 293 398 443 423 417 425 409 408 393 379 351 336 294 293 292 276 282 289 296 288 291 289 261 259 262 297 261 277 265 255 216 209 218 212 208 210
128 151 149 148 127 133 227 192 216 297 295 217 327 325 328 320 325 306 343 348 339 327 299 289 296 297 286 279 298 290 296 285 289 275 270 266 268 279 287 266 256 244 221 207 207 207 200
140 148 126 148 161 189 146 193 219 245 289 283 353 295 329 319 310 308 298 313 283 317 317 310 309 291 287 292 285 291 304 304 271 286 270 265 264 278 275 266 261 255 233 241 219 207 202
142 146 151 160 160 157 166 190 216 297 289 298 318 319 310 302 316 312 306 306 311 306 323 306 287 292 284 276 278 277 291 301 291 272 275 259 265 266 265 266 266 257 254 243 241 242 223
132 146 147 178 155 194 160 125 302 293 284 285 344 325 286 303 299 290 300 289 288 290 281 291 287 274 269 272 281 284 280 281 289 293 289 260 259 263 264 268 264 258 259 252 259 243 237
150 133 142 166 187 183 152 125 299 292 282 283 300 318 293 277 301 303 285 273 282 282 279 275 276 273 270 303 280 273 277 274 275 278 286 291 267 258 269 261 258 259 257 254 251 254 245
154 141 143 198 190 136 179 134 295 291 283 282 279 330 312 285 291 296 283 276 276 273 268 265 263 263 261 263 275 273 264 271 267 268 263 274 277 287 280 268 257 249 255 259 240 250 254
133 163 140 106 172 159 180 299 293 273 286 253 280 320 302 297 281 268 280 277 266 264 258 257 252 253 253 256 258 260 281 278 280 273 271 267 256 258 261 260 264 269 250 252 247 255 251
198 192 161 182 94 173 217 299 294 283 242 277 285 329 311 298 288 281 262 252 261 248 249 251 252 249 246 246 241 242 248 251 253 255 256 269 280 273 263 264 255 259 260 246 248 248 249
120 127 144 179 166 205 130 168 292 283 277 296 273 295 307 305 285 279 278 264 250 244 243 233 237 237 238 236 236 237 237 243 246 252 252 255 259 305 276 275 266 268 261 244 244 240 254
154 150 150 170 153 312 316 255 288 283 277 294 287 290 292 335 310 293 280 268 262 256 251 249 249 247 249 241 246 273 264 296 299 309 258 255 257 258 296 287 280 276 265 260 268 269 253
158 195 155 174 111 185 196 262 286 284 277 278 274 271 293 278 298 323 296 276 268 262 257 252 241 249 250 248 252 266 256 267 277 296 298 296 263 249 252 282 272 270 264 266 273 284 268
230 268 279 296 308 184 216 133 284 282 278 282 273 247 294 279 300 294 321 321 296 274 261 256 254 240 245 257 256 269 248 257 260 262 292 287 286 283 286 284 272 268 261 267 262 257 256
185 173 236 308 259 325 109 295 283 280 275 286 281 273 283 281 289 292 290 292 305 313 310 277 262 254 242 258 273 274 250 250 248 252 250 274 283 280 279 275 277 272 270 259 259 249 242
281 306 372 324 323 295 109 295 293 279 276 269 300 277 283 281 284 286 277 281 289 287 281 302 311 300 260 249 282 274 251 240 237 236 235 237 237 268 277 276 273 268 264 253 241 252 252
306 300 309 324 136 331 128 254 290 288 277 268 266 291 282 278 278 286 274 289 262 283 281 284 277 299 304 261 256 279 252 239 233 233 232 232 232 225 226 231 269 275 271 262 242 224 237
167 277 380 187 135 223 250 297 293 293 285 304 279 288 282 277 280 285 291 270 282 277 286 287 275 284 274 312 258 268 257 242 234 236 233 225 223 231 244 262 237 236 245 255 244 236 214
334 336 396 359 367 319 354 323 307 305 291 297 310 278 287 274 279 275 282 282 281 272 278 276 288 266 270 282 295 252 264 249 238 238 226 250 287 280 281 280 278 221 232 210 224 228 232

GFSGBSN_2pvu_pres_042.txt.gz
Presure
140 135 120 88 151 95 104 131 234 258 189 303 326 400 491 492 482 461 456 447 436 433 439 424 418 403 383 361 350 308 310 332 330 363 263 248 228 228 170 190 197 188 180 181 136 172 165
107 144 124 136 149 165 105 114 240 202 211 322 339 370 509 476 458 445 443 431 453 458 484 474 443 419 392 386 356 322 317 334 328 343 296 290 239 213 217 192 192 194 164 163 170 135 185
135 147 140 140 88 153 149 121 236 195 236 326 361 504 468 475 433 432 436 436 424 429 475 448 460 457 419 394 358 336 316 325 306 325 352 286 279 235 198 175 194 185 191 172 186 147 184
107 150 139 111 85 153 146 233 232 198 245 325 333 456 451 467 438 451 450 419 418 431 475 463 450 467 420 404 354 329 316 319 300 319 341 361 268 278 227 200 207 191 181 180 175 182 149
112 150 148 134 139 149 141 138 233 207 263 321 480 483 444 449 473 457 422 418 416 408 438 456 441 469 423 399 343 319 310 311 299 332 330 355 325 292 263 221 207 207 189 181 181 179 173
142 151 151 150 150 108 181 160 195 215 300 310 482 540 483 454 427 444 428 424 430 424 449 452 454 470 421 376 330 310 308 302 290 304 334 338 352 314 270 235 200 219 197 194 176 177 180
144 153 151 148 98 98 107 149 196 310 306 311 375 484 504 452 441 430 427 436 438 423 494 472 483 423 389 335 314 299 323 313 299 273 318 324 339 320 316 270 223 215 207 194 198 185 182
105 156 150 153 150 102 143 124 193 236 304 305 373 547 505 486 454 448 457 461 488 502 462 453 430 389 338 313 296 291 278 269 289 289 302 319 346 314 318 238 262 218 213 209 195 196 188
144 131 143 155 153 89 163 161 195 257 302 300 380 370 473 578 532 521 520 466 443 432 405 394 376 343 317 300 292 284 285 262 261 297 302 311 317 305 308 273 251 238 219 218 211 196 192
107 147 125 149 150 143 162 147 192 302 299 295 367 364 378 466 467 453 433 419 405 390 378 359 329 311 299 290 278 282 273 259 271 275 306 312 309 296 302 279 232 247 233 220 225 213 216
136 110 147 158 149 164 162 145 136 301 296 289 324 338 352 340 429 423 403 394 382 369 349 328 311 303 299 279 284 289 275 275 273 279 286 306 306 301 288 275 264 262 245 227 217 223 221
132 144 131 160 147 174 161 191 137 297 296 285 322 310 359 325 318 335 395 405 393 341 300 283 302 292 287 285 282 284 263 263 278 263 296 277 304 302 286 274 261 240 252 236 230 222 227
129 140 146 152 149 162 160 159 174 298 296 285 304 305 331 323 309 311 298 361 355 348 324 308 303 290 290 284 286 290 268 264 268 281 275 288 288 302 299 267 272 265 230 242 233 232 224
129 124 135 131 146 156 176 151 137 306 295 284 284 307 296 308 296 312 324 299 291 307 317 308 317 300 290 284 287 290 278 274 280 280 279 278 291 300 293 287 278 290 266 231 234 223 218
139 124 146 103 151 166 176 175 135 304 295 284 278 315 288 284 301 296 316 322 304 300 284 283 274 277 262 292 280 285 294 292 273 273 274 271 267 299 312 287 276 271 283 253 219 233 226
149 143 138 142 88 155 175 172 136 307 296 286 279 300 294 282 283 301 305 286 294 309 304 300 298 299 295 292 293 286 274 278 285 283 269 268 272 270 269 295 278 282 271 271 237 237 225
127 141 133 148 135 194 154 171 115 313 295 285 282 272 316 295 287 277 293 284 285 281 280 277 273 277 288 286 286 280 292 297 290 282 286 277 270 278 278 273 283 267 291 264 254 228 232
150 136 149 163 276 153 153 284 312 198 294 298 281 291 324 304 293 271 288 281 278 264 269 273 271 273 279 295 289 274 266 268 283 285 287 280 283 278 277 273 283 276 270 268 261 253 247
148 134 139 144 152 279 143 206 296 208 297 291 278 274 299 319 295 280 266 254 262 257 255 261 261 260 264 266 279 287 280 270 259 269 267 279 282 285 286 272 268 260 270 265 255 258 256
143 168 144 150 193 204 180 319 318 299 297 297 244 277 274 310 306 287 275 265 254 249 244 235 244 239 240 242 243 244 254 268 279 277 265 254 259 267 277 285 276 254 263 263 266 259 256
140 148 161 153 196 354 225 296 308 299 301 294 280 293 273 274 326 301 285 275 262 253 251 245 238 240 237 239 236 238 260 243 248 254 260 267 272 256 255 261 268 273 277 278 276 268 261
129 146 265 183 323 366 295 298 295 309 284 286 285 185 274 274 305 335 303 286 274 262 262 249 250 247 239 244 244 244 276 269 275 255 250 253 258 265 284 264 256 253 255 257 259 254 253
143 153 258 255 376 360 360 163 317 307 226 281 284 180 280 296 300 299 339 317 288 276 271 263 254 245 250 250 251 253 268 256 262 295 312 268 255 255 257 276 284 266 257 257 253 249 250
165 238 187 193 313 335 376 337 323 126 299 286 280 277 277 262 287 290 300 292 339 324 287 274 265 262 249 247 256 264 265 253 256 260 281 301 308 257 253 256 297 287 272 270 259 256 260
267 267 276 279 318 313 379 381 328 234 232 136 282 278 278 264 286 287 286 287 282 292 299 316 322 277 268 256 246 276 269 248 250 252 260 267 296 292 299 252 250 279 272 267 263 263 269
158 172 278 294 400 288 383 372 343 333 319 301 285 278 279 270 290 284 281 282 288 281 292 282 282 285 318 309 256 267 277 253 246 248 250 250 257 284 288 288 289 279 269 264 255 261 251
187 290 270 286 372 366 412 254 379 351 306 327 290 281 282 293 274 285 278 285 281 273 282 282 294 284 276 285 314 255 275 256 245 242 236 236 239 242 255 282 277 275 276 268 260 252 248
249 268 270 278 315 395 342 406 359 360 341 341 298 290 309 282 274 282 282 277 277 274 273 278 282 288 282 279 278 294 262 263 252 243 236 233 235 234 233 236 274 275 266 263 264 246 247
174 242 226 306 298 398 376 366 374 369 122 216 313 302 303 303 287 283 279 277 278 278 272 275 281 284 283 288 272 277 283 293 253 247 242 234 235 231 224 224 228 231 277 272 266 250 252

GFSGBSN_2pvu_pres_045.txt.gz
Presure
131 129 93 135 125 126 147 130 129 220 188 312 330 327 370 481 461 462 447 447 444 447 439 442 463 461 216 345 245 265 288 287 289 304 356 246 284 237 207 212 188 168 190 182 167 150 143
127 141 136 141 108 152 152 131 144 208 197 330 329 370 370 467 451 442 443 423 425 451 447 423 424 451 459 357 347 330 308 282 316 291 331 335 297 239 222 200 205 175 150 192 182 177 183
98 138 153 142 89 151 153 141 126 205 194 329 325 354 509 467 443 437 434 429 448 409 424 447 424 419 434 419 352 338 270 294 290 291 296 342 254 294 233 214 211 190 170 174 177 67 183
107 103 151 126 157 139 155 160 119 110 194 328 325 356 524 465 439 458 462 460 422 411 414 436 446 439 418 434 374 333 327 306 281 285 324 337 348 304 239 232 197 209 191 173 186 190 179
114 117 122 145 158 161 158 155 147 111 277 325 323 352 511 478 439 431 434 425 422 411 410 448 432 453 437 418 381 343 327 291 310 274 309 308 338 325 294 236 221 189 186 189 177 191 132
117 103 126 148 157 140 127 178 144 121 194 322 321 349 537 487 450 435 426 426 432 427 427 434 437 451 459 411 384 355 328 325 313 283 276 295 321 349 301 246 234 205 206 203 181 169 178
111 127 116 152 111 147 164 163 145 269 268 321 319 347 574 520 477 453 453 451 438 444 444 443 445 416 428 416 387 333 343 304 311 288 309 327 284 340 374 278 232 227 202 196 197 180 174
124 133 109 135 140 144 156 201 96 163 248 318 309 342 415 471 507 502 486 485 486 476 470 446 433 425 409 381 349 322 329 306 308 310 304 307 311 319 349 314 276 227 225 167 174 186 197
129 131 144 153 130 129 151 200 152 142 189 315 305 337 398 418 446 416 423 432 447 455 439 408 401 389 379 383 352 325 308 300 294 320 308 292 306 310 356 381 290 274 223 226 214 194 167
127 120 125 135 138 144 154 169 153 313 182 310 299 328 331 423 421 417 413 409 396 385 380 376 375 363 336 322 303 283 280 299 275 309 292 286 318 314 342 367 328 274 259 217 218 223 195
117 98 121 159 142 144 112 200 152 261 261 310 296 306 320 358 386 393 372 373 370 362 298 333 323 318 308 283 282 278 272 279 280 291 298 310 294 319 339 346 332 323 266 230 216 212 208
139 112 126 140 133 143 150 91 150 271 142 306 294 283 308 298 350 327 303 269 290 352 331 312 307 302 282 278 270 274 269 278 263 292 305 316 291 301 318 344 354 317 305 257 244 213 201
146 130 136 153 133 141 102 211 156 291 308 302 297 281 307 310 324 297 305 310 304 322 319 299 313 293 284 270 270 269 260 260 267 266 273 277 296 311 315 321 336 318 304 296 257 265 220
143 137 142 127 131 141 208 212 329 337 310 295 294 282 273 268 296 282 304 313 300 322 314 304 296 286 296 288 285 280 279 265 267 280 301 285 295 306 312 315 314 318 294 291 271 246 253
144 132 145 162 139 139 286 206 345 298 313 305 283 287 278 297 293 280 323 307 298 327 321 303 306 296 297 289 293 285 283 275 280 280 277 290 289 281 311 308 305 317 289 274 271 262 243
137 134 127 155 148 142 220 235 124 248 327 291 280 296 282 301 295 288 301 303 306 306 298 286 273 294 301 280 282 288 276 283 284 273 282 281 283 293 302 303 311 302 284 271 269 262 250
134 127 136 157 149 141 149 165 243 304 338 315 307 284 269 270 294 282 274 276 297 290 287 283 287 286 288 296 300 280 278 274 274 279 277 279 274 281 283 305 293 302 281 267 258 261 262
129 139 133 150 150 137 149 286 356 282 340 347 303 282 267 281 300 284 280 264 266 264 278 279 279 286 291 282 289 276 289 289 277 274 269 270 272 269 260 262 296 288 292 263 260 256 261
127 126 136 148 150 187 173 175 306 330 317 315 302 303 270 268 283 297 286 275 263 263 260 254 261 265 275 284 279 276 271 273 285 288 275 271 278 277 275 276 264 264 296 279 277 270 274
164 166 167 149 154 184 142 218 306 341 300 348 308 297 197 278 286 319 296 283 271 265 253 252 250 249 251 250 253 259 275 268 262 264 266 273 283 282 282 282 284 286 266 274 278 260 271
160 129 125 223 175 133 152 271 297 302 361 354 136 296 295 276 283 320 312 299 282 270 264 252 250 246 248 251 243 247 249 249 260 268 266 255 259 267 274 284 288 283 285 274 267 264 247
126 126 143 128 152 140 260 280 292 244 360 341 318 304 247 278 273 264 312 308 297 284 272 261 257 253 252 250 251 249 263 274 265 249 251 259 270 270 258 261 271 279 277 274 265 261 260
133 142 138 140 145 160 264 283 223 378 371 341 276 303 302 281 177 289 289 300 310 295 286 277 267 262 254 252 250 248 250 269 265 273 283 257 250 256 266 274 259 260 268 275 270 265 270
170 143 194 158 159 187 269 172 193 188 376 349 326 312 302 303 210 282 296 301 299 333 302 285 277 269 266 255 254 254 263 265 261 260 263 293 300 255 253 256 270 272 257 258 258 259 263
142 154 183 138 249 175 228 156 256 257 387 378 332 321 295 273 187 273 298 292 293 296 301 335 326 289 278 267 261 250 267 270 255 255 260 264 292 308 260 251 251 250 278 269 256 255 251
152 249 245 172 123 124 145 152 393 238 411 169 338 150 299 256 178 166 289 287 283 285 283 286 306 290 321 313 281 268 252 279 260 250 251 257 271 285 298 306 248 251 249 290 279 265 262
173 187 144 165 155 262 161 195 295 413 341 367 320 348 332 238 279 291 287 278 280 279 282 283 281 290 290 285 307 302 269 279 266 254 246 248 248 263 276 285 292 290 252 269 274 267 266
191 156 152 133 238 224 234 223 314 364 395 411 362 305 337 319 240 237 286 275 282 273 272 276 281 279 281 283 285 286 302 258 277 260 251 246 243 240 244 263 284 280 286 273 267 259 255
235 140 168 160 243 260 204 274 390 410 379 146 367 354 344 299 318 300 290 281 276 273 277 275 276 281 279 280 276 273 273 288 260 267 258 246 243 240 235 234 244 274 280 277 272 260 256

GFSGBSN_2pvu_pres_048.txt.gz
Presure
104 101 93 102 104 158 152 133 148 137 247 211 243 332 367 460 485 450 435 432 438 424 434 443 464 422 473 351 315 306 303 281 287 292 323 333 333 245 193 214 194 204 193 187 182 165 139
116 103 127 143 139 100 132 150 152 161 305 190 314 343 458 359 472 443 427 440 434 426 447 450 439 445 447 379 326 111 299 80 277 287 290 327 341 329 200 222 207 198 205 187 188 154 177
110 113 119 99 105 107 125 155 169 139 254 182 337 351 545 498 470 442 425 456 453 443 421 431 425 437 432 428 358 315 268 282 275 277 285 306 322 272 241 217 220 201 209 200 183 179 181
127 100 105 133 141 111 135 116 165 149 225 183 155 365 532 493 465 437 435 441 444 419 411 410 444 424 433 442 488 316 313 266 277 271 278 288 324 334 358 241 224 215 191 199 169 170 186
110 116 122 140 156 136 108 144 167 175 277 214 154 342 467 519 477 445 436 427 427 417 410 407 454 432 429 441 449 343 308 289 284 270 277 307 295 322 349 314 233 218 219 185 198 191 179
108 126 116 127 125 129 148 150 266 133 224 321 127 318 445 412 481 491 462 445 448 430 435 448 429 432 416 423 447 368 311 305 270 272 278 279 283 308 337 305 235 225 217 207 184 189 150
144 114 123 142 121 126 136 146 365 145 249 338 324 314 357 369 451 454 489 476 435 438 440 435 441 442 411 424 433 374 342 320 283 266 261 284 313 292 322 310 330 235 229 225 202 185 186
104 139 123 145 131 125 132 190 211 350 320 303 125 313 317 386 418 380 479 475 479 469 450 423 421 417 391 400 392 353 335 331 295 282 261 276 310 282 299 352 261 339 230 230 215 196 190
145 117 127 152 122 105 108 147 264 284 330 338 276 320 314 407 350 397 323 425 435 437 429 424 419 393 393 383 349 346 223 334 316 290 285 270 269 296 330 318 359 264 283 232 232 203 193
143 139 127 153 126 126 138 155 166 194 338 339 324 309 297 332 409 335 363 374 377 383 383 379 378 372 337 324 332 363 343 297 308 337 301 270 280 273 306 339 352 364 283 283 215 225 201
141 131 125 150 129 127 141 213 164 184 294 322 299 304 325 315 323 361 325 370 364 316 353 330 334 340 331 352 341 378 324 296 306 307 289 272 302 315 290 296 330 358 384 319 250 229 229
139 134 125 150 132 138 136 155 166 190 206 292 125 301 314 315 309 294 340 302 315 350 309 290 289 296 299 305 308 293 293 278 279 310 312 304 311 286 278 291 329 315 393 380 315 240 233
128 129 142 154 135 144 153 148 156 197 294 290 328 205 308 294 273 301 323 330 293 313 316 300 298 286 287 286 284 281 290 293 288 273 308 308 307 304 318 337 330 361 347 373 352 304 233
129 126 127 136 158 168 164 139 154 280 273 306 327 124 318 289 279 292 288 302 300 304 295 309 292 294 277 283 284 277 271 283 293 297 293 311 321 291 308 312 324 339 349 354 347 315 279
131 130 130 130 144 154 126 135 232 230 274 288 342 316 313 285 280 292 289 311 319 296 283 286 306 290 284 291 292 297 269 282 281 274 279 290 296 309 306 311 314 322 338 353 341 330 298
118 138 131 133 177 158 141 154 145 164 259 289 286 324 318 303 280 297 291 282 317 299 296 289 288 294 296 289 283 276 270 267 276 281 269 266 289 294 297 311 302 317 319 335 338 325 312
126 129 122 143 134 159 139 151 152 266 183 278 337 330 311 296 291 304 297 286 278 283 300 296 299 292 270 286 287 282 285 266 276 269 287 276 277 281 287 296 305 298 307 310 319 310 302
126 122 120 115 145 146 151 140 153 229 244 153 363 349 339 306 266 288 293 275 269 272 270 274 299 289 285 290 279 275 273 276 263 267 271 273 282 286 288 292 285 294 294 292 300 304 297
135 125 129 144 109 136 143 147 153 224 172 316 366 345 325 304 284 189 277 283 276 275 270 263 255 280 288 284 286 285 281 274 268 270 265 263 269 271 272 269 292 273 282 283 278 287 293
128 136 127 147 145 148 144 141 227 161 191 158 267 354 301 313 293 289 316 298 289 283 266 252 262 252 257 249 258 267 277 277 287 296 281 274 272 273 267 257 258 270 280 273 282 287 282
121 129 134 178 112 128 168 134 152 193 150 149 387 186 247 178 302 297 282 221 301 290 273 264 270 257 259 250 248 246 251 252 258 272 265 270 274 281 284 281 280 258 255 273 277 279 279
129 126 127 137 151 145 127 151 228 222 160 191 153 173 216 310 322 302 278 287 287 303 291 277 273 267 249 261 259 255 248 254 262 249 251 267 268 264 268 282 284 286 285 260 267 274 280
124 135 141 136 126 138 146 152 247 256 177 234 297 182 341 319 320 294 303 273 290 310 296 293 280 272 268 259 260 255 249 254 270 273 260 249 247 258 272 267 263 273 281 284 286 265 270
148 131 123 152 126 146 175 241 190 229 184 312 415 383 355 324 326 278 252 285 297 300 312 305 295 285 273 270 266 262 260 258 260 271 267 272 279 259 252 258 265 265 267 277 283 276 274
141 140 142 132 140 157 135 230 132 153 223 233 307 388 364 324 146 305 303 292 280 294 296 290 292 303 291 285 275 266 264 258 255 269 264 267 266 288 298 254 258 262 272 258 268 279 270
135 151 121 140 140 230 196 131 255 162 263 229 150 171 368 332 323 306 300 293 281 287 293 289 281 282 295 320 303 289 274 266 262 273 266 255 260 264 300 312 256 257 258 268 266 257 265
151 116 123 149 148 121 145 176 166 232 215 135 160 165 169 212 332 308 303 295 291 277 278 283 292 290 284 283 303 317 298 285 272 259 278 258 251 255 284 293 302 264 254 254 249 260 265
142 145 134 173 148 154 157 123 117 181 207 150 154 176 159 234 250 255 302 182 286 280 270 276 275 275 277 283 279 286 286 303 286 267 265 265 250 252 252 276 284 291 298 255 250 247 286
153 228 150 129 141 129 168 154 141 265 258 157 141 166 157 167 160 304 305 295 287 280 271 274 267 273 265 273 276 271 277 281 280 294 264 273 259 250 247 245 251 282 285 288 278 257 271

GFSGBSN_2pvu_pres_051.txt.gz
Presure
111 154 96 97 109 114 109 141 132 176 123 357 371 348 326 535 503 469 446 431 430 426 440 429 444 445 458 468 334 166 276 305 288 307 301 279 305 269 259 238 217 177 204 196 201 184 183
141 164 110 108 118 101 132 139 141 231 182 234 366 177 192 537 389 456 435 442 451 447 439 436 435 450 438 439 249 315 294 284 247 270 293 298 308 299 330 244 197 238 168 169 147 187 183
152 152 95 94 105 112 130 97 118 182 158 239 341 355 289 457 512 485 446 449 456 456 445 430 453 445 423 441 455 319 301 276 285 277 279 305 268 330 273 252 228 177 226 204 70 193 179
167 163 103 113 128 109 103 120 117 184 251 238 230 350 261 426 437 509 467 448 444 430 421 417 432 440 429 418 442 318 300 286 282 274 283 282 298 307 303 391 221 236 167 217 211 205 188
161 152 132 102 117 130 125 134 156 144 268 313 352 347 343 396 382 510 495 465 448 444 444 415 428 442 434 423 435 334 300 284 271 281 275 277 297 274 334 287 234 235 214 166 199 196 195
163 167 139 158 111 124 121 146 145 137 259 310 225 257 332 339 361 474 517 454 445 440 457 451 453 442 417 419 438 383 302 287 276 259 281 291 279 287 321 334 283 226 196 227 194 194 187
136 171 130 145 129 123 101 140 151 170 229 293 354 260 334 314 333 406 454 478 473 452 433 454 455 429 447 427 421 396 307 290 274 262 259 282 306 283 283 200 278 260 231 198 189 208 200
142 152 139 130 131 137 140 94 154 155 224 296 357 341 285 317 336 327 402 458 456 463 456 428 423 428 445 457 458 397 311 290 270 268 334 270 270 310 288 298 319 265 232 231 218 214 212
175 132 131 126 116 154 123 162 147 204 218 174 183 298 326 317 311 351 365 349 384 381 379 389 419 432 410 383 403 372 307 283 279 270 255 301 284 275 297 304 318 330 344 231 231 239 195
136 153 151 163 115 135 151 128 129 151 271 213 219 241 154 314 355 308 326 324 323 376 360 348 357 357 353 351 338 367 312 284 267 272 292 267 309 278 284 287 300 319 317 296 233 233 239
134 152 126 149 145 150 148 216 130 127 194 213 287 347 324 310 292 312 301 314 307 329 346 339 329 328 322 333 352 346 262 285 293 270 278 270 259 306 275 292 307 314 336 363 288 228 234
134 169 138 109 163 120 138 145 124 151 226 256 248 156 330 298 301 297 295 322 306 326 320 335 327 329 336 345 341 326 379 310 292 286 290 268 269 270 300 282 309 302 319 330 293 384 236
135 135 151 138 151 139 147 152 129 152 209 161 165 153 337 319 293 296 300 323 294 311 301 323 312 311 311 313 345 339 359 353 307 309 299 294 309 278 289 287 278 298 325 347 352 341 336
139 102 135 116 141 145 148 162 164 125 147 204 181 236 340 159 307 292 289 277 312 316 320 295 302 319 302 301 296 294 305 321 326 293 332 328 289 333 300 265 292 271 289 300 304 354 394
157 126 133 112 96 143 157 142 164 133 135 152 200 158 199 163 312 293 298 293 289 311 313 294 297 302 296 293 316 302 287 290 289 285 314 325 319 313 318 315 297 323 282 321 327 359 341
121 136 128 114 132 142 128 139 178 136 149 202 256 156 351 347 186 274 296 288 274 296 305 309 308 289 278 281 279 300 267 271 296 299 294 313 313 310 304 299 298 314 325 324 345 310 368
141 118 123 117 129 142 128 143 168 189 141 146 169 194 286 352 325 307 300 301 296 246 306 310 295 291 296 276 279 278 276 275 267 263 267 277 291 289 300 301 303 309 291 320 319 336 357
149 140 143 162 135 137 113 134 167 159 154 142 262 223 196 356 336 317 295 297 285 281 285 280 296 294 289 284 274 269 275 275 271 278 268 277 271 276 279 288 287 289 301 303 312 318 333
122 152 137 129 129 104 141 137 149 138 155 141 175 190 346 366 341 328 310 253 281 202 273 265 273 292 297 299 294 286 280 275 276 275 276 276 276 283 280 280 282 277 289 282 291 294 308
116 131 140 140 134 132 150 139 123 125 140 152 225 233 187 380 253 332 314 118 298 296 293 278 266 274 253 261 274 284 295 288 285 278 276 272 270 269 271 262 267 301 283 292 284 281 286
123 162 137 123 137 120 144 152 146 234 186 113 256 192 144 167 216 334 327 262 297 291 295 285 270 270 259 260 260 260 265 261 262 279 284 289 286 273 272 268 263 274 282 273 276 282 281
120 111 118 128 119 137 137 147 122 151 128 140 190 152 132 159 166 174 319 305 299 284 304 276 285 274 266 260 266 258 260 254 259 262 259 266 269 275 283 280 276 271 260 263 269 269 274
117 131 124 137 134 119 174 177 125 226 127 132 170 145 221 151 186 161 172 318 300 292 297 304 290 281 271 263 261 260 255 253 253 256 269 267 256 262 269 269 272 284 292 270 269 272 270
127 127 132 141 122 130 132 146 136 142 132 209 201 118 250 287 153 160 230 316 311 290 289 301 309 297 281 274 260 262 262 261 253 259 261 271 268 264 257 255 273 268 277 289 276 269 272
129 126 133 139 125 151 192 129 203 182 188 148 126 236 179 194 227 175 141 314 296 298 289 300 294 295 302 291 281 273 266 263 265 256 252 262 263 266 276 279 262 260 277 265 276 289 289
125 124 138 117 142 143 180 112 134 151 146 115 237 178 210 414 166 135 137 137 141 229 291 282 285 302 289 295 311 302 291 280 271 263 263 249 273 260 262 265 294 289 256 268 271 265 274
128 134 121 129 147 95 146 160 141 149 154 176 198 197 198 257 271 123 127 206 171 300 287 288 278 290 283 285 291 313 312 306 294 284 270 263 259 264 255 259 265 307 290 256 259 274 258
124 136 121 146 147 144 142 125 121 188 142 237 129 172 178 139 133 128 149 326 228 300 275 289 283 282 276 280 284 288 284 287 299 306 288 277 257 271 252 243 254 292 303 278 257 257 266
127 121 134 198 135 140 113 114 136 262 144 141 179 250 278 121 151 128 124 136 127 302 289 287 277 273 274 279 274 274 271 276 275 284 290 291 265 268 263 248 244 241 255 297 300 259 254

GFSGBSN_2pvu_pres_054.txt.gz
Presure
134 146 162 104 165 103 119 117 116 142 179 189 198 384 375 366 164 529 486 466 439 452 429 424 444 473 460 453 353 316 307 284 297 289 294 281 296 305 307 240 207 197 176 161 207 164 197
145 126 141 119 116 123 117 136 125 133 177 243 185 366 368 361 373 467 501 471 462 472 458 442 433 456 440 439 342 331 313 286 213 288 294 295 288 286 300 318 218 207 194 168 221 192 202
142 138 159 161 108 110 97 138 121 142 187 249 237 164 364 360 361 404 506 477 455 474 454 449 452 439 441 451 462 335 313 293 296 287 281 297 284 294 298 288 271 221 214 187 149 191 199
141 145 139 168 181 110 100 119 110 148 153 184 175 234 358 360 371 354 472 463 461 443 429 425 443 447 448 424 413 351 313 296 275 277 279 289 297 306 311 345 295 243 227 200 171 230 186
125 139 135 111 149 122 98 127 95 136 184 243 167 170 353 363 361 345 476 476 467 455 455 420 428 449 428 414 402 336 319 299 277 284 283 284 294 299 313 286 348 252 243 213 208 183 211
137 148 144 129 110 95 126 107 131 139 133 155 198 165 212 234 337 335 424 463 465 453 454 460 443 454 420 405 402 414 317 295 281 276 285 283 292 302 306 321 361 235 233 224 231 217 226
125 136 135 147 114 152 117 164 130 134 124 212 242 196 298 163 331 320 382 447 454 436 442 461 450 457 425 414 417 427 318 289 274 270 275 281 286 308 297 305 313 285 248 230 194 237 233
118 142 130 143 174 122 118 99 163 149 144 144 242 202 203 342 300 330 350 350 411 422 425 445 428 417 418 425 428 414 304 283 270 271 275 289 277 285 295 302 295 293 336 227 236 232 237
114 144 120 145 165 136 130 136 152 126 147 128 141 247 192 234 331 298 318 342 374 373 373 384 459 438 418 417 397 369 298 281 271 265 272 259 283 278 283 294 284 258 259 188 231 236 237
120 125 136 107 96 136 105 116 137 152 136 128 127 242 289 344 334 318 303 314 327 338 353 350 353 410 422 372 368 339 287 275 268 263 294 278 253 274 281 280 297 290 335 288 232 233 240
127 127 120 155 125 129 131 143 150 122 136 152 153 269 262 348 331 322 312 316 331 346 357 341 336 348 368 360 366 290 281 271 270 273 262 269 299 290 298 289 282 302 265 296 265 229 234
117 138 130 155 106 143 115 129 151 155 118 140 150 166 190 235 335 322 301 308 332 315 345 349 339 351 351 371 361 312 288 278 275 270 224 269 266 272 278 283 306 318 303 276 241 267 242
117 139 156 143 150 136 143 150 151 122 138 148 156 240 208 198 341 337 321 299 301 324 314 305 355 374 352 387 353 311 285 279 275 284 265 288 305 269 290 276 282 298 305 334 280 267 286
115 144 132 127 111 136 137 120 132 155 170 140 133 185 261 159 317 337 311 298 305 312 337 322 312 339 386 335 374 285 281 278 272 277 280 272 270 267 285 273 296 324 319 296 299 320 317
137 150 120 140 131 122 126 152 122 151 122 141 160 111 209 228 270 184 221 305 298 305 307 310 313 317 319 330 356 338 305 253 281 280 278 281 276 275 285 273 283 288 303 286 284 303 302
143 149 120 115 132 117 123 152 166 155 139 148 158 184 200 266 182 254 236 192 300 295 305 305 311 300 319 297 311 358 362 317 250 273 270 274 284 289 295 291 292 313 304 294 312 313 293
142 139 138 123 118 131 125 118 142 103 136 139 165 181 151 293 144 291 249 219 248 241 289 301 303 314 297 278 281 269 282 301 331 272 327 325 321 317 322 319 313 321 319 321 304 293 349
120 124 134 132 116 130 133 134 124 144 133 143 131 155 212 189 277 258 157 170 173 289 283 275 280 299 312 294 290 286 280 271 270 270 267 272 285 306 306 310 307 305 306 303 316 329 309
161 159 151 116 124 131 146 129 138 169 128 158 158 139 170 179 251 291 157 150 164 188 293 285 274 273 293 296 294 288 288 286 280 275 272 270 278 272 273 273 275 283 287 300 302 296 322
138 153 142 147 126 137 131 131 137 151 132 160 146 167 165 192 171 244 150 345 201 215 225 283 274 280 273 267 259 303 296 291 285 276 275 277 275 275 275 275 279 275 283 285 300 293 308
160 127 142 136 123 117 129 132 141 157 152 162 137 149 229 172 192 382 388 147 330 153 170 297 281 273 270 272 263 261 260 276 285 292 291 284 273 264 283 278 281 282 288 290 284 287 284
162 135 142 131 125 131 135 138 125 142 144 113 143 160 236 266 182 171 134 359 133 137 195 283 294 282 276 268 270 260 260 259 251 258 273 280 280 285 290 267 269 266 261 280 277 281 286
146 126 129 137 180 124 127 109 121 124 142 119 163 154 167 153 218 253 126 138 303 324 312 293 306 292 281 273 262 261 261 260 255 259 252 258 273 266 277 284 287 273 270 270 272 273 275
128 172 119 136 129 112 127 121 139 131 143 160 136 145 146 198 161 204 127 143 134 148 313 302 290 307 288 281 278 266 260 262 260 257 256 255 259 270 273 260 264 278 279 285 280 272 276
151 126 147 144 127 136 105 129 134 150 163 135 135 139 192 152 153 118 118 118 282 131 138 312 292 287 299 294 284 276 270 269 263 259 260 258 254 259 268 265 268 273 259 277 270 286 296
128 160 154 124 96 135 95 132 115 134 137 124 122 161 157 181 168 120 122 143 123 338 131 145 285 293 294 291 296 288 281 275 272 271 266 260 260 255 259 267 259 262 266 285 259 273 275
140 115 136 106 130 163 127 156 116 135 160 147 156 203 145 249 123 131 124 224 115 240 326 218 161 288 282 296 288 291 300 294 289 283 279 270 267 265 253 272 261 251 258 265 319 258 271
159 144 95 137 137 90 127 145 185 133 135 134 202 134 235 182 145 121 118 421 122 118 210 206 213 282 283 287 287 284 287 307 316 314 305 293 282 273 265 261 266 249 256 252 315 299 257
126 155 105 135 169 115 157 134 142 116 183 133 114 163 111 113 251 122 128 118 162 114 158 150 150 291 283 273 286 273 286 285 284 277 286 301 297 286 269 264 267 261 250 248 246 308 286

GFSGBSN_2pvu_pres_057.txt.gz
Presure
123 132 117 164 112 111 108 125 128 98 118 121 153 184 236 168 373 220 445 508 488 480 481 457 437 435 460 479 402 330 343 293 307 292 285 287 301 273 269 258 221 228 225 209 194 170 211
135 140 139 153 102 129 141 115 144 129 122 145 126 242 215 150 369 366 368 496 484 469 477 461 433 424 453 467 490 340 321 318 281 283 285 305 280 277 269 266 235 248 257 213 200 185 183
113 132 140 159 162 128 151 110 152 109 119 142 125 144 191 318 365 367 362 497 481 463 460 456 453 454 451 437 459 373 316 318 292 270 289 295 276 279 321 265 294 223 265 237 208 194 170
103 117 144 131 132 122 123 94 110 119 158 112 172 180 143 259 368 358 352 385 491 474 470 440 446 471 459 441 432 389 316 311 297 280 268 274 284 299 302 272 266 302 324 251 217 199 187
117 136 137 137 158 132 102 108 129 123 118 140 167 122 245 232 348 359 343 356 447 478 473 447 444 455 443 457 433 433 330 308 294 278 264 293 294 300 319 274 269 306 266 263 244 210 198
115 133 141 119 148 118 113 120 190 104 121 136 150 180 291 307 306 354 346 346 397 452 476 485 472 459 422 399 383 433 336 308 289 283 270 264 301 302 300 319 263 300 297 260 226 218 197
120 135 135 128 150 140 109 106 114 183 141 186 134 132 195 311 311 353 339 327 348 389 491 487 466 399 393 400 393 459 318 305 288 281 285 295 289 289 300 280 285 278 290 235 237 235 216
121 126 122 123 121 107 150 134 140 96 161 161 148 150 223 229 217 354 344 329 343 378 389 474 427 422 404 412 412 455 306 307 286 283 286 290 277 293 292 286 266 319 275 273 258 240 230
140 131 126 133 127 137 133 127 99 136 176 138 119 152 180 219 246 339 342 328 330 349 375 461 448 440 412 417 446 413 300 301 280 273 279 281 283 286 274 297 285 310 257 308 304 238 238
109 144 127 126 144 107 143 128 147 157 160 135 142 164 171 253 200 310 343 181 317 340 367 402 433 410 374 383 402 380 321 287 282 282 268 287 284 294 285 291 279 291 273 313 279 243 238
131 141 125 141 112 119 101 123 103 128 117 144 143 128 129 163 208 241 335 333 226 311 325 349 361 365 351 344 370 326 271 287 278 269 271 281 299 283 283 275 292 309 266 273 248 353 245
130 146 124 139 116 125 112 136 169 108 174 139 109 155 173 193 247 168 345 162 281 304 337 386 354 381 347 351 352 306 297 285 274 276 275 275 275 291 281 282 282 299 304 274 280 269 248
141 130 125 136 133 114 121 134 161 141 137 130 116 119 156 159 179 292 270 135 200 201 321 315 354 362 369 348 332 309 280 283 272 262 264 275 292 284 266 277 277 284 295 308 319 292 278
144 136 142 148 128 122 159 141 135 156 129 145 137 175 152 212 136 170 179 340 319 160 298 320 354 397 369 350 317 306 291 267 282 248 280 290 278 280 286 270 282 286 284 296 290 238 284
130 136 125 126 152 150 172 143 148 127 106 120 126 151 157 138 177 198 272 151 262 262 164 285 325 323 380 369 325 293 289 278 285 276 242 277 273 283 303 309 307 310 303 288 303 323 310
126 131 129 121 155 131 122 149 132 131 145 137 151 142 189 159 158 201 162 303 254 321 162 163 302 315 338 392 303 305 301 294 258 278 250 268 258 304 293 270 273 276 298 289 311 297 287
224 135 122 149 152 145 123 140 131 134 147 154 127 161 173 150 171 259 169 245 347 141 261 169 283 306 285 351 345 269 288 293 286 289 296 265 279 264 294 275 276 270 287 283 266 288 298
118 126 140 150 151 127 152 136 142 129 129 163 109 163 149 163 203 161 177 131 340 242 316 297 293 300 301 283 321 327 291 279 276 279 275 267 269 282 274 289 288 292 301 327 337 327 306
125 133 132 147 143 139 150 130 135 126 134 130 158 139 142 183 192 177 139 133 340 142 150 306 296 286 268 293 288 290 345 301 284 271 270 275 275 276 290 308 321 317 302 313 313 304 308
171 125 134 141 124 144 152 126 132 123 138 150 156 158 140 148 210 169 133 135 391 253 149 310 295 295 284 273 267 293 281 274 262 292 297 285 272 271 282 277 283 279 286 284 290 289 303
144 135 133 127 125 144 130 138 131 134 138 130 156 116 162 133 174 224 148 134 129 129 135 138 148 292 283 277 267 265 300 295 284 281 274 266 279 277 276 273 273 274 279 278 282 283 299
132 127 166 156 127 151 126 147 105 132 127 117 178 167 197 166 156 198 130 147 124 356 349 321 137 149 286 284 273 269 260 260 268 289 294 288 282 278 280 286 282 270 273 272 283 272 281
162 172 156 130 147 135 136 155 116 136 114 137 127 135 180 143 150 125 119 133 193 121 183 335 315 299 297 286 278 270 267 260 258 253 245 254 270 279 284 286 279 274 282 284 271 284 279
141 112 134 143 135 127 128 156 149 125 115 151 160 169 139 199 159 141 136 127 137 123 119 157 140 236 163 284 285 275 269 264 262 260 255 254 255 258 264 264 258 281 289 282 273 271 271
153 134 135 126 142 151 138 138 136 116 143 144 125 166 134 157 186 130 165 337 129 296 174 111 146 152 278 280 293 285 275 271 263 259 254 258 256 254 252 260 265 265 252 256 268 279 280
146 144 148 126 119 159 145 149 138 134 134 124 151 214 134 159 133 104 169 120 119 117 383 143 215 298 164 289 285 296 288 279 273 269 266 263 258 259 261 252 266 266 259 263 269 267 255
138 138 143 144 161 123 171 126 117 140 94 150 170 112 217 147 168 189 151 117 270 185 373 139 154 149 150 248 280 288 288 289 283 277 274 273 269 268 266 265 256 271 262 260 266 260 269
152 131 151 153 158 148 121 141 119 131 159 175 118 120 146 123 213 171 135 155 233 121 183 231 143 145 196 153 201 286 288 283 293 289 285 282 283 277 273 270 268 254 273 260 254 254 294
154 152 136 156 151 166 134 100 132 139 124 129 125 144 133 181 155 188 125 181 242 455 176 119 131 248 165 294 225 277 286 281 278 313 311 311 310 300 290 284 278 268 259 264 252 255 253

GFSGBSN_2pvu_pres_063.txt.gz
Presure
104 106 117 128 140 151 154 148 131 167 126 122 115 139 146 86 125 212 196 215 286 373 497 497 494 490 448 455 473 489 378 333 320 310 312 320 307 280 228 215 201 209 203 129 212 178 167
109 111 105 106 135 142 155 151 126 125 162 117 125 124 113 102 143 166 158 250 184 375 312 498 457 482 456 444 462 461 385 343 318 328 305 313 320 297 265 236 222 211 179 197 174 198 173
108 120 107 119 140 131 147 150 115 119 91 129 103 127 134 124 160 226 147 343 381 370 480 500 456 440 464 444 456 456 415 350 320 317 288 307 306 309 289 253 237 229 215 218 210 178 117
106 112 108 108 145 124 136 156 155 152 124 162 130 141 171 124 113 125 209 196 381 267 329 489 476 473 484 452 460 465 451 356 325 311 316 281 300 308 290 278 249 234 226 226 241 179 181
111 108 103 152 133 143 148 143 141 135 107 99 115 104 119 198 138 200 188 256 377 263 328 491 490 427 443 469 474 481 464 364 333 310 307 275 290 299 296 284 259 243 237 234 202 191 181
120 102 126 129 141 133 144 107 156 147 140 128 109 133 110 148 124 186 184 170 203 162 311 478 442 384 404 399 417 499 526 358 330 310 302 283 279 292 291 291 269 250 236 231 244 187 186
155 150 153 110 104 128 132 145 128 108 138 98 133 158 94 199 132 134 173 189 334 360 363 401 437 413 397 377 383 417 475 348 321 307 300 308 273 283 284 285 272 253 241 236 238 236 66
176 133 145 116 128 137 133 123 144 141 139 151 129 103 106 107 95 187 171 144 207 370 353 341 421 414 401 390 391 439 393 341 317 301 316 311 273 279 278 278 274 256 246 240 238 244 224
124 143 130 132 127 149 137 123 139 143 146 100 143 145 110 141 148 168 196 160 180 351 360 358 438 434 402 393 415 443 372 331 309 294 300 305 297 264 281 269 275 261 250 242 239 240 240
134 113 131 126 129 135 138 159 149 154 160 151 105 137 137 162 162 167 156 142 240 315 361 364 472 461 413 467 467 398 349 320 301 290 290 288 304 295 272 274 268 266 262 249 243 238 238
121 131 126 132 137 128 138 136 136 154 152 156 121 158 168 206 133 127 176 137 180 258 345 369 275 442 472 306 348 346 260 305 303 284 301 294 308 296 286 266 277 273 267 270 259 240 236
132 129 122 149 199 135 136 134 143 144 158 119 123 155 119 133 138 163 219 143 212 187 194 350 356 407 417 377 340 289 312 308 291 294 295 297 299 309 309 307 270 274 288 272 270 269 248
117 131 117 150 129 132 191 132 131 136 136 156 119 130 120 113 142 201 164 132 134 169 280 339 275 338 365 350 325 318 312 299 293 309 295 294 299 314 328 304 293 262 262 304 268 284 263
109 126 130 133 134 189 129 136 139 140 142 115 160 172 120 182 147 123 205 134 131 145 283 352 340 330 360 358 330 312 306 291 297 292 290 287 289 286 285 284 296 293 258 266 291 266 270
130 129 142 132 115 128 165 132 128 131 126 145 136 165 147 126 159 167 166 131 128 136 167 333 337 336 373 381 332 316 311 261 300 291 284 297 291 297 287 283 289 286 279 278 277 291 294
130 134 125 136 116 148 157 186 140 129 136 136 153 155 147 123 126 122 158 144 172 143 250 199 142 197 306 343 350 310 301 275 293 282 259 284 280 302 302 301 302 280 297 295 287 283 290
117 128 131 128 121 126 200 138 143 155 145 134 154 130 142 159 100 143 160 167 131 115 134 161 332 137 149 157 361 321 292 291 287 287 280 299 279 248 289 265 286 279 282 275 296 293 267
127 133 137 130 136 121 153 133 137 195 122 140 153 136 164 142 146 124 163 165 226 116 109 183 120 322 302 278 174 352 338 302 304 272 270 286 281 286 288 286 285 259 267 282 290 279 302
134 142 154 156 138 155 150 131 130 159 139 126 154 155 155 135 142 157 124 144 169 129 133 129 130 234 314 304 313 327 344 324 298 299 278 285 266 282 253 247 251 281 282 281 239 269 280
224 139 132 146 134 129 155 125 175 146 128 131 151 151 167 134 128 131 129 142 195 167 113 161 123 129 152 137 175 285 318 324 325 286 291 280 280 282 261 260 255 254 265 260 259 287 271
130 155 130 129 130 168 133 126 152 149 131 136 167 123 158 159 134 123 125 223 136 162 195 179 165 231 128 142 137 141 278 284 311 304 312 291 274 273 268 274 278 276 264 278 278 301 316
145 195 212 130 125 220 123 125 141 158 134 158 116 98 154 154 108 130 129 146 176 158 169 202 186 316 131 122 126 126 141 277 268 319 310 306 301 295 281 281 286 301 303 309 297 297 289
197 140 129 192 125 140 137 123 132 160 151 154 155 148 146 151 148 164 161 145 145 155 206 169 178 309 218 183 138 218 198 252 272 273 276 295 296 298 298 297 287 269 277 279 279 278 278
166 146 149 159 126 125 123 138 139 154 151 164 158 156 145 146 115 161 118 123 146 171 203 171 262 328 358 237 309 295 285 219 159 266 269 259 276 271 279 284 278 271 278 284 283 284 278
130 135 164 120 129 130 124 137 137 139 149 150 158 148 139 167 153 173 137 134 176 168 177 210 184 183 395 246 305 302 283 275 265 175 258 260 259 252 254 258 258 255 266 265 266 267 269
147 221 123 116 124 149 130 203 154 141 145 145 155 136 130 152 125 147 154 130 101 181 154 211 230 237 362 343 201 203 300 262 230 272 267 265 259 257 256 252 254 257 257 257 257 267 264
145 232 117 126 130 139 138 133 151 146 145 153 152 148 121 138 130 148 110 127 147 165 180 181 220 245 186 383 209 211 255 304 285 156 271 274 268 263 259 258 263 259 261 257 256 255 255
203 190 144 127 147 159 221 137 155 155 151 147 154 142 139 136 150 127 110 145 177 187 127 184 233 333 296 194 212 339 253 284 295 170 281 275 271 271 271 269 272 266 266 265 261 261 258
136 121 138 143 140 129 195 143 152 156 137 151 152 122 126 113 144 142 103 110 136 166 154 163 280 181 323 132 389 272 328 179 215 291 170 279 278 280 278 272 272 270 265 264 265 267 267

GFSGBSN_2pvu_pres_066.txt.gz
Presure
108 103 107 110 105 114 140 148 150 155 139 173 112 185 116 106 141 116 135 165 135 384 282 525 495 491 478 460 449 452 455 354 333 325 309 315 311 307 292 225 217 203 175 209 205 200 189
114 103 105 104 111 124 131 123 124 151 152 135 117 126 106 174 110 129 110 169 264 266 206 398 490 462 483 459 452 457 450 374 331 322 311 301 316 306 292 270 222 253 194 186 203 244 200
102 103 108 112 112 111 113 121 135 156 150 159 118 101 135 123 106 119 131 205 246 383 340 390 498 487 481 470 453 463 452 374 338 319 318 303 307 316 285 273 244 216 191 185 161 221 241
105 109 106 107 108 125 158 135 146 142 158 163 131 112 124 115 136 137 119 159 219 234 146 387 426 426 431 503 463 468 489 374 346 312 319 324 298 318 287 282 272 244 230 192 229 201 217
104 105 103 104 116 156 114 117 129 144 156 161 148 145 109 162 130 148 176 124 199 318 346 385 412 412 400 410 452 487 509 383 337 318 315 330 299 307 309 273 270 250 215 203 177 209 199
105 112 106 109 169 167 122 128 124 132 151 154 169 120 137 151 124 128 184 130 203 275 129 433 416 413 381 391 408 515 499 383 335 325 308 315 316 284 307 286 268 257 241 215 195 181 178
109 103 110 123 143 139 135 112 148 131 150 157 179 118 144 125 154 145 185 167 153 190 304 393 442 407 384 378 387 497 532 377 336 336 307 304 346 279 298 308 275 270 244 223 210 191 186
125 212 110 109 139 121 131 125 130 138 134 125 142 123 121 169 150 123 129 159 153 264 178 385 454 444 389 384 376 448 465 374 331 325 307 301 314 285 284 319 304 271 259 236 229 218 200
122 127 127 128 140 145 136 129 130 127 129 153 139 168 184 176 143 148 115 170 169 137 189 265 202 436 421 401 422 512 420 360 329 314 302 296 313 307 273 294 300 294 269 255 240 237 221
118 118 129 193 132 140 134 145 131 137 123 145 156 109 112 163 133 133 144 149 169 131 205 380 422 435 369 435 464 435 387 340 321 306 306 299 299 310 285 281 285 290 282 269 255 246 241
124 127 112 130 137 123 131 168 150 162 137 144 147 161 137 141 132 132 120 146 161 140 204 294 420 363 457 407 435 400 333 324 303 306 300 299 293 299 283 267 284 285 282 275 270 258 245
175 127 134 125 131 120 133 134 132 130 139 144 151 138 161 142 139 137 145 129 168 170 132 141 146 157 427 426 334 346 281 314 302 298 295 295 306 301 286 265 270 280 276 273 269 259 253
98 129 124 128 128 129 135 139 142 184 168 137 143 117 169 201 142 156 125 158 167 131 134 353 357 144 158 355 337 319 308 301 310 307 299 296 298 301 293 271 274 273 277 277 272 261 253
125 141 132 127 128 146 141 136 139 139 126 121 197 160 143 157 150 104 144 168 156 152 125 140 357 364 167 159 327 322 305 302 302 298 296 297 302 296 301 317 269 260 268 264 270 262 256
131 128 121 130 126 157 132 138 127 193 159 147 162 158 131 130 143 128 125 159 168 175 146 134 129 334 343 323 165 322 319 307 306 286 309 304 301 300 290 311 314 281 268 264 262 261 242
127 131 136 134 129 136 137 120 139 159 143 132 196 146 127 162 139 136 143 147 193 162 195 119 127 128 276 147 288 294 309 306 290 308 298 291 302 301 313 342 301 283 290 280 266 264 284
125 200 134 135 130 151 141 129 169 148 138 117 136 149 149 161 134 140 131 137 141 160 154 223 134 126 129 133 138 275 285 303 295 288 250 284 282 294 287 280 273 277 286 282 273 257 253
136 133 125 139 136 131 178 134 144 142 125 143 128 136 125 166 124 129 126 131 144 163 148 211 166 267 133 126 129 130 141 302 286 290 250 287 297 293 260 298 296 262 286 269 282 286 276
129 135 182 135 141 137 179 148 163 188 139 141 123 154 109 111 160 148 121 124 126 154 146 169 171 221 248 152 260 133 126 186 297 271 280 261 268 270 268 267 261 267 262 257 280 287 294
144 138 131 136 180 202 157 139 130 125 131 149 147 151 154 133 147 122 125 167 171 164 163 166 267 278 262 341 140 269 127 288 293 285 288 286 283 255 264 266 260 272 275 265 255 263 264
132 192 163 157 139 210 142 145 198 123 134 133 141 160 134 161 152 162 114 122 143 159 149 219 218 168 214 310 173 270 180 288 267 163 291 282 275 271 280 275 271 261 251 267 266 259 275
131 139 135 135 135 125 137 126 193 149 133 127 146 157 138 160 156 142 181 149 133 159 187 158 148 169 186 242 333 314 305 292 274 147 313 312 281 282 269 267 262 265 258 291 277 263 271
170 205 132 156 142 142 134 189 124 183 131 137 152 155 155 155 162 161 118 163 124 142 124 154 165 121 214 221 263 283 187 298 288 276 161 315 315 307 299 295 294 291 291 304 301 294 291
205 148 197 142 140 185 155 191 114 128 136 156 149 150 143 150 159 155 171 108 144 122 145 151 164 166 412 382 272 310 299 303 252 206 277 280 281 301 292 295 293 282 282 276 279 285 276
243 173 178 184 139 141 141 127 119 141 160 154 155 155 154 153 154 146 142 125 121 136 152 146 156 253 125 383 103 200 318 304 281 289 283 277 273 271 271 277 280 281 280 281 282 280 278
251 134 179 167 130 114 147 124 125 137 136 139 157 159 154 151 132 142 154 101 188 115 116 175 148 161 186 318 395 279 328 315 299 141 288 270 210 265 262 262 257 264 259 257 259 262 262
250 161 146 158 217 211 150 132 173 133 145 167 152 163 145 154 147 145 147 119 110 119 125 156 159 207 169 328 378 264 340 291 311 301 290 282 244 268 264 260 257 254 255 255 254 255 252
254 154 244 226 231 174 140 185 150 145 137 224 151 155 154 148 135 137 145 103 123 125 131 152 148 142 188 197 289 230 204 244 287 309 304 292 282 277 271 266 265 256 252 255 252 252 252
255 243 239 145 224 235 150 142 131 127 134 214 148 151 154 134 108 134 152 115 145 159 130 150 162 156 170 243 182 415 383 362 117 317 307 177 290 279 277 273 269 267 264 263 262 259 257

GFSGBSN_2pvu_pres_069.txt.gz
Presure
111 109 107 103 103 104 111 94 116 123 134 137 149 149 193 137 146 146 134 113 128 131 188 393 411 296 507 503 452 428 417 385 397 323 343 330 310 323 304 284 260 253 219 193 211 173 189
102 110 114 111 109 113 108 109 110 143 143 146 145 156 151 167 122 140 150 125 131 138 246 295 406 440 440 499 484 440 426 408 429 330 336 348 302 312 298 292 270 267 243 249 182 116 181
110 112 111 104 108 108 113 110 126 113 119 134 140 150 172 108 196 103 148 126 139 152 174 174 347 430 392 431 479 470 445 412 360 371 321 328 335 308 302 298 280 265 250 236 198 180 207
156 113 115 110 106 105 108 109 171 124 138 140 150 173 159 224 158 107 118 173 155 128 214 144 411 259 401 409 452 495 470 410 370 351 314 328 314 306 308 293 283 272 249 227 226 188 185
120 111 115 111 110 104 108 110 144 125 111 152 144 144 150 205 140 145 179 135 150 128 231 138 465 271 406 413 409 514 442 416 377 341 316 324 308 316 304 280 284 266 252 237 220 183 193
117 114 143 127 118 106 108 112 141 138 123 136 126 152 171 137 173 173 153 161 150 195 154 135 426 440 402 389 399 551 389 387 357 322 313 312 303 303 312 289 287 277 131 246 236 257 187
123 122 109 127 133 112 139 129 143 134 129 131 138 134 199 162 104 140 140 115 115 159 250 128 436 332 410 392 401 465 377 390 357 318 310 312 312 291 313 284 279 276 257 261 237 216 194
121 123 123 111 144 132 160 121 141 136 145 130 133 131 164 136 186 121 114 140 133 174 232 131 379 279 410 418 395 473 377 353 341 308 311 308 309 319 288 291 282 278 272 262 258 241 217
125 123 155 128 121 133 129 131 134 127 141 151 148 138 133 155 168 141 141 159 143 135 158 130 469 278 160 438 448 460 391 351 335 309 308 308 307 295 286 293 292 279 273 263 256 261 224
130 118 120 123 122 103 130 139 149 137 135 133 122 159 156 198 166 132 152 149 160 139 203 126 159 420 185 251 431 475 381 341 316 312 312 305 307 306 311 284 289 284 263 269 261 262 247
140 130 124 125 125 126 115 120 136 142 135 135 193 163 176 164 140 118 167 144 138 143 178 119 128 428 459 168 448 438 362 335 329 324 321 304 302 307 312 273 317 297 273 258 264 260 259
191 131 124 129 130 121 143 124 138 157 137 131 149 182 148 142 164 136 133 137 144 162 191 115 126 141 432 404 413 419 340 346 316 326 309 304 296 302 320 295 270 282 291 269 260 267 256
114 124 127 120 119 138 113 135 134 156 136 152 150 164 149 135 133 151 137 134 131 143 160 168 191 126 137 144 426 322 344 341 323 307 303 298 287 295 298 324 262 273 287 300 288 261 262
131 191 124 120 126 128 144 135 136 135 129 144 187 132 124 170 161 158 105 118 147 140 151 144 223 122 130 135 136 285 311 314 306 303 296 294 289 293 307 299 268 265 282 295 290 297 276
126 155 117 126 133 127 145 131 121 140 198 135 130 141 114 161 174 147 137 139 143 135 162 138 141 366 345 154 125 131 143 318 308 299 300 292 287 288 289 299 280 274 260 273 276 280 272
151 126 160 131 129 132 181 142 133 147 127 141 126 118 145 124 168 133 136 117 134 134 133 130 152 171 320 351 337 156 138 207 319 315 301 288 295 299 296 243 303 267 265 285 268 289 269
191 116 234 135 130 159 132 141 143 140 138 151 123 120 141 132 156 153 160 139 135 127 123 131 164 258 352 299 332 340 195 236 183 300 302 300 244 289 298 302 297 279 272 232 251 253 261
231 217 196 153 128 126 216 145 224 134 141 135 133 131 103 130 147 162 132 158 117 132 159 149 131 200 364 262 336 183 306 324 288 330 257 288 287 306 277 284 292 316 300 259 253 261 262
235 186 132 132 125 136 159 135 162 143 149 209 146 137 168 146 165 152 169 130 125 117 114 123 147 184 339 356 343 333 315 302 308 275 306 291 282 290 273 290 275 294 293 293 291 264 275
229 221 128 141 129 134 169 132 139 213 132 145 149 139 135 148 152 156 157 138 171 119 123 160 151 151 163 367 297 218 336 313 306 281 215 239 274 285 279 273 282 278 283 279 284 271 273
243 233 197 122 141 134 140 224 137 197 136 146 189 174 160 192 160 158 161 148 127 130 128 127 160 205 123 253 355 332 319 210 286 268 285 277 265 286 276 270 261 272 256 266 260 274 277
195 200 215 159 228 131 151 160 143 141 135 119 126 169 145 157 143 153 165 140 133 142 112 154 125 149 130 114 254 347 328 310 337 320 306 295 279 290 269 277 268 264 288 284 262 262 263
204 203 206 135 238 144 173 153 213 132 121 138 136 136 141 160 141 157 166 127 141 137 133 157 136 160 155 326 313 263 340 116 304 331 330 319 318 282 278 264 279 269 267 261 263 253 262
235 200 186 203 148 183 140 143 145 138 117 138 171 142 153 154 158 161 165 161 127 120 122 137 159 159 153 172 273 347 180 332 275 303 223 313 139 307 304 300 295 278 268 264 265 261 276
147 157 189 230 196 146 135 200 142 143 131 127 214 156 155 155 155 157 149 164 151 127 117 108 148 150 117 163 157 409 367 348 326 315 302 291 222 283 314 314 313 307 305 311 308 297 286
206 198 167 218 135 153 127 204 196 145 131 155 135 141 146 155 149 164 166 136 152 134 128 115 120 134 172 151 159 161 372 349 349 326 314 302 293 279 275 279 269 275 283 281 285 281 274
205 202 211 193 183 213 141 169 132 112 127 151 191 143 146 159 223 161 160 126 150 118 132 120 121 145 175 155 147 106 191 233 299 347 325 314 189 293 279 275 270 265 265 262 264 255 255
200 205 206 146 252 238 160 222 140 199 154 132 232 153 139 153 186 158 147 154 158 129 141 131 162 125 123 165 170 212 172 286 347 354 333 327 312 303 291 284 277 274 267 263 261 255 256
122 208 206 209 238 216 234 102 210 197 175 213 132 138 144 151 142 161 134 164 140 102 102 132 152 159 136 175 138 99 238 274 283 379 348 227 318 270 302 293 274 271 271 266 265 259 254

GFSGBSN_2pvu_pres_072.txt.gz
Presure
153 135 120 114 114 110 110 108 112 114 109 118 115 146 148 131 157 114 162 240 180 124 130 164 176 134 240 425 544 443 428 393 450 424 373 348 357 347 337 304 292 266 289 207 188 211 167
132 134 172 109 116 106 114 115 111 112 113 139 173 147 138 141 173 197 134 165 150 135 125 205 170 132 425 421 481 465 427 408 405 437 362 343 339 347 341 293 285 264 267 284 222 212 125
136 129 128 137 112 118 108 111 109 111 110 112 152 152 149 126 110 186 221 149 148 134 128 139 145 133 199 152 422 502 432 408 405 420 356 331 341 342 323 303 288 274 270 285 248 226 198
140 169 130 149 158 118 109 115 110 105 107 120 145 147 119 152 153 156 189 99 143 150 159 149 143 136 427 144 416 478 458 400 395 376 348 326 331 339 324 293 281 269 263 264 251 244 208
121 135 126 119 128 112 117 116 106 107 137 128 145 126 149 144 178 190 202 132 144 138 161 161 162 134 141 413 260 447 507 401 390 367 370 320 328 336 328 289 283 264 278 261 255 249 242
122 121 124 126 127 122 118 120 106 127 111 137 152 139 149 169 141 190 129 165 145 150 144 160 155 286 400 405 267 458 386 388 377 367 375 315 321 321 313 305 286 258 272 197 254 250 245
121 123 121 125 127 116 122 125 122 128 143 138 145 140 120 217 126 188 222 148 134 134 161 149 159 138 149 432 179 526 375 360 361 380 329 299 317 378 320 287 157 254 256 256 281 298 246
124 123 124 123 127 123 117 100 123 138 137 149 136 138 139 139 101 203 218 134 147 135 151 155 144 434 143 448 415 495 379 361 356 400 334 301 313 346 356 286 284 270 273 266 265 261 248
111 118 152 125 125 127 126 130 134 115 135 150 175 141 128 146 197 168 162 143 140 149 148 149 149 158 151 141 248 372 396 370 352 370 314 301 301 317 351 288 297 287 283 261 284 267 257
132 116 127 127 133 128 126 131 101 132 109 134 150 140 130 135 164 172 149 133 136 135 140 142 154 291 322 133 142 381 380 377 345 338 314 301 308 352 329 338 277 280 280 269 273 274 260
236 138 144 132 124 199 123 127 130 130 135 133 141 148 158 128 166 184 193 146 132 145 158 157 147 308 159 134 149 147 346 375 331 327 317 306 318 316 320 336 291 277 280 256 258 264 263
189 184 181 132 134 164 133 133 122 135 124 136 141 128 147 200 169 143 189 143 164 148 137 163 139 205 159 417 130 142 149 352 331 319 315 313 311 310 314 289 318 287 273 270 264 265 274
246 129 208 183 132 228 136 127 129 134 141 134 142 147 133 124 148 177 180 149 136 146 150 140 139 151 164 346 381 131 149 164 329 330 325 329 304 301 299 281 276 310 290 275 275 272 268
188 200 277 131 135 120 140 105 124 128 137 150 142 150 130 130 164 167 165 148 138 140 135 123 167 172 364 143 329 119 136 346 243 317 327 307 297 293 297 283 333 268 286 304 276 270 274
183 183 232 164 145 134 173 124 137 155 139 128 148 144 137 145 132 146 168 111 138 133 121 133 138 203 377 349 341 322 349 317 321 267 321 298 294 289 286 292 289 298 278 276 307 278 273
170 187 191 269 150 130 157 132 133 158 142 158 150 155 155 139 140 161 179 123 147 185 139 144 143 144 294 160 309 335 319 320 306 278 279 298 291 292 288 289 301 294 285 285 300 304 297
199 192 263 264 223 195 132 141 135 138 146 139 139 133 129 162 150 151 141 213 140 139 121 136 136 133 136 264 341 330 324 304 324 315 304 303 294 290 291 296 281 308 293 241 270 271 277
369 182 235 207 254 124 131 132 139 138 141 149 141 153 159 143 142 181 146 157 167 165 129 135 141 130 155 152 352 276 327 293 296 321 307 155 291 297 302 290 306 299 311 260 254 265 276
185 188 217 245 207 203 176 128 148 141 141 147 142 126 129 140 172 161 213 169 178 142 134 138 146 150 150 367 363 286 332 324 305 305 275 302 304 314 288 294 294 293 292 300 274 267 263
174 196 217 229 205 203 201 132 133 137 184 148 137 140 134 152 165 158 154 195 166 120 139 134 118 143 133 166 299 317 240 327 324 294 304 283 287 289 277 282 295 303 300 294 258 282 277
169 189 202 253 204 224 215 126 132 221 138 131 194 157 131 128 145 167 148 170 179 160 144 151 122 135 132 144 205 139 350 116 262 281 265 290 266 263 278 282 272 282 299 294 297 282 287
190 244 225 181 231 211 227 159 139 140 148 151 195 120 118 144 156 119 137 160 165 156 150 136 137 157 197 123 112 159 367 345 332 325 326 287 274 291 279 297 296 306 273 272 284 274 280
176 212 198 237 206 228 230 218 142 146 176 147 187 147 113 145 193 141 189 163 166 156 144 106 151 176 110 124 117 169 248 281 244 329 325 327 308 305 286 284 270 260 277 266 266 265 263
187 238 206 205 206 206 217 235 236 146 186 138 168 123 135 154 187 152 211 162 221 152 166 120 142 128 125 128 153 174 162 237 252 341 327 349 333 318 297 280 276 275 280 276 270 291 268
181 200 203 195 211 230 229 225 249 173 195 142 207 128 134 128 189 142 159 165 220 164 166 166 129 159 136 106 129 125 289 121 373 138 157 131 335 342 332 330 312 276 265 272 274 266 256
205 102 183 217 207 202 134 233 237 218 214 141 150 129 201 158 205 152 155 173 131 156 168 114 128 124 142 103 158 145 172 189 176 282 273 334 325 313 301 311 309 315 302 296 295 297 292
212 181 222 192 201 205 167 229 229 201 202 195 202 132 150 144 177 157 152 134 190 150 161 130 133 159 125 121 126 125 144 226 147 305 289 256 315 329 315 305 295 271 278 299 307 299 286
194 194 208 202 202 210 211 218 215 192 171 121 122 176 185 154 158 188 152 159 208 153 158 163 150 118 156 124 172 162 104 185 166 229 270 276 356 347 331 318 301 287 279 273 268 261 263
214 179 226 191 216 214 210 243 132 192 203 121 206 150 218 139 146 223 124 169 202 120 148 171 131 117 107 167 170 100 100 161 193 166 252 281 286 376 345 325 306 300 290 279 276 267 261

GFSGBSN_2pvu_pres_075.txt.gz
Presure
127 179 189 129 126 169 124 124 121 111 116 108 112 109 112 120 174 123 161 129 146 139 137 136 167 164 150 131 169 346 462 157 432 421 425 394 351 355 345 331 311 298 296 286 162 246 240
154 192 145 198 131 173 207 115 122 117 122 109 111 109 112 118 127 128 139 235 111 180 157 172 167 162 173 132 374 442 463 345 414 401 424 406 347 346 351 355 310 293 287 273 286 257 244
124 163 167 145 201 139 137 180 114 123 112 109 110 107 116 147 137 142 203 146 171 222 148 165 159 144 153 158 423 430 473 408 401 399 417 394 333 344 342 380 302 276 290 271 269 244 253
124 125 182 127 193 205 141 131 174 123 123 104 111 105 103 131 153 148 153 133 136 178 200 171 148 154 150 161 425 425 192 413 385 404 398 379 325 338 332 384 292 277 275 276 274 268 244
203 125 149 170 194 140 138 136 155 140 117 104 104 165 147 142 150 146 168 134 142 170 171 155 156 124 148 140 342 143 424 427 387 407 407 373 326 321 331 373 295 277 291 267 258 273 250
213 197 123 125 122 128 181 134 130 127 126 120 104 147 148 160 139 150 133 149 130 185 170 162 132 145 163 133 277 428 151 431 391 396 395 357 319 312 325 363 307 281 264 266 265 272 255
119 112 152 125 131 126 128 134 132 136 122 130 111 136 131 146 207 147 144 126 227 229 167 153 139 147 146 143 148 513 147 370 364 376 380 347 321 299 323 362 298 259 276 264 262 247 267
202 190 175 121 113 132 130 133 134 129 118 134 135 131 144 137 137 136 202 173 221 181 157 181 129 159 129 160 133 489 159 359 357 397 368 332 314 322 311 338 275 266 255 260 259 269 248
280 222 216 121 123 126 133 132 131 132 135 134 103 127 118 137 150 125 185 183 150 221 147 154 160 150 151 159 188 411 369 170 364 378 358 311 306 319 321 310 275 264 253 259 256 265 257
237 225 169 268 123 129 128 123 135 133 137 133 99 133 133 153 137 139 170 225 145 196 246 134 144 144 147 157 393 385 377 338 362 358 324 310 304 319 312 301 281 276 267 258 278 260 266
256 264 241 235 224 150 125 130 130 125 137 129 132 137 143 139 157 151 157 171 169 138 151 158 141 155 140 415 398 366 126 346 322 358 315 306 310 319 310 286 283 255 254 276 256 279 278
233 228 253 223 240 238 176 171 139 135 133 136 97 137 127 127 131 148 140 125 214 208 156 145 138 148 130 144 192 383 375 349 327 323 306 337 306 311 295 329 269 287 277 267 264 263 264
277 217 245 247 279 207 182 259 127 136 130 133 126 141 134 130 132 134 128 173 150 174 149 141 140 138 150 137 145 392 346 332 334 323 332 309 314 310 314 334 297 274 263 257 256 284 271
248 239 244 270 174 266 264 236 259 132 125 142 141 138 120 134 142 161 125 163 174 221 149 150 145 154 154 153 324 285 374 336 327 328 322 325 320 292 326 347 291 288 274 276 286 276 278
230 250 234 520 241 262 206 211 219 131 135 137 134 125 123 156 156 159 170 122 162 166 152 215 146 153 145 141 163 353 346 365 353 337 330 312 312 293 288 315 290 283 294 280 274 280 280
491 253 246 292 247 256 273 240 188 202 135 135 143 136 143 153 146 143 151 139 177 210 216 143 149 151 141 262 149 346 324 329 318 330 321 252 294 297 301 294 304 281 336 281 271 264 282
286 250 391 254 241 350 225 243 200 243 148 190 143 141 143 134 159 148 160 166 150 197 134 152 148 144 139 140 146 339 317 336 315 306 319 297 301 297 299 292 292 298 281 279 281 282 300
255 302 257 277 160 256 276 191 191 218 141 138 122 140 196 133 139 164 145 140 163 153 177 150 151 139 177 178 295 203 333 315 326 317 309 193 305 296 295 299 297 300 309 260 226 265 278
268 298 391 330 182 315 214 249 202 209 201 209 135 131 153 133 148 150 145 138 223 226 218 152 129 134 147 145 320 193 350 335 318 319 127 301 297 297 292 294 300 309 310 301 356 291 266
490 487 412 263 266 257 195 185 203 207 172 143 193 139 145 156 190 150 128 160 192 186 223 153 137 143 140 124 147 135 252 350 331 312 305 295 295 301 301 297 297 291 306 315 319 330 326
342 319 261 246 259 254 189 200 206 217 175 210 229 131 141 153 136 140 135 145 143 172 172 214 147 145 131 122 146 147 144 320 247 332 306 289 298 308 316 317 294 309 288 290 288 298 296
288 276 265 270 258 186 183 199 214 202 182 140 111 196 151 136 121 133 149 214 133 198 215 143 146 122 138 113 116 120 135 294 236 184 123 312 304 296 284 289 295 293 288 313 283 285 281
286 260 269 264 257 192 206 203 206 236 122 218 135 132 139 153 127 130 157 134 213 166 186 155 161 133 147 144 142 127 204 174 155 104 279 350 320 306 289 281 283 286 287 287 306 289 305
326 276 266 268 253 167 205 210 161 215 199 127 229 154 148 137 133 141 148 149 183 138 165 205 153 125 153 142 121 143 115 158 170 199 159 266 249 346 309 215 286 286 291 310 289 275 283
270 276 279 255 136 206 227 203 198 205 176 217 230 201 139 213 139 126 159 166 157 132 145 200 203 160 139 143 133 136 118 140 116 262 318 218 353 310 351 336 313 291 274 281 290 282 273
279 268 260 240 207 209 191 218 188 202 226 233 223 211 140 209 124 142 152 143 204 150 211 205 144 198 171 151 135 130 119 137 147 160 155 269 123 296 337 328 346 344 323 303 276 269 267
275 244 256 230 182 209 203 193 231 220 177 230 222 180 183 135 133 153 145 195 141 181 209 133 146 198 143 122 131 151 128 156 143 124 178 255 158 277 339 354 267 313 303 319 311 314 311
260 253 208 223 183 198 205 150 197 223 235 235 225 223 203 127 180 206 141 149 200 162 159 124 153 159 143 164 180 148 123 180 112 134 134 224 147 176 120 268 304 311 251 316 302 296 291
265 252 209 224 183 181 185 208 203 214 234 233 227 136 149 119 149 202 127 217 150 146 156 119 199 196 160 137 130 134 113 163 143 137 155 122 240 241 244 230 207 289 285 260 331 309 295

GFSGBSN_2pvu_pres_078.txt.gz
Presure
214 182 177 190 193 124 177 209 175 139 134 156 124 122 114 108 114 119 118 142 150 137 120 151 159 181 156 157 171 139 176 383 446 430 401 396 396 407 359 357 346 356 294 315 289 277 251
175 156 185 189 121 156 175 158 207 131 165 158 128 128 112 117 114 119 141 169 123 149 84 112 163 183 113 142 147 154 153 171 438 411 389 375 395 417 347 352 342 305 284 319 289 272 194
161 173 169 147 196 127 137 190 147 161 143 145 120 139 113 114 115 135 170 136 142 135 168 153 184 188 174 169 132 141 164 443 434 349 390 381 404 373 323 344 337 314 301 298 282 278 265
161 163 198 193 181 189 130 183 144 145 162 144 149 167 110 116 129 154 172 133 136 136 131 225 244 138 176 168 170 146 134 439 433 330 403 383 378 364 314 340 332 294 275 301 289 282 263
214 214 216 195 152 176 176 131 224 141 189 149 143 131 104 146 121 159 150 126 134 143 188 180 186 169 171 139 158 162 139 444 416 360 405 385 371 353 310 335 327 319 289 295 275 257 324
212 214 210 175 212 119 157 139 135 137 140 206 153 140 136 114 132 142 147 164 149 154 248 166 158 167 152 142 158 164 347 436 410 322 408 372 358 355 319 334 313 304 301 290 277 267 250
241 283 230 183 172 164 145 176 127 155 138 136 146 138 104 140 130 140 137 135 119 158 143 242 152 166 172 119 150 127 169 406 259 375 396 362 352 311 311 340 300 277 299 288 274 269 246
248 255 264 256 168 251 183 227 166 129 134 134 132 141 134 138 125 120 138 161 159 149 130 158 179 167 150 142 150 155 127 395 141 404 365 350 341 306 323 322 294 279 287 296 269 280 258
360 241 245 243 238 202 266 216 185 124 121 128 133 131 136 121 125 121 151 148 153 182 220 161 163 161 144 138 127 165 376 386 264 359 345 332 318 298 321 347 288 271 274 265 265 258 260
213 303 330 330 241 244 175 221 242 192 123 126 130 132 134 132 133 134 140 161 141 151 204 167 177 169 130 157 194 150 384 385 369 347 344 329 303 326 322 361 289 272 265 255 275 259 251
253 239 263 295 228 252 272 243 253 265 183 129 118 125 136 139 145 137 139 160 134 135 168 171 169 157 135 148 145 276 362 390 344 334 325 319 315 309 325 360 303 269 252 263 270 264 275
254 288 263 268 243 234 230 243 267 240 246 217 132 134 131 114 142 138 146 118 130 158 181 213 168 134 184 246 148 159 383 351 333 326 314 302 319 304 308 317 316 261 262 255 257 248 260
318 327 310 249 284 239 288 248 251 255 227 151 242 132 131 122 139 167 133 123 156 135 202 236 151 160 148 150 139 291 353 345 329 312 318 309 309 299 307 334 324 274 259 254 256 263 251
373 422 266 251 381 367 238 264 270 260 231 181 267 138 139 137 136 175 159 145 156 135 223 175 181 153 146 131 145 340 342 326 322 317 344 320 308 320 296 344 318 248 257 268 259 261 256
408 411 420 315 452 159 261 264 253 241 206 236 264 178 136 127 136 151 135 118 145 122 146 140 165 166 156 148 159 371 350 340 333 316 315 353 308 312 291 315 300 261 259 273 283 261 278
402 423 452 569 419 510 391 294 241 238 237 185 256 198 135 142 140 149 138 148 141 144 215 141 158 152 161 163 141 271 153 337 336 328 323 321 286 297 306 303 286 271 253 260 265 277 270
390 503 545 284 499 529 413 400 248 269 252 219 246 229 135 141 145 151 143 111 145 177 222 209 168 149 168 144 191 141 142 334 328 331 319 333 319 308 300 309 311 290 277 256 268 255 273
449 501 561 533 470 370 381 274 252 242 278 276 189 178 158 150 215 138 140 155 159 153 207 167 175 159 114 132 153 123 131 303 327 322 323 317 318 314 299 292 312 338 294 282 272 265 279
472 506 564 469 449 268 243 280 256 290 282 193 226 199 129 132 196 145 136 124 121 180 234 215 156 151 157 109 125 136 130 167 331 314 314 310 291 307 309 303 295 303 336 285 281 281 279
474 522 553 491 269 279 285 241 278 290 249 243 190 215 167 146 140 162 134 132 132 174 224 192 157 168 167 151 153 131 349 133 279 118 320 304 314 313 310 307 308 303 295 303 309 287 269
482 524 544 257 430 262 302 244 274 271 241 220 182 124 162 154 133 133 137 137 125 200 174 172 164 187 180 137 147 133 139 223 130 331 326 209 252 319 309 311 310 311 298 297 300 296 294
498 540 544 255 270 233 259 271 279 198 176 179 222 159 136 222 136 182 133 213 205 131 224 169 160 151 170 147 116 112 131 142 129 190 352 326 115 158 122 307 324 316 300 304 297 321 311
523 561 305 255 267 275 251 255 243 218 219 213 190 196 143 137 133 140 129 149 196 141 204 228 202 162 182 153 116 105 164 112 122 134 299 215 266 162 314 317 310 305 304 310 310 315 297
541 545 275 266 265 268 269 277 241 228 204 222 221 213 139 139 151 141 127 208 157 166 155 184 160 181 176 200 147 156 142 158 117 124 150 145 149 322 240 325 316 318 301 307 302 301 297
556 388 289 275 283 276 271 253 237 231 139 180 234 228 186 223 149 171 133 144 191 156 152 134 169 166 162 153 142 191 196 116 129 111 175 153 165 160 159 260 364 308 332 317 309 301 285
332 268 263 274 249 259 255 238 226 177 178 186 128 191 191 137 208 143 143 152 194 181 149 138 148 206 202 166 137 147 129 140 123 166 100 128 120 141 132 264 246 275 294 307 334 315 308
293 259 258 262 238 234 243 241 209 167 181 218 177 225 230 140 217 142 148 189 145 137 148 149 182 141 152 192 189 148 128 143 137 197 165 164 103 127 265 130 245 216 235 296 280 306 348
276 266 260 276 268 173 248 220 210 188 203 218 233 191 234 213 171 161 132 170 191 136 141 134 209 205 165 104 167 183 161 133 142 128 159 105 165 117 203 122 111 196 155 178 255 278 275
259 269 265 266 255 244 243 186 188 208 201 196 228 234 233 211 143 133 209 171 132 140 146 140 173 205 133 122 168 166 190 154 162 117 157 108 135 181 242 199 150 141 161 247 237 190 267

GFSGBSN_2pvu_pres_081.txt.gz
Presure
191 192 170 191 155 176 156 198 132 156 137 205 160 134 142 142 126 106 114 117 119 127 124 149 199 137 134 175 200 165 128 195 145 172 131 422 224 453 448 383 367 355 371 304 281 289 294
210 188 185 161 185 153 173 124 158 135 129 183 151 219 157 145 151 122 113 113 122 128 146 138 137 125 159 179 207 183 135 141 159 159 238 331 231 412 434 372 361 353 357 297 283 298 299
204 204 208 207 198 168 168 146 132 134 212 129 217 144 206 148 146 113 108 185 119 146 140 124 134 136 149 207 193 144 193 153 174 171 135 329 291 457 391 365 350 335 340 291 280 300 284
247 246 168 223 215 172 167 212 213 150 178 190 133 136 229 144 151 112 139 121 130 143 143 136 139 195 152 180 134 140 147 144 178 374 398 192 272 396 363 353 334 378 314 293 271 292 300
227 228 290 266 274 225 193 229 223 222 149 183 203 196 153 142 150 153 135 123 130 131 140 140 157 152 172 178 146 185 142 128 160 377 377 376 313 374 384 350 329 346 313 291 285 274 295
227 254 279 241 225 315 273 243 239 238 203 143 218 138 196 141 213 152 126 121 144 127 128 153 131 185 218 131 180 169 153 134 124 284 137 366 387 344 349 347 308 327 274 263 286 298 295
182 249 294 228 235 237 223 296 349 268 256 254 131 203 135 143 149 142 141 126 121 127 122 136 122 139 165 181 132 180 150 168 416 423 380 376 369 340 361 321 324 291 275 267 283 262 271
263 251 239 263 273 220 269 328 238 221 198 243 222 170 145 138 139 143 139 137 125 133 148 144 143 164 151 127 145 196 173 181 407 410 378 347 350 352 353 324 297 292 292 289 292 288 233
288 278 267 294 271 237 259 338 247 249 236 256 134 248 127 142 131 136 131 128 131 133 146 126 130 168 192 174 134 146 160 421 407 401 358 344 348 345 324 322 291 282 302 265 253 255 254
272 252 262 272 304 206 196 265 352 283 216 156 258 289 126 127 133 136 111 139 122 162 146 148 145 162 136 177 132 298 184 441 400 355 325 323 331 303 310 309 302 284 279 266 259 258 248
266 247 290 286 214 234 360 261 213 227 284 243 242 211 211 126 123 134 127 146 130 225 135 139 147 253 183 167 131 331 361 374 341 321 321 304 322 330 325 310 294 290 285 281 279 254 267
262 263 288 333 373 341 352 321 279 366 278 230 246 260 241 134 128 132 134 133 130 149 129 241 140 140 166 134 258 166 163 355 328 312 321 318 301 306 312 318 306 285 268 265 272 260 260
269 296 311 376 383 404 417 277 222 311 319 254 254 255 240 237 186 127 130 129 198 138 132 159 142 141 166 171 176 156 152 340 316 319 317 320 332 303 320 296 296 303 307 267 255 267 268
237 304 366 382 383 407 420 382 278 226 180 258 233 252 252 244 198 123 138 138 148 136 143 225 141 175 178 152 302 139 162 339 322 311 316 325 313 289 328 288 277 256 260 270 285 272 269
306 337 390 409 395 474 527 572 323 261 356 352 234 229 244 192 128 134 142 160 148 141 213 144 139 165 158 168 157 131 152 328 247 320 320 317 341 286 315 284 276 256 263 262 265 272 274
324 403 408 394 460 499 571 542 371 248 439 323 255 258 159 248 230 140 129 164 145 142 160 148 164 179 168 136 154 139 133 341 331 319 343 313 309 310 319 284 274 267 256 257 253 254 258
366 409 395 445 469 541 530 472 331 324 396 274 180 274 166 239 167 126 142 175 136 147 137 132 222 155 163 128 159 129 139 156 322 323 324 317 323 309 317 327 282 251 269 269 269 277 269
421 393 438 461 507 535 501 450 279 356 303 230 240 264 206 252 144 126 158 148 136 155 146 126 156 137 179 173 156 149 157 133 246 332 341 322 313 301 297 302 325 279 270 259 277 262 267
406 427 455 470 511 526 458 417 236 303 265 277 274 142 259 224 136 201 154 131 137 146 136 171 221 162 179 152 169 119 126 130 317 259 335 333 333 317 310 298 298 331 294 281 273 290 262
406 462 465 491 508 491 393 357 482 256 234 255 255 252 136 132 177 140 229 134 142 144 133 127 187 156 188 141 116 135 128 157 131 130 230 227 327 320 323 317 326 312 325 279 281 278 269
452 470 489 517 523 528 290 410 274 250 250 244 232 236 241 215 138 148 150 136 207 141 132 139 167 184 152 165 167 148 166 162 117 178 117 187 200 303 326 317 314 304 322 302 309 273 305
474 494 507 544 301 372 470 290 271 267 244 230 266 237 204 198 155 145 138 147 152 132 130 155 186 193 215 202 199 102 166 141 134 131 112 188 334 140 340 133 140 329 323 317 333 312 265
497 524 526 530 463 272 283 250 281 254 263 264 244 146 202 126 162 143 137 140 161 133 110 143 222 153 145 205 154 168 112 118 102 166 188 112 130 301 282 114 279 191 188 354 338 332 308
542 519 559 502 269 251 230 300 264 259 263 232 246 151 161 165 232 226 171 142 126 166 158 148 192 170 150 206 189 172 180 116 108 116 194 100 172 149 249 103 277 215 136 199 322 333 332
547 546 501 251 251 247 265 249 246 176 247 183 238 161 188 215 156 213 136 143 127 141 166 171 143 164 129 213 188 173 207 152 178 108 140 122 101 113 131 236 193 247 140 277 214 278 294
561 554 298 249 218 281 263 260 254 237 252 186 227 219 174 223 148 141 145 141 136 148 161 154 216 215 200 203 159 144 141 157 162 118 135 162 118 98 144 244 119 162 139 141 126 162 127
560 331 294 261 263 239 227 267 222 262 216 233 169 211 225 233 137 189 144 136 145 147 194 144 134 175 191 202 174 127 174 167 183 148 151 183 120 108 143 196 131 214 133 197 122 231 182
329 308 298 265 243 230 246 251 250 223 241 189 223 162 139 232 138 213 156 134 165 188 144 143 141 167 198 205 175 153 162 174 183 176 148 175 122 174 170 135 187 137 231 168 165 200 168
309 295 280 262 247 243 235 234 244 184 219 235 238 210 131 143 197 173 144 147 207 164 140 137 139 149 195 204 200 136 193 186 174 160 147 191 129 116 148 148 126 159 246 228 224 242 249

GFSGBSN_2pvu_pres_084.txt.gz
Presure
229 240 148 226 216 216 220 218 162 201 180 128 221 141 205 192 216 156 145 205 105 140 121 123 122 139 134 123 143 149 150 161 191 196 156 147 142 145 152 175 475 419 428 355 316 308 272
265 220 260 176 232 272 252 276 349 229 201 221 123 165 139 138 145 156 205 181 171 118 117 120 150 150 141 130 134 159 146 160 195 138 133 140 143 163 158 142 133 410 244 283 205 298 200
259 199 248 269 138 244 252 231 270 245 340 263 242 217 168 195 137 148 213 211 170 134 151 127 140 103 143 158 124 161 168 189 133 135 189 163 176 154 416 134 420 161 345 304 315 304 286
163 228 243 174 171 250 244 269 257 355 312 272 333 167 220 144 231 145 150 220 163 117 121 128 134 141 129 148 151 154 162 136 135 133 136 151 132 320 392 411 142 338 302 297 310 299 298
202 177 210 241 247 253 237 216 224 248 302 213 350 192 262 208 144 238 147 156 109 164 121 128 120 140 132 135 161 141 165 175 163 187 160 266 308 382 264 136 393 353 307 308 284 275 285
238 230 243 243 254 184 242 252 296 295 287 230 253 179 268 147 154 227 142 247 169 183 122 127 136 124 153 142 144 165 196 148 136 139 179 397 399 372 368 382 375 309 289 279 276 281 262
221 172 243 255 245 253 250 254 282 274 299 208 297 248 228 253 281 269 140 149 251 128 128 127 129 141 159 134 151 192 175 134 143 338 386 344 350 325 342 363 355 295 289 281 273 271 264
228 235 222 246 240 251 250 295 307 323 368 333 237 231 276 252 143 151 172 183 129 134 131 127 135 142 129 149 201 173 154 150 168 384 392 353 337 336 340 358 340 299 279 270 272 289 287
234 236 251 243 270 264 278 305 296 349 339 364 309 237 290 293 325 256 143 142 134 126 136 125 139 230 144 153 167 179 156 143 205 394 378 345 347 351 376 339 334 285 283 276 275 269 275
229 238 242 243 258 271 299 328 340 384 278 358 332 199 322 313 133 126 251 138 116 125 134 139 131 141 148 175 161 148 174 133 413 386 370 341 350 366 335 330 338 285 282 277 271 275 291
240 232 235 259 261 295 327 414 399 387 373 363 252 285 319 326 162 247 136 145 125 145 134 143 142 123 250 164 141 159 166 161 347 357 353 349 330 310 310 319 291 291 283 281 270 289 256
231 241 251 266 303 333 418 415 397 398 385 384 359 328 237 326 234 210 159 139 122 139 232 121 198 140 218 160 166 161 158 197 323 325 332 315 337 288 290 302 295 278 291 276 279 276 279
240 252 276 282 308 403 409 393 390 403 403 330 388 214 306 315 252 181 122 140 114 134 141 142 155 151 158 162 125 141 159 158 316 332 323 340 328 309 297 296 289 279 269 258 270 252 273
242 244 277 279 362 408 404 449 454 480 513 276 397 326 352 255 261 140 128 144 136 134 136 201 146 150 137 177 141 126 156 156 245 333 308 320 275 308 318 304 294 280 268 259 272 279 263
257 284 289 326 353 426 448 467 517 567 566 522 419 350 261 145 228 157 255 135 154 145 133 154 151 224 167 167 132 135 161 163 320 336 330 311 306 316 304 295 301 286 298 273 266 249 251
274 308 285 392 425 453 465 505 540 463 452 476 438 290 268 255 133 250 250 245 133 147 151 149 137 163 183 172 130 161 144 159 286 236 306 316 322 304 317 317 290 259 280 256 265 260 256
268 306 364 403 458 466 493 522 449 438 343 440 375 267 261 246 182 255 199 133 134 139 145 152 165 194 154 171 182 131 142 152 258 210 150 303 298 307 319 317 299 300 285 287 272 273 277
297 306 356 454 470 488 505 430 440 435 439 260 312 264 257 227 263 255 160 141 200 147 220 144 168 153 165 172 121 155 172 129 152 268 170 329 242 289 311 303 287 286 274 264 278 261 266
321 346 422 468 493 491 471 390 439 334 337 369 260 291 276 161 183 244 136 134 142 152 139 159 160 172 177 189 132 119 154 129 128 134 182 179 307 175 295 295 293 275 299 300 284 284 284
332 430 466 504 498 479 468 430 444 450 384 267 277 200 243 223 257 241 140 206 169 142 141 156 134 161 165 160 175 131 124 147 143 133 175 256 281 130 218 250 243 290 291 295 284 265 285
399 438 476 521 502 503 277 436 385 372 283 254 264 256 245 253 220 140 160 151 145 148 145 227 143 156 177 195 194 126 120 147 150 157 140 239 134 332 113 136 279 138 140 290 140 296 290
424 469 490 516 537 348 456 253 405 270 254 266 234 266 198 241 125 130 237 153 224 140 163 223 140 197 179 175 166 180 154 124 141 109 239 122 112 130 147 345 118 106 138 306 121 289 296
440 494 526 541 313 400 433 329 270 257 245 270 247 238 254 177 129 132 146 147 154 156 153 147 153 209 171 133 180 159 174 177 155 143 130 101 134 113 108 136 125 344 356 122 191 289 342
475 509 427 457 495 364 284 266 277 237 224 266 254 260 232 187 177 135 221 189 143 146 188 221 178 201 158 221 173 201 157 165 151 119 146 104 124 124 156 119 117 141 167 215 184 137 165
493 559 290 517 230 270 266 274 248 223 238 261 228 250 167 218 136 136 207 149 141 141 131 176 159 153 219 159 206 205 189 188 152 150 171 111 209 101 122 168 123 120 168 216 162 141 239
525 596 414 294 272 252 268 241 250 251 263 244 259 222 144 233 156 128 218 140 151 161 139 143 166 146 143 208 146 182 155 122 211 191 187 174 182 169 110 98 93 178 116 92 169 192 167
552 604 451 217 239 273 273 253 258 237 238 188 183 204 237 185 139 220 179 186 139 148 142 221 156 186 149 184 202 168 150 149 138 149 197 179 194 147 152 163 150 138 150 103 165 222 96
594 531 313 236 239 258 260 252 254 240 166 254 233 238 176 127 137 194 140 150 144 143 185 131 173 164 145 204 204 154 197 201 147 186 141 187 173 175 146 155 152 169 158 158 146 215 235
635 332 242 277 229 262 261 243 226 255 243 238 190 192 218 226 158 188 209 143 143 175 134 134 143 145 135 144 151 204 198 201 176 172 161 196 174 178 165 182 133 130 161 113 127 152 135

GFSGBSN_2pvu_pres_087.txt.gz
Presure
217 219 220 243 240 238 216 255 196 219 198 203 241 164 305 336 136 279 252 152 162 151 127 108 118 121 118 127 128 140 149 103 160 153 150 99 219 310 186 150 148 144 159 155 156 155 158
219 196 240 245 229 254 215 179 247 222 249 210 228 270 228 278 368 209 136 152 149 233 234 118 118 121 124 147 128 164 146 153 149 157 168 173 193 174 150 144 155 145 149 149 142 148 101
216 223 165 240 177 242 246 254 262 247 218 252 204 257 315 364 355 303 323 141 156 149 153 156 114 118 130 128 141 240 111 122 110 143 174 172 148 144 187 147 149 133 152 152 390 152 173
164 175 179 170 168 246 212 239 235 252 274 286 282 227 290 306 285 329 221 319 319 216 146 158 117 121 132 136 139 142 135 158 153 169 172 257 137 135 147 153 147 422 336 382 381 347 336
192 223 204 227 243 236 248 230 252 249 259 204 212 268 292 281 349 302 296 145 319 141 243 155 116 125 130 139 184 130 159 142 164 171 216 164 143 142 151 315 385 373 383 366 334 331 148
204 220 201 216 218 243 256 233 251 262 263 236 300 342 306 367 212 306 275 270 281 215 274 192 118 130 133 164 132 118 143 150 172 191 164 146 140 140 317 400 402 392 353 325 313 324 151
214 204 230 237 235 260 259 256 283 246 278 301 286 338 368 280 266 296 296 256 254 250 261 149 150 135 283 143 121 149 143 168 199 201 162 138 378 380 376 385 366 346 334 293 293 312 298
216 211 227 236 240 267 271 265 270 305 305 286 349 387 270 363 348 327 292 178 283 224 177 151 128 136 152 130 139 143 161 168 199 154 137 235 363 372 386 323 312 323 325 304 287 292 299
221 218 228 239 249 258 277 271 304 301 301 358 387 359 376 363 346 323 247 258 149 195 278 208 134 196 143 140 154 157 172 196 166 161 254 353 359 376 352 327 316 298 289 281 289 296 288
226 236 240 243 254 242 283 298 302 314 345 406 412 400 376 366 345 297 223 143 264 248 153 132 190 172 125 153 145 231 179 146 141 166 353 348 365 353 319 300 295 285 275 274 290 277 266
240 246 241 250 256 298 308 310 334 384 400 398 409 409 381 368 348 279 267 279 251 201 141 141 135 145 147 149 160 170 144 155 162 342 348 343 345 363 316 302 279 274 282 271 273 268 266
246 254 256 253 283 324 327 385 407 444 437 423 411 412 387 375 355 330 174 281 224 181 141 145 157 145 132 154 206 194 153 171 161 337 339 337 373 374 312 288 276 285 273 279 264 264 259
241 264 264 278 323 338 386 419 457 458 457 459 437 404 401 277 267 311 162 256 145 207 150 157 132 148 158 151 191 130 180 162 153 332 326 317 335 337 301 284 275 273 267 259 261 253 281
253 253 276 317 333 357 414 454 466 475 485 556 594 455 328 376 264 277 226 250 139 200 168 148 126 122 150 170 172 136 148 164 159 280 322 297 342 336 307 293 282 282 275 271 279 284 278
265 267 287 324 343 408 448 470 473 485 463 459 490 544 326 268 289 199 170 146 146 135 146 144 135 159 162 196 181 159 160 161 146 150 320 298 318 333 332 283 283 288 279 269 294 268 263
273 283 325 342 414 442 477 483 475 445 444 445 461 536 259 253 227 234 252 269 154 243 130 128 151 151 169 189 172 135 149 157 164 195 256 253 288 327 331 297 290 306 283 269 273 262 270
276 315 330 397 427 465 503 480 442 437 440 443 459 458 299 275 265 246 174 140 240 175 140 154 157 163 180 174 138 162 144 156 151 160 323 212 289 309 328 300 300 267 281 289 273 286 270
293 314 347 416 459 494 488 487 436 435 440 446 471 299 287 269 270 251 256 150 243 188 145 154 139 207 162 176 149 132 140 138 141 255 166 324 303 294 316 295 297 295 280 273 273 259 265
292 349 409 444 481 507 498 450 437 236 446 310 290 280 262 265 257 246 164 244 215 143 145 159 167 145 194 193 154 164 155 129 139 148 133 290 135 299 311 141 300 271 272 270 290 257 245
310 357 439 474 504 502 514 457 441 382 303 287 269 263 253 234 237 255 241 246 176 147 155 146 155 148 152 193 174 130 160 158 137 148 152 143 138 149 152 203 146 132 141 278 282 272 253
314 397 468 509 529 508 524 463 445 300 285 276 259 222 237 229 259 241 234 150 145 157 157 152 146 145 150 191 171 155 130 187 138 250 129 138 135 136 95 120 145 109 115 126 158 171 274
377 465 504 573 522 315 271 274 284 276 237 251 262 226 251 264 240 233 215 144 144 229 151 149 153 156 158 186 183 182 135 94 117 139 144 136 120 110 261 108 103 126 152 295 290 285 137
399 499 453 551 505 283 384 308 290 264 258 255 242 223 256 211 234 239 146 140 142 154 157 142 183 163 183 142 166 178 151 169 124 155 149 176 106 105 134 105 123 128 145 205 279 252 280
493 544 606 453 254 280 289 293 267 267 246 247 260 247 249 139 242 147 129 127 173 195 153 221 181 183 154 194 147 170 161 162 154 162 179 168 115 109 192 155 206 178 189 182 146 238 116
520 615 497 528 258 286 301 282 235 235 257 229 248 257 239 234 239 143 169 131 146 201 150 139 148 159 194 168 175 172 182 187 174 191 144 155 184 164 113 124 136 123 132 176 131 106 170
545 632 244 511 274 298 254 263 258 245 222 233 248 221 240 233 131 182 142 140 147 218 140 157 139 149 205 161 152 163 205 204 193 197 135 176 139 185 176 162 106 141 111 195 96 143 136
574 654 274 259 240 251 255 232 236 232 263 253 244 246 190 222 197 124 134 183 138 146 147 142 133 201 150 143 149 173 164 164 204 202 149 163 186 206 190 181 171 157 158 134 124 199 212
572 648 303 220 271 282 274 242 241 244 227 236 244 223 227 232 224 127 136 142 137 147 142 172 137 136 182 146 141 181 167 184 196 197 196 183 145 176 191 173 178 169 128 190 127 162 154
338 328 261 211 187 241 267 221 234 213 251 244 234 181 183 194 215 144 132 144 219 135 160 174 140 178 149 137 141 149 154 149 202 193 192 143 161 174 113 165 137 160 155 146 112 161 138

GFSGBSN_2pvu_pres_090.txt.gz
Presure
208 204 216 188 187 158 220 204 228 208 238 265 258 242 251 234 272 272 276 264 247 261 160 269 130 165 128 117 117 130 123 128 134 137 136 106 132 141 131 131 162 119 177 220 255 165 143
207 141 204 222 226 147 219 205 227 244 240 245 256 251 249 248 233 219 262 297 259 349 252 128 251 149 192 111 110 118 120 133 137 138 183 205 149 150 151 169 142 175 190 267 230 162 154
183 184 169 195 224 226 222 225 239 235 242 250 256 267 230 255 253 250 279 281 252 325 185 165 330 148 130 248 123 118 132 135 130 236 140 134 154 141 279 166 168 198 210 211 155 145 142
191 211 216 220 248 211 196 187 235 237 241 243 245 263 254 231 218 123 225 250 296 149 353 293 278 295 156 151 119 206 130 127 169 156 120 121 139 126 168 204 257 209 145 158 160 144 126
211 192 218 224 246 238 233 238 248 247 247 247 263 274 255 294 263 302 257 308 360 363 330 333 275 302 136 146 121 158 136 142 150 131 162 140 162 173 194 219 162 151 140 138 139 244 149
193 195 207 205 252 244 232 239 246 253 263 270 276 297 301 298 304 309 329 242 323 353 317 312 325 147 154 244 125 134 289 149 136 165 142 161 182 238 175 148 140 140 145 146 148 149 320
194 190 224 242 253 247 249 262 264 262 303 315 316 337 334 318 309 335 366 362 350 351 293 309 148 319 301 157 148 121 141 157 134 131 168 173 216 174 193 135 143 148 370 380 380 361 335
189 202 197 215 256 265 261 268 280 314 334 313 345 354 360 388 377 343 379 355 348 338 306 151 280 272 212 148 166 148 150 130 138 160 235 171 158 151 388 206 379 359 364 378 343 319 305
199 237 269 263 270 261 267 280 331 335 339 390 395 382 387 382 381 386 376 354 349 267 147 291 272 200 153 215 135 147 143 136 158 246 151 149 271 156 350 357 374 360 351 337 312 297 290
224 204 236 262 265 275 277 329 335 393 393 393 401 406 410 409 395 387 363 346 301 325 288 206 234 255 145 134 142 132 143 159 234 154 147 147 230 342 351 383 327 324 330 308 302 285 277
223 233 249 277 276 285 334 345 401 413 434 444 457 456 436 406 393 379 360 342 290 248 279 251 162 117 159 133 143 128 237 228 167 144 183 350 351 343 357 345 318 292 309 288 287 274 271
211 255 282 277 295 333 366 405 417 447 467 456 463 463 448 404 405 372 333 305 294 193 269 268 227 148 144 182 129 158 147 185 152 137 249 347 316 315 349 312 294 282 286 274 280 277 274
227 292 289 301 331 383 402 420 460 479 453 455 453 486 471 402 389 367 264 179 281 170 263 266 155 125 151 140 153 151 197 141 172 170 340 379 310 296 298 302 293 285 280 269 275 275 263
233 302 301 306 375 405 421 446 488 457 452 441 439 460 521 409 392 145 131 286 245 192 158 165 139 150 145 157 166 179 171 130 135 185 332 336 311 295 280 284 262 298 295 284 279 276 253
227 285 299 353 408 429 444 492 464 457 444 397 438 459 460 302 277 293 262 265 224 265 151 150 140 131 159 166 200 190 161 127 155 263 334 315 288 295 292 273 282 273 295 283 284 278 267
254 292 311 403 438 452 479 484 471 436 439 436 450 438 386 232 294 282 254 144 260 157 149 142 152 152 150 169 188 173 155 167 157 153 334 347 289 290 283 293 276 281 258 266 271 278 281
235 314 324 444 465 488 515 486 439 448 433 430 452 291 269 293 280 247 266 129 184 145 140 147 134 150 164 199 250 188 131 130 169 160 155 320 175 272 285 281 290 277 270 270 270 260 256
292 325 386 474 501 543 498 494 450 443 423 297 287 293 286 247 264 264 253 148 154 133 145 132 156 158 152 186 191 146 112 142 171 162 148 182 147 279 157 292 274 275 279 278 257 266 270
310 332 481 509 564 521 520 463 460 311 300 280 295 272 268 260 256 247 247 165 136 305 136 151 144 182 189 205 172 184 137 133 148 158 127 152 119 201 145 147 268 187 281 277 273 285 266
334 342 518 573 552 425 392 414 300 291 291 289 269 264 261 254 251 248 233 143 259 203 134 151 168 147 156 174 187 199 162 143 127 129 114 135 199 242 342 140 145 204 185 171 183 248 277
312 436 583 565 521 544 358 314 295 285 282 266 264 242 251 247 242 222 142 227 231 138 149 146 150 142 181 177 182 153 144 135 122 124 126 139 161 134 138 261 116 119 272 119 253 259 285
340 488 466 541 546 333 305 309 293 273 257 263 234 245 252 240 239 228 236 242 139 143 149 150 142 151 206 198 190 155 178 181 130 122 166 125 105 123 105 134 127 117 310 317 179 109 138
356 549 353 268 279 324 250 297 263 254 238 236 249 250 209 235 247 235 236 229 134 139 152 143 155 151 159 150 182 165 228 186 178 136 126 163 200 122 110 153 103 110 135 199 212 177 140
381 223 261 290 256 310 284 268 213 235 236 257 247 240 226 191 235 252 207 136 141 144 151 136 143 188 173 191 176 157 204 252 167 201 203 143 152 155 225 114 161 194 119 152 162 184 177
397 259 262 217 188 290 264 256 263 218 236 250 248 233 176 235 202 238 228 141 132 148 165 166 156 150 160 163 178 173 181 182 186 172 190 156 209 211 169 171 165 131 116 155 140 119 108
291 291 235 231 180 242 217 221 234 264 252 245 203 221 236 233 228 228 233 159 142 147 163 147 152 142 155 157 170 157 209 133 171 212 161 194 210 184 182 174 188 226 159 131 113 164 216
224 282 278 219 277 213 249 218 263 219 244 243 194 237 170 197 227 132 132 131 141 141 180 175 143 158 148 193 145 211 149 189 165 205 203 163 163 184 133 189 199 170 183 159 194 138 129
202 242 266 255 182 224 236 232 235 248 226 230 236 225 189 238 235 209 197 132 143 141 141 156 187 131 153 133 141 177 154 165 206 200 201 191 192 179 133 183 182 165 186 163 217 149 147
195 209 274 269 259 257 266 228 215 253 243 225 179 216 226 208 226 236 207 143 137 140 142 206 179 210 158 144 207 154 150 149 149 149 145 170 202 190 184 193 194 170 191 179 189 194 163

GFSGBSN_2pvu_pres_093.txt.gz
Presure
159 164 148 186 128 197 203 228 211 204 227 239 171 244 238 227 248 246 258 236 250 257 254 266 284 307 210 144 136 135 142 148 121 127 133 131 128 131 153 135 161 168 137 126 115 96 136
145 202 190 191 195 187 215 218 234 219 252 250 253 241 242 242 241 256 256 263 259 277 285 264 320 268 141 168 355 135 133 136 126 132 121 139 131 134 143 144 102 164 141 124 143 149 151
186 187 189 202 208 200 209 232 251 226 242 245 247 242 197 249 250 258 256 268 273 267 173 275 278 278 351 143 122 139 146 127 131 125 139 129 143 127 147 141 154 116 133 149 111 91 173
192 185 200 201 191 209 224 225 260 265 244 251 242 243 247 254 258 267 268 281 305 288 300 265 310 319 192 309 140 199 140 119 127 126 132 138 129 132 169 140 139 129 138 144 292 166 165
198 199 194 211 197 217 216 237 261 256 247 254 247 244 252 251 262 271 295 308 312 312 317 274 312 250 252 335 255 139 142 135 129 141 145 130 113 141 158 122 237 162 145 150 165 218 254
197 206 218 208 212 217 244 246 262 266 264 257 279 279 276 288 288 312 321 324 321 322 322 315 296 264 349 161 205 140 326 245 151 132 119 261 134 147 161 137 145 158 171 235 211 195 201
201 196 203 224 215 242 257 266 280 296 353 367 363 366 357 349 346 345 338 303 318 325 325 314 353 357 332 330 144 265 134 140 206 302 123 133 150 165 141 147 153 257 192 179 174 175 160
211 212 224 232 234 257 275 288 335 415 419 418 418 407 394 395 386 388 381 389 326 333 345 355 349 339 201 317 150 153 157 123 210 137 145 163 142 140 239 386 170 164 178 169 355 211 207
217 229 237 236 256 294 307 376 424 405 409 431 438 447 441 405 391 385 370 368 364 318 353 345 347 284 235 290 210 149 198 191 127 137 165 141 142 349 164 159 145 172 240 353 266 366 362
225 221 228 264 300 320 373 407 408 400 434 471 456 441 445 424 394 375 366 365 358 352 350 345 331 299 246 253 267 140 137 146 150 158 133 146 302 159 148 208 319 373 356 326 309 312 309
229 256 255 306 309 359 398 410 394 423 482 455 441 443 441 463 406 373 375 357 368 351 347 340 291 279 273 278 185 156 136 142 143 138 158 174 146 160 374 368 360 361 313 291 288 287 281
231 263 281 282 335 391 418 390 418 482 450 436 437 428 455 461 412 386 376 369 355 346 328 286 267 221 267 238 167 143 150 157 143 192 175 141 210 346 385 351 326 307 293 280 278 280 284
245 266 282 319 401 419 399 424 485 459 441 433 434 416 433 425 389 379 366 357 336 277 291 150 156 207 160 158 146 151 164 131 182 175 134 318 321 335 327 331 308 290 280 270 274 277 292
257 272 289 391 429 423 450 499 478 453 425 410 409 432 454 405 382 375 335 308 305 288 277 156 276 203 147 141 149 170 151 191 178 136 134 310 334 320 313 297 254 279 278 271 268 263 274
269 295 290 449 233 476 553 490 463 422 413 409 423 450 443 399 379 309 336 290 265 257 281 260 166 144 139 153 164 164 192 171 141 130 278 268 337 294 292 287 289 277 269 268 257 262 263
285 280 468 481 522 553 503 462 421 403 407 417 440 510 387 331 347 275 282 273 140 218 246 149 152 142 147 165 196 133 183 164 180 211 302 243 278 295 282 285 283 283 283 265 266 264 274
292 242 345 529 500 529 473 423 412 431 431 451 352 311 322 299 280 275 274 139 176 175 148 149 141 150 158 163 181 186 227 141 175 146 156 285 283 267 278 275 284 274 273 272 263 275 277
306 292 551 515 539 490 334 426 431 410 333 324 287 267 266 274 271 271 178 132 236 152 150 143 146 131 172 187 186 163 317 125 186 153 153 193 203 113 291 276 269 286 277 280 265 259 269
252 568 405 563 543 350 304 321 303 280 269 263 269 265 259 220 250 254 231 147 161 143 144 132 160 165 134 206 177 182 156 132 197 162 146 151 128 138 151 277 287 292 281 272 272 257 261
301 455 289 347 325 300 286 268 266 257 262 258 247 244 266 322 307 286 208 183 145 130 141 143 157 154 181 199 178 178 179 126 129 136 135 117 168 273 143 147 107 218 213 268 272 276 277
255 288 270 316 292 277 204 257 254 263 256 252 242 252 299 338 351 288 213 141 307 171 123 169 154 170 200 175 184 175 170 216 144 128 124 118 120 131 171 135 134 274 105 112 142 257 277
227 228 252 260 238 176 244 236 232 247 248 250 241 227 265 273 208 129 142 379 199 127 160 161 142 185 195 173 158 292 201 214 154 127 119 125 112 113 110 105 110 106 110 166 104 113 136
262 231 191 204 235 257 216 218 241 254 247 242 233 223 213 219 228 257 174 150 142 153 159 150 139 165 160 163 165 262 300 178 189 213 166 179 334 176 115 114 177 124 104 110 128 171 198
218 254 239 224 225 214 236 218 229 254 229 239 229 210 232 242 225 165 173 154 129 149 153 152 153 160 169 201 149 263 220 195 188 209 227 207 303 302 261 332 171 356 196 123 119 127 225
208 215 258 259 221 234 221 236 230 246 231 208 202 226 208 225 199 219 221 200 131 148 151 193 164 213 161 199 161 156 158 159 194 192 218 212 208 167 227 201 213 244 178 166 210 175 231
204 207 215 223 252 235 234 225 257 247 229 191 206 200 226 220 210 217 201 145 138 149 143 154 129 174 157 157 151 174 154 175 173 219 172 239 163 136 141 201 169 141 217 201 160 208 161
204 199 206 215 221 248 258 214 219 242 223 225 163 225 224 216 220 204 218 143 144 154 145 158 146 147 148 147 141 172 158 153 188 187 145 206 179 178 166 165 175 160 196 193 156 156 162
195 200 196 207 232 226 234 250 210 217 244 214 227 169 182 222 219 220 120 200 148 159 136 134 187 157 157 134 194 212 172 149 165 158 142 183 197 195 194 194 195 181 170 190 183 168 156
175 186 211 208 242 226 177 246 173 220 245 226 227 199 212 166 227 216 161 222 168 136 139 140 140 171 147 208 158 187 148 155 138 148 205 201 169 201 202 187 188 195 190 178 182 192 164

GFSGBSN_2pvu_pres_096.txt.gz
Presure
183 182 191 201 201 195 198 206 202 210 225 211 223 240 242 251 255 268 216 223 257 255 263 255 251 241 284 297 299 289 140 248 143 131 183 147 142 128 133 136 130 125 141 131 146 222 109
195 178 198 210 187 205 227 206 218 224 229 230 230 240 244 245 262 268 267 253 259 260 254 254 219 261 277 290 292 282 285 236 156 269 158 149 135 135 142 130 132 131 127 144 165 92 86
179 193 192 194 208 205 213 239 239 227 250 258 268 260 255 261 256 265 263 262 254 263 259 255 257 273 282 297 212 313 159 189 246 151 140 157 147 137 137 127 127 142 121 146 161 149 145
182 186 210 211 220 220 239 239 242 246 277 269 279 279 279 280 274 272 270 266 264 256 255 258 267 275 279 279 308 313 286 138 142 187 141 146 153 137 128 132 137 120 132 173 161 153 150
175 202 203 206 221 247 244 258 281 293 299 307 339 343 347 334 315 306 292 286 273 267 266 264 267 275 286 319 320 297 139 341 191 167 143 141 132 134 136 134 122 130 131 141 147 144 153
192 206 230 205 243 259 294 308 316 366 405 417 408 433 428 419 425 427 356 324 297 287 282 280 282 289 309 319 277 274 326 363 199 207 130 135 128 144 132 207 162 148 187 147 151 155 140
189 207 234 248 271 320 321 370 375 389 370 373 397 393 401 403 475 444 395 362 336 310 305 296 296 319 331 331 329 322 360 334 136 155 143 160 133 127 139 129 316 122 151 258 154 137 140
194 241 255 293 305 268 360 369 385 362 360 381 405 395 418 482 460 417 387 370 349 322 320 331 328 334 324 330 318 358 327 180 145 136 154 134 117 128 133 155 145 161 152 186 161 140 149
221 246 286 287 301 347 370 375 387 356 367 406 390 427 471 454 442 404 372 368 363 339 336 335 334 338 329 322 347 328 319 145 273 152 125 160 143 210 151 155 143 146 141 147 269 267 254
251 262 327 279 366 394 378 376 376 375 405 387 467 444 446 450 435 396 373 367 359 353 357 364 353 329 141 316 318 315 311 178 151 125 284 138 145 152 148 164 146 156 336 173 162 159 157
256 334 362 410 402 415 437 405 411 387 398 475 439 419 428 456 372 392 352 353 341 345 345 337 330 335 314 309 309 157 265 149 227 155 159 157 148 164 160 149 187 171 159 169 314 311 304
291 368 443 446 460 459 464 455 449 509 459 430 420 418 427 479 405 361 340 326 195 314 327 339 336 266 158 298 268 172 228 175 195 154 149 145 143 172 183 170 161 215 308 308 304 301 305
216 431 490 503 503 493 551 526 458 424 419 408 410 417 485 432 375 352 332 259 334 334 335 320 170 291 212 179 203 207 165 255 145 146 143 150 174 168 148 305 300 296 293 286 287 289 289
518 523 502 282 269 475 439 425 408 411 412 421 437 445 423 373 357 347 344 332 334 328 152 292 284 283 150 110 166 117 160 143 154 138 183 167 132 299 283 288 291 290 285 290 276 276 294
248 264 326 497 438 464 455 448 434 432 434 446 512 416 384 358 363 346 335 343 317 294 166 272 220 154 168 256 213 148 152 155 145 177 151 146 333 295 287 292 295 280 281 270 271 278 287
221 231 247 285 280 272 272 394 505 507 483 420 396 377 373 360 347 337 306 294 290 281 282 158 162 159 129 139 148 163 162 179 172 154 152 242 293 291 284 279 275 273 277 263 267 271 284
186 211 202 224 254 271 266 265 268 272 275 312 328 320 176 315 286 284 280 192 271 203 182 158 237 184 146 154 165 303 218 167 176 173 317 137 226 275 284 278 274 263 266 260 254 252 274
247 235 161 230 224 237 249 253 256 257 270 264 253 246 252 253 253 189 177 239 150 158 158 146 134 149 149 168 200 178 191 154 132 321 151 151 214 173 277 280 264 266 260 260 264 262 268
226 250 210 179 230 260 245 234 225 275 313 304 284 273 272 269 247 250 144 152 149 213 146 138 146 126 173 178 215 192 175 146 134 143 142 179 162 131 137 286 163 197 234 260 273 271 263
199 231 248 267 224 236 249 234 226 223 242 288 340 239 262 264 224 129 204 230 156 129 136 157 151 191 204 189 194 242 167 150 189 127 141 191 133 163 146 176 155 128 119 141 114 194 269
192 214 246 202 267 230 233 216 239 204 264 347 257 256 259 225 195 141 131 139 131 142 136 152 180 167 188 180 193 170 191 182 154 131 134 128 118 125 113 115 113 115 108 115 265 266 155
176 185 239 282 227 220 181 242 218 214 223 170 178 254 278 387 247 174 134 138 139 136 150 150 153 176 139 184 331 166 320 331 352 161 293 288 129 120 165 119 116 100 105 110 116 113 110
188 192 205 238 260 232 218 206 220 216 206 201 212 219 214 244 222 137 383 142 143 146 157 147 142 181 168 188 338 194 173 160 259 175 230 247 287 174 179 171 249 128 106 116 158 151 246
184 173 216 220 187 256 230 233 219 203 206 196 213 203 205 209 155 206 163 133 146 153 139 154 152 177 256 202 310 199 358 279 345 171 240 340 209 264 228 260 295 235 166 295 217 226 129
173 174 194 194 193 265 260 225 241 220 170 210 214 207 198 197 220 200 240 124 144 143 135 185 204 146 157 143 158 156 192 239 282 184 189 179 185 153 349 308 192 156 193 300 204 306 168
159 204 170 185 197 198 274 260 229 251 227 211 215 213 211 207 202 204 136 129 142 140 150 134 144 142 163 152 173 186 152 160 147 159 167 210 204 199 174 149 173 232 209 197 240 240 239
190 184 192 183 183 225 208 269 255 224 231 236 165 218 211 201 202 209 132 136 148 142 137 144 140 148 138 149 154 193 161 154 158 170 141 149 180 162 221 204 187 174 184 191 193 198 188
204 167 166 205 185 193 193 233 266 256 202 218 234 176 210 225 212 209 206 141 183 140 156 138 132 143 146 151 163 199 154 145 147 151 182 192 138 189 159 207 199 188 189 185 191 189 165
164 163 158 167 168 185 186 234 240 275 255 231 216 189 224 165 203 177 124 137 184 175 132 179 143 139 145 139 144 139 204 159 163 140 212 207 195 197 206 208 198 192 195 201 197 181 184

GFSGBSN_2pvu_pres_099.txt.gz
Presure
162 182 182 193 194 192 201 205 216 228 244 243 241 245 253 259 255 256 268 267 273 269 271 260 264 276 265 268 269 267 250 224 270 303 313 160 152 134 138 136 137 129 103 122 86 133 123
186 183 191 195 204 216 223 238 242 243 263 270 268 268 269 270 270 276 278 272 278 274 270 269 270 276 268 264 214 259 241 267 273 291 147 142 160 165 135 136 148 130 125 137 131 130 151
172 198 192 215 226 244 268 299 301 284 231 232 234 319 313 304 300 292 282 279 284 274 272 271 269 272 276 219 130 273 277 274 132 295 308 137 306 146 161 148 154 135 138 129 139 127 147
184 218 252 289 299 351 383 380 380 374 384 368 379 371 389 370 388 350 326 313 297 284 278 270 271 268 268 280 270 268 274 264 242 295 276 316 345 151 187 167 164 136 137 131 147 132 131
213 262 360 406 430 419 421 386 373 374 356 357 371 375 367 383 392 367 383 421 350 318 290 276 267 271 275 276 274 274 278 285 259 301 237 261 205 268 189 160 144 148 133 136 135 133 137
253 222 318 422 412 329 363 272 348 358 367 373 368 216 360 388 372 373 385 410 414 388 333 289 275 271 271 273 276 275 281 281 275 311 155 316 339 212 166 143 163 130 134 136 139 127 128
212 259 254 300 344 230 386 357 357 360 371 363 354 368 389 375 406 416 515 437 406 455 383 326 289 276 275 282 282 281 287 298 304 350 161 210 143 147 147 142 139 154 136 128 126 133 130
242 238 250 250 300 349 442 412 387 377 367 371 377 399 396 403 413 503 457 423 394 348 406 358 330 297 296 295 294 299 302 317 340 345 190 156 134 148 143 122 129 163 122 132 125 141 133
231 220 246 248 262 305 521 497 460 428 425 420 406 406 409 460 481 441 396 374 372 367 377 366 340 313 306 301 297 309 331 330 195 334 237 296 321 167 228 181 118 139 131 223 138 170 144
204 212 257 248 243 270 425 539 529 498 476 458 456 440 437 470 445 398 383 356 339 347 341 343 343 331 312 316 333 292 335 166 142 207 131 217 143 131 160 132 146 143 170 144 156 138 145
229 265 246 240 249 268 293 441 427 427 419 420 420 424 449 460 404 384 365 339 327 329 322 325 335 340 346 338 144 332 317 192 299 177 158 247 126 158 154 139 145 152 160 153 151 153 152
230 260 262 255 234 258 285 315 446 439 425 439 437 452 515 392 379 364 349 331 331 328 333 337 353 194 319 325 319 302 290 276 243 144 121 167 397 232 162 323 167 152 155 162 158 162 174
170 178 259 241 235 230 314 274 304 470 472 473 483 394 371 359 329 348 350 345 338 352 347 320 312 271 302 304 297 279 260 169 120 155 274 250 160 228 153 157 157 162 167 173 167 170 172
229 208 263 248 227 231 235 329 268 293 306 405 381 371 360 317 335 329 331 234 320 290 307 291 306 302 297 150 140 240 257 168 319 292 186 153 146 159 177 153 142 184 170 282 298 307 316
215 264 243 239 229 216 246 309 319 290 275 258 271 354 370 363 362 355 330 165 315 308 306 294 276 140 129 261 268 280 162 314 177 163 152 170 139 146 161 294 288 295 285 293 297 304 306
213 232 207 243 246 213 227 265 240 329 307 274 256 256 257 263 282 289 299 298 302 306 240 219 167 237 217 166 190 164 148 154 151 145 149 159 211 203 283 285 286 281 287 296 296 307 294
196 182 268 247 239 235 205 205 211 296 312 322 310 290 280 272 253 256 255 252 266 184 157 216 146 138 149 147 147 153 258 213 266 185 159 286 139 280 281 279 268 268 271 292 310 303 287
209 228 204 244 236 239 209 218 202 231 371 176 189 208 237 194 303 230 148 282 259 152 155 156 154 147 156 316 311 191 178 175 145 143 168 282 132 251 143 150 261 257 259 279 292 273 280
189 196 194 241 283 241 223 232 215 210 224 202 336 192 273 294 233 224 150 143 182 139 112 149 141 134 189 191 192 212 168 151 141 285 150 128 127 160 144 266 155 181 137 271 253 253 253
191 185 194 222 257 242 232 203 207 194 110 205 180 165 266 208 141 169 127 154 137 123 133 160 172 213 259 249 250 166 167 154 139 133 127 203 125 124 194 115 125 123 116 115 117 117 231
185 200 210 185 125 289 249 232 239 199 206 193 201 194 226 147 175 165 125 141 136 151 147 169 159 207 278 190 187 295 191 247 217 135 125 257 122 124 123 124 112 112 119 125 117 242 110
175 184 184 221 236 152 286 248 235 240 192 198 206 116 189 134 131 132 140 138 154 144 172 173 343 350 164 206 219 192 170 300 311 157 302 249 174 184 280 119 112 141 105 104 218 266 120
163 181 192 185 213 236 193 286 249 229 229 224 204 197 156 206 146 132 144 150 128 144 147 161 206 161 190 153 286 184 258 197 302 245 291 218 290 286 287 166 171 161 279 168 231 138 287
153 172 187 182 195 213 212 249 298 250 234 232 223 212 206 210 155 139 147 129 151 173 143 149 182 155 190 272 194 321 203 248 319 153 254 235 218 228 290 181 224 171 257 213 256 215 275
181 150 181 191 179 181 219 217 197 279 254 224 186 215 208 110 204 147 138 143 150 143 162 191 159 195 154 159 158 211 321 243 194 153 170 169 265 182 300 178 315 280 172 293 251 172 162
182 176 180 192 178 176 202 205 189 222 288 181 233 225 230 225 208 140 130 148 146 146 176 156 182 156 157 143 157 149 157 165 153 156 154 237 254 187 257 146 218 176 151 288 231 179 289
177 191 171 171 204 186 171 190 200 196 241 281 288 228 224 221 232 149 131 131 134 148 174 137 195 218 150 156 178 159 166 146 204 232 175 228 183 203 183 197 235 165 225 200 185 197 189
192 170 188 170 163 212 202 185 203 205 188 198 218 285 227 229 217 223 187 134 131 144 144 142 148 163 150 190 196 163 151 197 165 193 201 207 184 201 197 202 196 190 191 190 178 194 187
187 184 190 161 176 153 173 170 174 185 181 193 198 252 286 237 232 220 219 122 123 229 143 147 138 148 137 144 215 206 207 205 205 147 205 206 202 207 208 199 196 201 193 169 206 199 189

GFSGBSN_2pvu_pres_102.txt.gz
Presure
184 196 227 257 184 235 240 243 247 268 389 263 341 332 311 280 271 269 269 263 268 266 267 261 263 263 264 254 243 253 268 271 234 275 287 175 256 143 135 130 149 135 128 141 146 132 136
182 208 257 219 213 230 238 270 261 328 419 392 353 338 328 316 312 303 295 243 253 275 279 275 271 268 263 265 273 274 275 270 234 172 277 223 198 178 270 138 235 142 139 139 145 133 130
234 248 202 232 224 234 293 267 280 373 373 399 370 368 358 330 323 315 310 308 301 292 289 287 287 268 269 279 279 283 278 277 281 273 283 240 220 233 231 281 138 139 145 146 160 67 134
221 284 238 234 232 260 292 266 388 358 355 360 331 324 345 378 355 338 327 329 326 313 312 307 294 288 274 281 281 280 275 281 280 288 275 282 288 222 181 215 157 160 192 145 162 136 135
234 243 242 245 224 351 325 470 423 372 359 354 356 344 360 343 343 346 358 390 371 357 349 319 296 285 281 277 277 281 280 278 277 286 280 276 287 291 298 299 295 160 168 195 140 148 151
219 231 162 257 231 377 297 557 473 408 372 365 367 368 357 358 358 364 389 314 334 312 386 402 318 288 280 270 278 286 279 276 282 279 287 280 291 298 143 291 150 160 170 157 145 158 280
286 230 228 267 225 395 265 478 502 449 406 408 388 389 386 388 389 390 387 374 428 421 389 416 417 299 278 281 280 280 279 278 285 287 287 288 293 300 316 312 247 370 148 356 178 145 135
263 261 217 265 270 403 307 308 448 509 468 443 445 438 411 416 420 460 465 442 421 387 403 444 403 339 287 281 279 281 282 275 280 284 249 302 271 345 216 148 351 190 199 171 133 139 150
222 315 218 236 253 290 347 291 388 437 434 440 442 447 458 478 484 489 449 389 372 394 401 389 377 362 302 289 283 283 284 281 284 298 306 271 358 324 335 278 238 153 167 211 141 162 134
246 312 242 229 251 252 391 353 299 379 446 448 459 479 416 404 407 397 379 369 368 367 367 340 338 336 325 303 294 295 294 284 305 302 338 190 309 156 280 255 153 123 131 134 139 121 126
219 237 264 217 239 252 256 364 355 291 300 506 424 394 368 369 357 360 362 363 354 343 336 343 340 340 326 316 302 296 308 309 348 332 143 301 223 282 168 135 122 131 166 123 145 138 172
216 250 313 246 196 236 236 274 365 348 289 291 375 383 364 353 351 350 348 352 349 346 356 346 343 272 340 222 342 323 340 293 310 272 291 232 238 188 132 217 161 169 156 142 161 142 211
222 226 264 243 251 223 211 249 264 363 345 320 272 241 326 374 357 355 343 342 332 338 339 338 254 338 223 213 246 309 284 288 250 256 270 313 146 229 224 164 149 165 174 170 154 255 339
206 195 237 295 220 198 227 215 216 253 323 348 319 282 270 140 294 342 255 335 328 331 326 330 321 313 305 303 286 277 269 142 265 182 159 259 328 311 171 162 171 300 280 317 234 159 153
215 200 249 219 307 219 205 208 207 216 182 332 336 325 306 278 276 270 267 266 284 278 277 279 280 277 277 153 268 253 319 310 210 155 318 195 204 135 164 166 151 156 158 158 172 181 183
195 198 217 228 246 299 197 176 196 213 224 128 270 340 335 277 259 223 209 270 266 221 148 154 225 197 296 280 282 253 161 184 208 165 151 148 163 142 153 239 252 227 299 314 274 263 273
172 194 181 220 202 259 244 227 203 220 191 213 213 277 344 336 336 299 183 169 199 196 157 189 182 170 179 268 154 152 148 152 149 166 282 209 140 240 203 261 306 298 309 287 259 257 267
199 191 187 194 201 187 254 308 231 216 214 196 229 187 135 367 222 191 156 326 318 240 149 141 144 144 148 151 148 224 179 171 293 165 152 244 204 137 143 134 224 138 133 268 266 262 250
168 194 163 180 192 214 201 264 267 232 162 199 222 163 205 173 150 151 142 131 145 131 136 137 186 184 185 182 209 174 174 134 148 233 146 131 145 145 151 130 124 123 126 125 126 125 233
178 183 197 198 189 192 208 252 267 243 220 181 121 190 171 144 149 141 137 134 136 155 103 325 203 309 271 173 171 314 166 137 137 142 133 192 134 135 134 136 125 127 124 118 118 122 240
182 196 180 188 194 172 198 230 206 280 273 127 202 132 137 124 153 142 134 125 188 170 279 167 188 172 174 283 280 312 305 160 154 135 132 135 131 136 263 130 122 116 260 115 110 117 142
195 179 192 171 183 174 213 200 190 238 246 269 186 138 171 130 123 141 140 123 165 163 159 193 262 282 191 298 169 312 196 291 290 248 185 129 261 240 135 267 271 182 112 258 256 150 243
191 156 184 191 178 175 192 205 190 220 244 268 262 210 209 124 120 136 138 123 176 134 199 168 162 179 318 217 185 264 311 183 302 213 273 285 240 179 231 176 225 271 174 224 154 229 255
180 183 180 193 195 187 187 196 221 192 237 232 240 237 238 194 132 131 152 145 147 165 160 191 159 184 298 206 308 199 167 294 224 290 294 232 292 185 225 293 205 172 235 213 264 169 214
163 186 171 190 175 190 176 189 193 205 181 218 203 200 246 136 133 135 151 141 139 132 160 197 165 153 168 195 257 226 276 302 198 304 303 306 138 281 181 295 194 180 232 274 295 174 170
191 183 194 154 196 208 184 193 187 197 181 193 209 215 275 130 237 143 127 144 138 140 149 210 144 181 157 210 151 147 222 108 189 185 199 191 150 304 164 233 239 308 295 251 296 185 245
178 167 187 184 182 162 163 186 192 196 182 204 183 208 207 208 238 165 136 129 127 140 142 184 136 185 155 149 142 132 148 147 145 143 215 219 226 183 229 208 235 228 214 247 178 176 207
159 176 172 190 179 178 189 162 191 203 190 178 193 204 204 183 203 279 138 112 128 130 141 143 134 135 133 146 141 161 147 144 142 170 167 207 172 200 202 203 200 200 192 201 193 195 193
152 163 173 180 163 161 195 168 160 189 202 176 174 200 197 197 237 219 236 201 140 136 141 139 141 139 131 136 134 156 142 143 146 192 209 148 206 205 192 210 200 197 150 198 134 197 192

GFSGBSN_2pvu_pres_105.txt.gz
Presure
188 220 247 218 180 236 354 296 319 305 272 277 298 297 290 294 293 299 326 326 295 269 231 244 245 250 248 244 246 247 251 246 243 256 233 228 241 241 219 239 144 136 122 147 130 134 129
206 284 221 205 197 266 327 159 263 491 410 376 379 373 361 369 352 339 331 306 289 290 281 275 262 259 258 256 251 252 252 257 257 251 242 238 230 239 217 238 176 137 151 138 132 125 119
218 241 218 190 195 425 342 264 525 542 401 359 362 367 365 349 357 334 329 317 307 295 285 279 272 268 270 266 265 260 261 260 262 270 270 226 262 274 255 285 198 142 137 228 129 122 145
230 253 192 191 171 427 344 458 554 421 388 363 358 357 351 342 363 348 324 318 317 306 297 285 276 277 273 272 265 266 271 267 267 274 268 264 224 252 285 285 300 263 149 145 128 174 128
232 297 184 200 243 304 379 474 544 448 391 405 362 355 357 348 355 344 348 326 320 317 317 307 292 288 287 289 283 263 279 286 282 275 277 272 296 263 287 289 301 200 297 225 145 126 223
223 253 208 193 252 269 411 303 470 501 446 419 382 374 372 364 345 346 349 349 352 339 321 322 306 302 291 287 284 286 291 282 299 289 295 294 282 284 286 289 300 161 296 167 176 166 233
229 216 187 173 235 259 282 384 329 473 484 489 440 419 402 383 370 360 354 340 236 362 350 331 332 317 298 286 286 291 291 291 290 287 288 289 282 284 152 291 218 304 297 251 317 166 248
208 225 192 211 188 256 270 293 364 316 458 499 509 516 525 480 488 438 415 379 379 359 351 358 389 409 299 298 287 288 289 281 284 280 291 293 284 287 189 298 305 318 366 179 202 364 214
198 205 218 191 213 211 253 273 324 344 307 406 397 399 410 454 500 509 459 434 422 361 416 312 361 411 399 323 282 282 285 280 279 281 290 292 292 301 307 320 342 373 338 227 272 343 157
176 223 214 196 198 205 243 256 273 359 344 286 389 395 393 391 406 404 402 398 385 367 391 367 371 375 361 311 296 284 279 280 286 292 295 304 302 311 323 375 336 324 186 316 159 171 152
200 174 214 240 204 206 224 239 260 268 356 338 279 308 396 380 378 380 367 356 349 349 348 358 357 336 334 326 296 285 287 284 291 299 311 312 322 365 296 308 306 303 184 164 337 346 341
203 206 187 213 259 197 212 222 231 253 262 350 335 282 291 308 373 379 369 361 344 343 349 340 347 335 326 332 312 296 293 294 289 302 317 331 296 291 237 289 279 166 265 298 366 147 272
176 205 207 199 201 250 184 175 214 205 250 257 350 328 303 275 282 292 348 363 352 353 361 350 337 336 238 334 324 313 311 308 317 318 285 283 171 352 335 283 276 210 330 262 155 201 132
192 195 194 186 218 181 258 195 194 206 197 236 254 344 328 307 287 261 271 280 298 333 343 327 217 340 343 322 348 350 344 277 274 264 263 350 328 142 136 156 330 305 326 284 168 141 160
198 193 210 196 189 213 185 230 196 209 200 186 251 263 348 305 312 299 197 253 262 275 283 283 285 282 277 276 275 274 258 243 208 338 137 290 294 291 276 164 157 275 162 161 165 165 163
185 179 173 214 195 200 219 185 225 207 191 195 178 173 303 239 345 341 290 316 331 223 275 240 265 175 159 218 156 216 355 253 157 287 283 278 140 245 155 156 148 143 143 150 155 153 149
167 187 203 187 217 195 220 216 134 211 258 165 179 169 166 169 221 188 156 154 213 214 166 291 335 282 169 166 217 235 207 190 151 149 148 152 159 167 155 158 166 231 239 239 240 229 233
126 177 177 204 175 218 197 213 208 179 271 267 157 177 171 151 143 137 140 142 148 149 151 152 148 150 142 147 151 156 152 267 279 276 281 137 146 287 298 280 263 259 165 260 252 258 259
188 181 183 178 214 203 201 217 206 214 223 156 179 172 143 138 140 142 141 136 140 233 215 302 179 177 292 179 191 161 168 143 168 177 270 142 140 159 144 132 134 131 133 152 234 223 218
184 190 191 192 180 179 208 193 238 150 159 185 182 138 186 139 131 134 146 157 170 246 302 340 241 249 187 245 233 212 134 151 161 139 142 148 139 129 150 135 136 134 132 128 193 124 240
192 161 173 203 192 179 207 208 206 209 204 143 141 130 205 136 136 123 158 165 186 198 190 180 172 171 168 214 262 282 130 137 153 141 139 138 137 139 134 160 133 202 125 221 159 122 113
172 183 173 189 168 187 172 199 194 211 221 135 148 132 124 132 139 124 156 163 191 135 163 159 298 186 192 193 304 246 286 150 134 271 259 128 132 133 137 267 262 117 120 127 116 117 112
165 155 169 177 184 188 198 181 189 190 195 180 160 127 129 134 133 133 148 232 134 207 132 161 199 181 183 177 211 197 260 261 244 292 158 179 222 280 244 214 185 173 255 228 253 258 238
144 191 178 167 194 192 182 194 195 183 206 223 235 165 126 122 130 135 159 151 141 163 194 218 151 172 202 198 306 231 250 293 290 245 281 240 186 278 151 250 180 259 177 239 216 173 206
174 146 181 178 157 160 182 176 190 195 187 203 200 199 177 198 132 131 138 151 145 139 179 212 157 141 146 157 214 221 226 211 175 191 216 309 300 258 291 189 197 241 147 258 262 175 171
172 174 168 192 175 151 183 176 185 191 194 185 218 208 225 191 171 171 140 130 140 187 141 245 247 195 219 140 166 139 140 149 201 157 251 227 222 150 295 289 309 279 153 274 262 147 277
184 156 160 162 185 188 156 180 184 180 181 185 191 205 216 212 227 123 213 138 126 134 142 196 170 128 158 252 204 146 207 156 185 142 138 155 168 144 203 202 207 241 182 209 195 182 203
185 166 165 183 159 179 163 160 182 163 177 181 194 187 197 187 187 181 197 189 139 121 123 136 146 145 150 145 152 208 247 237 217 188 140 195 139 201 215 214 208 205 227 208 203 203 200
174 166 156 177 179 186 177 176 167 153 159 178 184 196 187 201 206 188 210 230 169 233 133 127 131 142 142 135 141 133 158 236 203 167 235 238 222 146 137 203 203 198 202 202 207 207 203

GFSGBSN_2pvu_pres_108.txt.gz
Presure
189 202 311 189 191 180 294 326 544 500 503 527 390 345 326 296 270 297 328 268 251 247 247 238 244 279 253 239 234 210 224 215 225 222 229 224 231 251 235 236 274 226 272 257 139 154 130
182 245 284 174 192 241 399 310 572 464 441 403 364 362 356 354 357 286 296 287 270 276 258 249 250 255 279 247 238 235 218 217 227 230 230 240 243 244 253 234 243 281 209 217 122 111 138
205 216 201 178 219 227 372 332 533 444 414 386 357 349 352 342 350 368 360 279 278 256 248 244 243 258 292 263 244 236 233 238 239 239 241 236 249 252 258 254 228 258 207 208 268 128 137
204 216 220 193 210 242 301 354 301 440 407 406 382 376 356 354 365 354 356 325 337 289 270 257 259 266 289 268 245 249 250 243 246 250 247 252 250 249 254 257 262 238 263 209 266 128 155
187 205 182 179 209 232 274 358 327 403 461 405 377 388 370 364 350 360 342 350 382 338 320 313 299 314 300 285 267 254 228 246 249 251 255 257 262 265 259 262 257 267 245 270 245 144 138
202 193 169 190 224 229 238 289 356 313 391 441 466 430 399 388 360 343 339 336 349 345 250 315 304 302 310 290 274 264 261 255 258 263 269 274 270 272 268 266 268 281 276 241 215 143 149
183 221 227 169 253 206 226 256 354 340 308 327 383 429 570 438 359 355 347 335 339 359 328 314 300 291 290 305 294 280 277 274 274 274 270 272 279 282 269 271 277 287 300 312 307 305 147
203 200 226 185 177 193 221 226 267 346 331 304 332 428 424 528 464 392 363 345 338 336 236 327 286 298 296 288 294 306 295 288 285 285 292 295 302 299 306 301 300 303 302 300 300 311 280
205 182 215 221 173 201 189 212 231 269 343 324 302 327 384 438 527 449 391 358 339 336 343 360 341 301 304 293 275 276 300 303 300 298 293 304 303 303 297 295 298 302 300 305 223 246 156
195 205 201 229 188 182 202 204 221 234 279 337 325 298 320 384 447 491 441 404 372 377 361 382 356 234 365 245 295 279 270 287 292 292 302 308 297 302 296 307 309 306 307 335 216 341 308
191 208 203 209 206 241 182 181 202 217 220 329 335 322 302 313 368 385 423 441 429 383 383 386 402 247 391 417 290 311 293 286 292 300 309 305 298 303 312 294 313 338 376 331 326 319 310
195 172 203 213 206 191 202 187 186 197 218 237 343 334 329 308 298 364 361 367 375 372 351 371 356 359 351 362 362 313 308 293 293 295 320 302 287 305 316 323 311 305 323 306 364 374 350
175 201 191 178 214 211 213 182 176 192 182 209 231 354 332 341 317 283 322 356 346 358 362 340 343 336 335 329 328 332 324 313 297 295 303 305 314 301 290 286 323 338 356 331 319 302 158
196 178 173 198 192 209 200 224 180 182 192 183 190 219 360 343 349 337 302 279 321 347 352 346 333 331 332 328 316 321 319 325 309 284 306 280 271 341 142 310 328 342 308 247 233 290 288
197 190 196 202 206 189 219 232 163 170 180 170 178 179 181 139 153 254 149 304 198 260 280 306 328 335 338 313 337 326 274 269 269 285 373 318 308 276 313 152 141 166 142 154 264 156 134
182 189 186 177 201 191 205 215 226 186 169 168 166 157 182 214 252 161 144 147 362 337 318 244 212 188 256 256 261 302 381 313 298 294 291 293 291 237 145 222 157 213 225 243 153 202 158
182 176 193 165 195 192 206 205 208 186 150 160 157 152 148 142 143 146 149 146 140 149 150 153 157 231 331 159 226 146 160 201 280 285 198 156 205 156 157 157 152 148 148 150 151 154 157
166 167 180 184 182 185 191 189 200 210 224 142 139 141 128 138 121 156 177 354 368 336 162 156 150 150 150 148 233 149 271 265 209 142 279 297 225 171 266 266 250 250 260 259 258 250 262
158 195 185 180 187 204 180 187 200 192 180 181 143 146 137 139 133 193 173 168 175 157 340 305 175 295 196 157 163 150 156 150 251 276 256 145 164 135 149 205 262 234 179 261 254 264 265
177 168 191 184 180 193 181 195 180 136 203 135 135 159 127 128 140 201 175 192 201 176 201 270 195 308 294 282 234 150 212 159 149 155 140 136 165 159 145 134 138 138 139 172 231 201 267
152 155 174 174 160 173 181 198 204 194 182 216 130 135 133 134 125 235 242 242 159 158 192 171 224 279 303 295 223 141 186 280 142 149 144 143 138 141 111 191 135 129 256 126 187 126 159
170 178 155 181 173 183 184 181 209 195 155 202 134 125 122 134 129 131 152 135 134 169 147 203 201 193 163 181 298 158 133 129 180 136 274 286 199 251 140 127 136 270 256 141 120 121 126
173 166 167 168 192 178 185 189 193 179 199 172 207 133 151 142 133 125 156 143 148 172 250 158 235 211 214 208 205 195 171 174 224 157 174 200 293 117 171 258 137 232 267 257 223 152 248
148 173 166 175 181 171 180 188 184 172 184 186 191 215 171 154 127 133 126 173 142 144 203 233 150 157 152 157 200 206 210 215 221 295 244 223 224 214 257 170 218 209 264 212 243 217 239
180 167 178 162 166 169 176 200 184 195 165 188 179 194 190 177 148 133 132 128 197 141 135 157 191 213 245 176 235 150 206 212 218 208 206 201 257 213 292 155 219 161 259 206 278 254 181
157 170 163 173 156 173 179 185 184 178 188 187 197 184 183 189 186 214 202 189 136 134 198 137 143 161 142 170 147 148 143 148 195 147 148 202 156 206 196 148 199 154 267 204 237 263 256
161 170 159 168 177 175 174 187 172 186 183 176 189 178 193 188 179 197 185 145 181 174 131 130 141 139 147 140 176 174 148 144 216 224 242 235 186 142 212 201 210 204 173 207 151 243 147
152 150 164 169 167 182 182 194 170 174 169 166 174 179 179 200 203 186 188 176 196 182 214 127 128 132 145 138 142 133 133 173 163 229 213 181 177 242 228 221 216 209 208 208 206 206 201
159 166 163 164 179 147 177 168 183 188 164 181 182 192 161 190 184 200 186 180 195 196 197 207 193 137 128 129 134 134 134 134 141 137 148 136 140 142 150 234 175 149 168 220 217 210 211

GFSGBSN_2pvu_pres_111.txt.gz
Presure
175 218 220 203 221 230 271 393 334 487 400 395 369 371 356 351 357 298 260 335 348 286 260 264 253 232 239 249 227 235 239 240 217 199 229 207 229 228 225 241 241 203 225 164 205 133 133
173 198 222 189 193 168 240 328 357 304 440 389 378 347 341 344 342 348 302 277 288 349 324 255 251 223 228 236 250 246 250 233 240 246 212 231 223 231 231 232 237 254 246 243 158 138 222
172 221 231 176 224 231 244 284 371 324 372 440 387 348 358 357 341 342 351 248 272 307 340 341 251 225 230 225 233 230 239 239 278 247 248 226 229 232 216 233 243 236 250 247 251 133 164
204 225 223 177 160 220 224 256 373 350 296 374 368 413 361 363 339 347 343 351 349 269 308 329 336 255 232 225 223 230 231 241 256 259 245 248 211 238 232 232 222 242 239 229 190 130 260
194 192 205 213 156 195 231 233 283 356 340 325 383 426 434 368 336 282 339 361 342 324 268 306 314 297 278 234 235 236 237 237 233 261 258 245 244 235 220 227 233 234 239 246 255 238 261
194 196 220 208 166 173 223 228 240 367 351 326 383 400 535 400 365 333 345 339 349 335 311 259 301 328 292 264 263 213 245 245 249 248 270 250 243 241 239 232 241 245 250 253 258 271 268
203 182 214 186 154 171 231 223 230 241 366 355 316 406 531 489 376 327 347 345 342 339 182 316 259 290 314 250 255 253 264 252 254 256 274 270 249 249 242 245 247 251 252 257 269 275 283
188 186 216 187 217 191 168 243 230 232 333 356 345 402 558 510 402 347 335 345 329 341 275 328 286 276 270 274 284 271 253 258 255 282 281 277 253 251 259 250 247 253 264 278 280 284 291
173 199 203 196 208 136 191 170 214 232 235 359 362 330 501 492 403 380 335 337 343 349 331 211 252 311 317 270 264 266 261 263 276 282 281 279 279 276 265 267 269 274 278 283 301 313 321
196 202 200 202 186 188 179 191 169 174 231 290 366 350 326 468 423 396 364 354 343 259 364 330 290 240 291 311 323 303 306 300 295 285 282 281 280 279 281 281 280 297 323 326 322 322 323
168 184 188 206 98 211 171 176 189 193 169 229 366 368 343 323 386 449 417 400 345 355 363 391 257 219 236 303 266 320 312 313 299 296 296 300 299 297 312 338 340 321 314 314 328 338 353
190 172 187 193 188 215 193 176 182 163 157 189 179 324 368 338 316 331 362 366 383 383 385 391 397 376 324 307 302 241 304 310 301 307 313 331 318 322 304 298 304 316 341 384 316 334 336
190 196 199 191 173 176 210 188 168 171 171 130 151 149 199 370 343 317 290 345 343 341 350 348 353 373 391 386 319 308 297 295 291 299 292 307 302 302 312 326 319 303 294 350 324 313 317
187 184 189 167 190 213 180 199 132 157 150 197 187 186 197 158 173 364 321 302 308 343 338 318 327 330 331 337 350 356 309 305 306 319 278 294 300 296 287 348 334 335 313 298 297 278 287
185 185 183 200 189 207 204 213 185 208 157 159 142 150 153 214 243 163 330 167 315 296 308 314 338 336 333 311 212 335 346 350 355 302 300 323 338 321 328 320 304 292 283 282 290 283 279
184 171 176 199 187 207 190 209 217 182 137 139 137 151 147 143 169 231 253 151 151 205 149 242 275 178 229 275 275 294 290 323 315 310 304 307 311 251 293 281 273 276 275 271 264 272 273
172 180 170 187 185 190 205 192 214 152 140 126 125 124 127 168 166 198 170 250 297 150 190 154 150 338 151 200 240 254 294 292 295 251 305 298 211 234 151 147 146 180 262 227 149 151 201
155 183 178 182 154 195 181 214 204 193 144 137 138 131 134 166 247 185 176 225 220 252 332 156 159 157 150 295 297 287 285 255 151 157 160 159 219 261 166 160 162 164 162 162 163 162 162
179 179 165 183 177 165 193 194 173 209 192 139 126 129 138 159 173 235 158 163 180 220 189 226 217 184 161 159 159 158 159 167 174 145 152 187 195 238 262 258 262 265 254 258 260 259 248
163 172 158 182 177 182 187 190 185 166 220 193 134 128 132 133 217 243 168 226 165 210 229 194 167 169 265 214 174 170 158 287 299 245 143 266 263 265 205 147 265 155 142 204 240 256 251
142 175 167 186 179 184 179 182 205 186 192 170 160 132 132 125 127 147 143 144 206 242 249 179 240 216 219 221 163 165 297 263 149 159 249 145 151 168 149 157 207 122 136 195 134 232 133
176 163 173 165 180 166 183 179 180 188 179 127 160 132 125 135 131 139 145 135 133 248 218 155 159 193 247 168 213 150 135 135 226 149 277 138 263 138 141 128 142 133 132 127 258 135 116
173 159 170 184 171 172 177 172 181 175 195 199 199 212 192 127 150 130 130 193 146 238 162 210 176 150 214 213 245 201 204 196 143 130 130 166 280 151 273 234 221 264 217 218 233 264 212
166 170 161 160 174 172 180 176 184 190 172 191 178 200 202 178 159 127 133 126 134 143 191 212 187 184 245 149 149 183 247 238 236 207 198 202 205 195 178 183 248 262 224 203 220 267 169
146 165 153 168 180 182 180 163 169 163 183 191 189 173 184 176 198 191 216 195 130 135 152 138 168 236 236 162 216 143 214 150 156 163 158 158 160 172 201 192 193 278 198 249 247 196 250
171 148 164 175 150 152 178 172 175 181 184 166 194 171 190 188 201 203 198 187 209 199 199 136 192 141 142 138 143 257 250 142 149 236 154 164 183 226 157 154 172 197 197 197 277 199 187
168 165 159 158 143 165 148 170 179 178 176 156 188 200 188 196 183 190 188 197 194 203 200 199 151 132 141 143 146 146 145 144 145 140 225 220 184 151 155 198 160 206 142 184 203 189 202
131 171 162 144 137 161 163 186 157 163 174 181 170 194 186 181 186 167 180 189 201 186 200 195 206 194 172 185 215 139 141 144 164 148 146 186 137 139 141 141 134 145 143 179 189 209 218
136 167 158 166 160 143 167 152 162 152 177 157 181 161 178 178 191 169 182 183 179 193 182 199 205 197 196 211 185 201 219 136 141 186 142 139 153 255 132 142 137 210 132 141 135 142 141

GFSGBSN_2pvu_pres_114.txt.gz
Presure
203 211 219 238 169 168 226 280 406 370 329 340 393 355 365 344 340 342 348 302 299 340 373 261 246 241 229 223 224 264 252 237 211 212 206 205 212 221 230 220 227 155 241 165 256 206 144
184 213 211 200 232 167 224 266 405 376 349 338 381 381 356 361 346 347 345 350 282 302 351 362 269 249 215 229 224 239 273 253 234 225 190 220 205 209 215 225 221 234 214 242 236 252 216
194 205 216 207 169 165 201 263 286 380 364 334 395 464 384 338 346 342 349 349 286 263 334 346 375 257 229 236 216 228 253 258 264 246 237 234 222 208 208 218 213 222 232 235 240 249 168
160 200 201 160 162 192 171 230 264 387 374 338 429 494 462 364 343 324 337 342 365 277 264 327 354 371 252 246 215 245 228 230 251 245 281 261 247 203 237 224 219 214 230 228 245 242 248
189 191 214 216 211 273 160 183 246 306 377 363 515 506 463 374 333 346 340 336 352 291 256 297 332 342 347 258 238 246 246 235 235 235 241 244 252 252 242 240 217 209 207 236 227 240 238
190 205 187 203 164 167 196 163 232 252 378 435 547 513 430 389 349 342 329 340 324 340 243 256 304 329 333 258 232 242 225 227 233 239 232 269 239 236 229 232 239 242 237 223 231 235 225
176 189 195 203 125 205 169 136 229 194 338 376 559 551 403 388 345 342 344 322 327 316 339 265 266 320 333 331 262 245 230 226 232 232 239 234 239 242 239 246 277 265 255 235 226 241 237
197 197 194 214 201 189 180 192 157 182 218 382 499 434 394 391 357 354 361 325 321 315 268 280 250 281 322 334 329 326 257 233 235 227 229 233 235 238 237 237 241 267 264 255 258 240 241
199 188 212 193 214 132 227 145 219 163 160 213 369 195 420 382 379 197 355 323 322 310 203 269 282 274 290 311 320 309 342 292 259 237 235 231 236 238 240 246 250 248 269 268 256 261 264
174 175 194 194 207 188 159 174 192 212 181 223 194 359 350 399 391 318 363 332 333 324 321 288 265 287 279 283 317 317 299 285 288 269 263 262 252 252 254 255 254 278 277 281 280 277 278
188 178 200 196 203 204 197 150 168 141 138 196 219 148 345 329 363 409 396 386 371 349 319 328 220 290 300 265 272 316 307 304 280 260 255 255 269 260 252 280 288 287 290 293 294 298 302
182 186 182 202 192 212 167 166 143 200 205 165 162 228 357 205 283 343 345 352 385 428 378 343 329 228 322 302 218 272 260 269 269 264 265 262 270 287 287 288 285 285 292 299 319 351 357
171 194 201 174 201 198 190 161 147 136 163 143 151 154 136 151 266 303 313 339 339 352 377 417 353 325 292 306 276 318 327 309 294 297 302 301 290 298 290 316 312 320 333 338 337 327 355
184 178 163 194 185 185 206 149 137 194 132 135 226 168 277 149 154 160 159 281 350 348 342 343 359 436 339 311 305 301 300 313 312 317 320 300 288 306 320 416 395 328 370 333 325 305 294
161 175 190 190 188 208 203 214 142 132 143 191 226 199 249 306 146 251 175 147 297 281 323 352 327 340 357 349 324 319 320 309 302 292 303 303 332 343 346 349 341 311 305 284 283 268 288
174 157 174 183 194 185 187 194 141 163 126 128 198 218 162 213 168 180 230 218 204 147 149 161 194 282 318 317 322 324 348 360 352 334 322 318 315 313 302 290 284 280 281 273 277 279 270
166 168 184 183 181 181 180 207 185 173 133 132 134 184 203 157 195 207 194 228 239 235 149 150 263 149 198 159 159 189 206 254 311 306 296 193 289 283 282 279 274 282 276 273 265 249 255
177 161 166 175 151 186 170 199 192 185 165 131 129 141 182 220 225 252 237 174 252 277 150 148 150 148 300 313 304 299 158 304 294 160 166 155 280 274 165 270 268 255 256 252 247 260 258
159 172 165 176 165 185 180 182 193 192 144 205 125 130 134 199 215 206 225 216 237 182 264 172 225 163 220 149 292 307 247 264 261 159 250 270 269 265 267 242 182 242 253 178 180 178 175
164 177 171 181 172 166 179 188 200 191 187 139 134 146 136 128 127 180 229 176 244 188 242 249 178 236 157 246 233 238 245 299 145 251 150 195 209 161 260 275 266 255 256 250 242 249 258
151 162 170 169 175 175 184 190 184 165 198 183 193 125 126 177 125 142 138 133 209 156 200 170 173 168 192 206 193 177 208 148 141 141 138 178 176 169 136 141 170 168 136 204 171 167 232
167 161 157 172 174 176 169 185 167 185 195 196 191 211 180 126 133 127 134 148 158 196 150 226 204 171 241 186 273 157 133 129 213 163 227 209 269 136 134 141 127 257 132 130 212 260 268
153 171 166 159 154 159 173 177 167 173 190 191 190 189 200 183 182 220 128 127 189 141 211 178 166 151 175 166 216 232 259 249 210 183 199 126 190 226 177 210 130 175 218 218 121 160 218
167 149 164 157 162 147 167 165 178 166 184 149 190 176 192 182 197 206 187 200 184 129 138 138 183 206 193 153 151 166 182 228 269 152 151 149 168 168 197 178 204 183 189 224 265 201 219
133 165 150 164 145 161 162 169 155 175 172 162 183 167 186 172 184 189 196 197 204 212 132 175 177 147 146 173 198 195 143 146 212 206 204 150 232 222 251 264 218 192 202 188 217 259 189
162 145 172 166 167 143 163 163 164 158 160 173 177 189 180 183 187 178 189 182 193 196 186 192 183 131 137 143 136 141 208 150 145 171 153 253 212 164 263 233 177 145 143 140 200 145 196
171 176 170 164 164 164 138 165 174 178 156 164 167 182 180 158 171 191 189 169 191 181 188 196 193 197 204 130 162 139 142 161 147 141 140 149 148 148 149 155 199 194 148 149 144 193 143
153 139 169 159 143 165 149 164 140 167 173 162 168 158 176 176 162 176 184 179 191 176 187 193 195 198 200 200 200 197 190 157 165 139 141 141 143 147 154 146 140 147 144 148 148 176 277
156 162 175 154 162 171 179 173 172 165 160 167 171 173 184 182 176 185 170 183 185 183 180 176 193 183 186 196 206 206 200 211 201 185 196 219 216 231 142 141 150 188 144 145 142 148 180

GFSGBSN_2pvu_pres_117.txt.gz
Presure
192 197 200 189 162 164 233 172 291 401 375 398 410 410 354 348 320 326 321 337 345 365 329 335 263 245 224 215 207 244 265 249 225 219 202 216 211 215 213 219 221 216 231 146 160 158 166
187 209 193 197 161 165 172 184 181 410 489 508 484 457 366 335 334 320 328 327 348 359 321 334 273 252 247 232 220 213 224 274 262 241 218 219 212 208 201 213 219 219 221 237 127 242 166
197 207 202 196 162 204 203 184 293 463 541 505 454 448 391 342 331 324 319 338 343 355 314 281 351 267 251 236 234 213 217 223 253 255 243 222 194 199 212 204 221 218 218 226 223 234 216
204 187 206 203 211 169 168 165 239 278 551 540 496 433 366 326 344 345 342 357 343 367 321 277 331 359 266 250 227 233 216 221 226 274 263 242 209 219 213 214 206 206 219 220 228 237 218
194 180 210 207 226 144 223 163 209 287 427 462 432 403 356 345 329 325 328 337 348 332 280 298 336 337 349 261 242 234 223 213 214 232 268 259 234 219 222 197 208 212 206 209 215 224 237
199 214 184 207 211 169 174 176 170 158 360 399 405 345 357 343 340 316 319 321 328 258 263 276 322 335 338 338 253 247 233 237 216 214 217 221 265 259 244 237 227 231 196 206 212 212 217
183 202 210 187 195 211 151 143 177 160 211 417 363 366 356 349 325 315 319 323 326 342 272 269 269 326 333 338 312 255 247 223 221 212 225 234 254 257 246 239 238 237 242 245 247 209 217
175 198 182 212 214 139 192 127 141 163 259 328 395 390 385 372 345 335 318 321 311 322 276 260 260 332 341 343 338 311 262 240 229 227 215 229 223 236 239 244 256 265 268 263 260 255 250
195 175 200 179 209 187 139 191 177 213 162 200 367 406 405 390 357 338 332 265 199 294 305 278 265 277 334 338 365 351 265 261 215 220 215 217 227 224 229 230 226 235 234 239 245 247 237
172 185 161 196 192 126 139 152 130 132 143 139 220 361 303 426 368 346 346 341 328 232 328 318 277 269 297 316 324 335 334 269 232 236 227 220 221 229 231 236 239 238 237 241 246 246 248
181 162 187 195 210 129 135 128 190 198 157 151 167 154 361 362 367 435 361 312 349 254 285 327 314 270 266 307 313 273 320 313 256 222 219 226 220 232 226 229 237 239 246 245 251 253 265
184 186 167 191 166 193 164 167 137 154 204 210 161 152 157 357 220 316 371 431 346 325 317 240 316 309 288 268 303 316 311 313 328 311 265 271 255 247 241 246 252 259 258 263 228 278 277
146 183 171 169 196 207 148 136 129 164 110 167 207 198 187 149 144 236 365 351 392 409 349 342 327 282 330 322 288 266 284 307 299 301 299 297 290 258 260 266 277 276 274 265 305 334 337
158 188 191 166 177 193 205 139 127 126 168 148 214 185 214 160 257 148 165 358 154 416 434 341 323 324 306 250 323 324 319 276 273 270 269 269 254 272 275 313 347 351 355 355 356 338 312
173 171 184 185 169 191 155 196 198 127 130 181 199 207 142 222 215 214 147 242 271 334 336 418 348 342 332 322 309 316 317 314 310 309 304 315 327 336 377 354 354 375 378 341 308 285 285
164 149 178 183 168 191 192 195 188 146 132 184 193 197 208 202 208 160 159 153 243 255 191 255 184 325 323 324 337 356 353 354 358 345 337 312 306 312 320 311 313 302 280 273 276 275 269
167 162 163 165 184 183 184 193 125 187 161 124 127 210 198 222 230 188 183 212 153 142 186 224 251 255 263 199 319 305 298 298 296 293 297 307 308 291 293 293 278 271 275 265 257 257 252
139 161 170 173 163 162 185 170 178 188 131 131 123 136 190 192 161 214 210 232 175 199 174 152 143 251 249 262 276 285 285 293 301 304 295 281 280 282 270 269 265 255 246 243 256 253 247
164 168 153 157 176 183 162 186 170 185 195 125 198 143 128 129 196 205 209 160 216 172 201 225 178 252 168 246 179 246 171 178 261 281 270 173 165 149 149 149 171 246 250 233 242 246 227
167 168 162 165 153 173 173 162 184 183 175 193 168 158 173 127 133 137 189 151 205 201 208 227 233 180 176 226 243 235 190 191 241 194 279 273 276 269 257 244 222 244 259 256 263 197 205
137 168 167 166 154 165 167 174 163 173 185 169 189 182 176 202 162 132 142 183 153 148 220 177 216 226 206 193 193 222 251 243 135 128 226 169 237 246 248 269 251 244 251 261 195 250 251
135 136 167 163 167 164 168 173 178 168 174 152 190 191 177 195 183 130 126 128 137 194 179 148 218 219 222 197 219 136 128 142 228 167 144 136 211 135 226 228 216 260 270 128 124 123 125
161 164 153 168 160 165 162 153 157 174 177 179 180 179 190 203 185 192 190 151 141 135 190 190 203 203 165 195 212 226 220 193 180 211 241 230 229 203 189 190 222 213 222 206 244 174 265
162 158 166 165 171 162 165 170 165 151 173 175 166 179 158 165 188 183 194 203 194 160 132 137 145 208 179 171 148 168 196 206 218 212 152 160 179 230 236 258 190 176 158 198 192 159 178
141 170 168 149 156 162 167 148 171 146 167 155 177 168 177 186 164 166 189 188 185 195 199 135 144 140 141 199 189 197 217 142 153 151 221 152 195 212 196 222 225 224 239 202 226 252 261
176 155 186 174 151 168 167 170 159 162 172 174 156 169 175 180 160 165 176 190 193 195 178 183 197 201 130 170 139 134 140 186 153 143 150 200 161 220 160 189 168 150 246 201 238 158 268
169 161 157 169 146 155 156 165 165 170 149 166 171 166 163 169 177 176 181 180 163 172 186 186 181 189 182 200 200 189 163 146 205 141 154 190 135 205 146 215 169 176 151 168 178 196 156
185 172 179 172 170 154 169 178 163 164 142 177 175 171 161 155 167 179 177 187 184 183 166 169 184 189 197 194 190 196 196 189 203 198 165 140 136 170 217 192 139 179 202 193 183 144 142
189 173 173 181 170 171 162 163 160 162 164 165 150 178 166 170 180 169 178 163 174 186 184 190 175 179 189 188 183 173 194 195 203 187 187 196 189 213 186 205 192 233 239 229 168 146 147

GFSGBSN_2pvu_pres_120.txt.gz
Presure
198 185 205 207 226 201 185 161 181 582 516 473 416 362 328 312 314 314 323 324 327 333 363 327 354 286 263 227 205 204 291 264 233 202 215 208 216 213 214 218 223 232 161 162 136 156 152
191 187 188 211 170 205 198 138 177 525 494 474 410 365 327 314 319 328 323 324 330 354 359 418 340 352 271 244 208 194 282 271 254 221 205 199 200 204 212 202 213 223 227 237 228 138 180
199 186 188 202 150 161 123 150 154 386 396 410 418 341 339 318 320 326 325 322 339 351 357 383 327 346 317 260 239 183 206 225 276 271 238 212 203 218 215 214 202 216 217 223 229 233 151
169 188 193 193 223 141 123 131 148 291 388 365 377 341 340 342 324 341 349 356 344 354 366 377 318 331 350 268 249 200 190 193 208 273 253 235 226 216 222 215 218 190 203 206 216 225 230
177 172 175 201 190 153 152 151 153 178 397 374 334 333 324 323 323 324 327 356 345 355 349 352 320 325 321 273 255 223 222 217 199 202 234 255 242 219 211 222 203 206 202 206 209 218 224
165 200 167 184 202 139 135 140 147 135 224 405 376 342 323 305 321 331 338 356 228 346 341 329 302 310 316 275 262 254 229 210 205 209 201 246 275 262 235 220 202 213 208 208 214 210 209
193 163 197 220 215 154 170 129 133 133 142 253 406 340 314 316 306 207 296 348 310 296 296 278 276 288 357 361 271 260 249 238 216 211 207 216 219 281 276 266 253 233 229 201 195 200 203
175 167 140 195 127 198 127 190 158 182 157 275 258 405 340 328 338 329 329 316 290 286 271 286 342 345 341 344 338 266 258 255 247 220 211 211 207 224 239 289 276 273 242 237 219 210 227
184 168 163 183 204 133 131 172 156 205 187 150 201 180 387 340 340 340 222 333 297 282 270 265 293 347 335 333 344 349 268 256 246 220 225 217 209 209 210 220 227 254 272 259 238 225 230
182 182 162 194 191 175 194 126 146 196 165 197 147 241 322 401 375 326 336 234 332 303 279 270 270 318 294 322 319 315 325 265 256 236 225 214 211 212 214 220 231 256 259 262 265 265 266
159 162 179 194 189 128 133 129 226 206 173 201 216 138 275 245 394 428 348 330 256 328 317 274 263 264 316 317 168 317 317 353 269 249 211 219 215 229 218 211 234 234 233 241 243 243 246
176 167 183 186 171 189 201 126 130 203 162 158 182 148 142 230 272 437 353 349 348 346 324 319 280 267 290 313 314 318 319 319 322 259 247 222 218 217 222 226 225 230 228 231 239 239 240
164 183 170 183 138 186 172 147 128 174 211 187 190 200 169 144 250 230 448 367 354 353 346 339 283 301 277 286 312 318 315 321 318 313 266 228 228 242 238 230 229 226 226 232 234 237 248
171 175 154 173 180 138 168 190 128 133 208 223 200 195 206 153 162 184 136 223 341 341 339 334 331 335 336 313 277 305 321 320 320 330 329 304 233 237 217 213 254 296 293 263 261 370 378
173 172 174 180 177 172 145 193 181 128 139 174 209 205 197 197 147 148 135 229 126 238 338 333 353 354 336 324 326 328 325 292 301 312 323 314 319 324 313 315 286 412 412 405 384 320 309
160 173 156 175 174 172 168 186 129 180 126 125 171 190 195 170 203 182 151 154 157 230 267 180 311 317 312 314 318 318 324 320 323 329 325 337 344 350 347 337 335 323 301 295 285 280 283
167 166 157 169 172 180 184 158 184 188 149 129 130 140 124 194 187 171 187 217 204 162 151 180 229 179 162 318 288 289 327 314 312 303 300 302 304 292 286 279 278 276 268 268 268 265 261
145 164 172 177 172 167 182 164 165 176 180 134 129 127 130 141 201 186 213 154 145 169 191 164 186 209 224 224 152 313 282 280 300 296 282 283 281 265 273 265 243 265 248 267 245 246 244
159 140 167 168 174 160 157 178 161 177 184 179 173 196 129 126 161 204 186 186 190 215 207 204 214 191 225 219 206 240 245 226 197 175 240 265 260 253 252 257 257 264 249 243 245 237 241
171 156 137 134 168 175 167 166 175 159 172 155 185 143 135 124 128 173 187 197 173 189 186 208 210 196 166 205 215 196 175 221 244 237 205 198 222 179 281 276 270 262 261 266 270 212 196
178 172 157 173 136 175 185 151 170 175 183 179 181 181 188 161 186 130 126 139 179 185 200 179 206 206 196 211 207 181 176 152 133 157 207 148 141 174 260 255 215 226 249 240 263 281 246
127 144 140 162 176 166 177 173 169 158 164 181 165 187 152 175 191 173 139 126 126 166 172 200 158 172 204 213 185 155 128 204 199 217 141 196 174 152 137 223 235 263 247 253 204 206 213
164 175 168 137 161 163 164 174 171 174 155 167 182 164 186 164 156 178 194 190 136 131 133 145 192 192 206 204 198 200 205 191 204 199 211 189 178 208 222 239 204 202 125 229 193 162 135
177 174 151 153 169 185 172 182 177 137 170 150 154 182 180 176 182 153 162 182 196 174 155 131 155 169 195 171 174 194 179 195 204 206 189 155 217 224 212 201 216 189 190 217 212 229 239
153 162 159 162 191 168 163 174 175 173 168 143 164 162 179 178 181 172 187 163 162 189 175 171 164 130 184 169 149 181 156 185 201 200 194 183 158 203 199 147 199 151 177 231 196 224 231
161 164 157 164 169 167 160 167 167 179 163 178 140 165 171 151 179 168 173 168 184 185 171 189 191 188 173 138 153 155 136 133 139 204 168 186 184 200 156 193 209 207 209 220 213 148 196
157 146 155 168 165 174 171 169 149 190 181 179 177 166 140 175 168 172 177 166 185 182 192 170 181 178 196 179 185 185 193 183 188 189 187 204 152 139 140 193 205 201 169 145 187 246 178
170 152 160 153 166 168 172 161 171 131 192 192 181 163 172 170 174 162 168 174 180 177 164 192 180 189 174 172 184 187 173 188 195 190 194 176 139 179 200 183 134 161 143 171 220 223 212
148 173 172 197 191 174 180 164 180 191 186 186 198 188 133 171 177 170 171 172 170 179 156 167 180 189 179 185 167 189 185 195 182 197 183 176 203 208 194 186 205 190 217 211 219 211 185

GFSGBSN_2pvu_pres_123.txt.gz
Presure
184 182 171 204 228 148 232 146 139 243 382 345 349 339 326 332 327 316 320 316 322 363 367 322 318 308 278 250 179 220 206 206 275 225 203 201 215 219 225 222 233 238 211 195 134 152 141
191 161 162 189 143 135 207 149 126 144 364 348 327 290 337 313 313 320 313 321 331 334 315 315 356 321 296 270 199 246 190 208 247 293 230 201 184 214 216 217 221 224 230 232 203 162 173
171 184 184 198 141 133 132 125 151 149 342 355 349 355 340 336 332 361 349 335 354 355 301 312 312 298 291 278 190 270 221 199 233 292 279 222 208 198 216 197 222 219 223 230 227 239 214
177 197 182 182 153 165 127 154 235 239 290 337 361 354 282 329 337 347 349 353 355 360 383 299 286 288 304 293 278 279 226 200 204 192 286 237 218 208 208 196 207 216 223 227 227 228 238
183 175 181 184 200 148 133 153 196 220 181 307 336 333 241 338 364 354 264 355 363 359 394 400 333 308 304 298 311 285 274 206 201 190 287 280 224 213 216 190 178 210 201 221 223 223 230
180 178 194 190 132 125 194 189 188 213 159 142 372 338 348 256 313 325 354 354 374 394 384 359 314 313 301 300 320 312 252 201 204 207 232 286 270 251 234 225 200 196 209 198 181 201 224
183 191 172 199 199 145 184 214 155 173 213 248 171 369 340 334 338 273 301 304 305 339 364 356 291 322 344 336 309 311 314 213 209 202 203 283 273 261 256 232 233 216 210 206 202 214 220
163 182 183 180 166 184 130 207 193 160 154 145 157 336 363 353 353 283 288 284 288 287 276 286 309 315 317 320 356 367 255 215 194 200 185 204 189 246 267 264 254 243 235 236 236 211 221
181 174 187 174 196 134 150 143 180 188 203 156 145 240 388 357 342 333 282 267 270 276 339 346 315 272 346 332 336 329 337 294 211 213 195 202 205 205 203 234 253 259 255 245 237 236 234
174 167 181 185 179 140 159 127 187 188 199 205 138 222 253 374 348 339 319 289 283 266 287 331 336 330 336 341 348 231 188 201 230 210 214 207 199 199 204 201 206 227 241 251 276 291 270
149 182 170 177 166 186 163 134 123 188 190 182 155 132 170 144 160 359 339 327 297 286 270 283 338 326 327 309 315 337 363 312 263 254 215 211 212 211 215 211 210 211 216 225 231 236 240
178 171 174 183 183 184 192 133 133 191 184 132 187 149 187 205 238 262 356 347 335 324 317 285 307 318 318 321 318 330 331 340 324 262 257 238 227 225 224 219 225 210 215 215 218 221 228
168 175 166 183 183 167 180 183 134 140 195 196 180 189 151 150 183 116 212 268 356 359 339 314 287 293 316 315 312 309 310 317 328 340 263 254 251 230 227 226 224 218 219 228 229 231 229
144 168 172 163 186 158 181 183 194 128 133 155 188 192 215 199 149 168 117 243 131 322 350 341 331 318 278 321 321 322 332 323 329 330 346 275 260 251 240 213 223 227 234 238 235 219 227
185 152 184 157 155 182 155 190 136 163 132 128 139 184 183 187 219 193 151 142 148 229 263 321 344 346 347 339 331 327 326 320 328 335 325 342 353 269 239 221 224 233 247 232 244 383 296
174 164 173 170 175 174 181 176 189 189 139 130 133 156 214 195 174 212 206 180 157 136 225 233 252 251 286 322 330 328 329 328 329 341 348 342 342 347 347 350 339 335 320 318 307 300 301
164 159 166 139 170 183 179 185 187 174 185 135 172 126 139 160 189 179 176 187 200 196 173 217 214 217 217 245 267 265 306 310 309 304 306 308 305 299 299 298 294 290 289 291 291 280 270
164 168 168 173 133 166 165 151 190 179 170 192 155 183 126 127 170 143 198 195 197 197 200 192 197 137 139 222 217 227 240 267 269 266 281 279 275 274 281 274 272 270 261 273 256 251 261
153 159 177 165 180 142 165 172 151 191 190 188 168 166 126 127 130 167 173 179 178 178 196 186 193 195 185 137 154 188 211 205 153 236 235 242 246 255 237 235 261 263 264 271 259 250 267
162 172 145 156 161 168 172 166 150 180 159 182 185 177 161 165 185 130 132 169 198 194 195 185 183 166 207 197 165 194 205 208 201 217 177 184 189 140 224 241 248 247 260 252 230 217 238
162 166 171 166 170 162 169 175 165 173 173 156 177 183 188 181 159 195 143 126 141 197 172 188 208 209 186 176 166 187 196 133 150 191 193 203 220 185 230 221 241 204 217 234 225 253 234
183 132 166 170 180 168 169 160 160 161 173 152 171 166 194 186 186 177 159 189 132 126 197 200 198 160 189 178 195 177 135 159 190 202 220 196 204 200 134 223 175 196 192 210 202 214 215
168 165 161 166 163 162 161 158 177 172 162 168 156 173 150 188 185 180 183 171 165 159 130 131 179 199 200 173 192 165 179 188 185 176 183 198 200 188 175 213 213 219 218 207 180 222 201
148 156 147 158 167 179 169 177 166 172 159 175 166 166 169 180 194 190 178 172 191 180 163 189 135 131 162 179 184 195 209 199 169 203 165 193 199 183 207 194 193 210 219 217 214 214 218
164 148 165 156 177 163 165 168 162 166 172 165 175 153 164 168 185 186 195 186 159 186 187 184 180 188 180 167 134 172 151 192 191 207 185 203 199 156 157 202 208 159 166 162 180 222 213
169 163 135 168 169 166 164 159 167 171 167 161 170 179 181 180 190 143 184 187 195 185 160 184 191 183 173 166 176 195 192 144 139 139 138 174 205 180 196 215 145 145 210 199 211 221 240
158 141 163 152 144 157 150 161 144 168 175 169 178 168 181 178 164 177 179 149 199 177 187 177 179 190 185 190 169 176 185 181 177 195 183 177 193 143 169 166 163 183 175 184 180 223 174
172 177 158 172 168 169 158 158 182 186 184 168 176 169 162 170 169 182 179 195 180 211 199 189 170 170 174 188 192 187 179 178 196 199 189 186 175 204 191 173 195 162 163 181 176 139 137
153 170 181 137 168 169 173 187 172 169 176 180 178 183 178 176 173 174 179 170 201 217 149 215 218 198 195 181 185 193 177 193 188 192 205 194 179 194 192 208 199 203 196 212 211 217 203